[[[{"header":{"parameterUnit":"kt","parameterCategory":2,"dx":1,"dy":1,"la1":29.587661999999998,"la2":31.0,"lo1":-88.76705300000003,"lo2":-86.6583820000003,"nx":115,"ny":88,"refTime":"2022-09-23T18:00:00:Z","depth":0,"parameterNumber":1,"parameterNumberName":"U-component_of_WINDS"},"data":[3.6657,3.5926,3.5579,3.5065,3.4451,3.437,3.4484,3.4864,3.5788,3.6558,3.7197,3.8208,3.8934,3.9353,3.9694,3.9618,3.9238,3.9574,3.979,3.9876,3.9791,3.9995,4.0296,4.0555,4.1646,4.2143,4.2377,4.2783,4.3161,4.3619,4.373,4.3641,4.5037,4.5589,4.5784,4.6377,4.6859,4.6942,4.7062,4.7062,4.68,4.6371,4.6039,4.5813,4.5457,4.4873,4.4269,4.3967,4.2773,4.1352,4.0077,3.9718,3.9479,3.9356,3.9375,3.9657,3.9523,3.9879,4.0166,4.0365,4.0191,4.0115,3.96,3.9054,3.8227,3.7379,3.6419,3.5638,3.4842,3.4216,3.3885,3.3428,3.2673,3.21,3.1249,2.9787,2.8215,2.7006,2.5842,2.4675,2.3496,2.2558,2.1325,2.0678,2.003,1.9322,1.9027,1.9027,1.9027,1.8915,1.8738,1.8147,1.7561,1.6138,1.4535,1.3652,1.3115,1.2455,1.2034,1.2391,1.2987,1.3885,1.4594,1.5183,1.5782,1.6123,1.6223,1.6367,1.6534,1.6693,1.6437,1.6486,1.7025,1.7404,1.728,3.669,3.5907,3.5334,3.4787,3.4437,3.4174,3.4506,3.5125,3.5648,3.6504,3.7584,3.8771,3.8993,3.8916,3.8858,3.882,3.8947,3.9407,3.936,3.9416,3.97,3.9951,4.004,4.0069,4.0702,4.1233,4.1765,4.2442,4.3266,4.3749,4.4151,4.4532,4.5091,4.5695,4.5956,4.6449,4.6889,4.6853,4.6693,4.6835,4.6657,4.6187,4.5927,4.5862,4.5954,4.6053,4.5476,4.483,4.3853,4.2786,4.2068,4.1658,4.1302,4.0612,4.0584,4.0464,4.038,4.0476,4.0777,4.0919,4.0671,4.0296,3.978,3.9066,3.8211,3.7266,3.6249,3.5354,3.4558,3.3988,3.3771,3.3314,3.2386,3.1572,3.0605,2.945,2.7819,2.6191,2.5142,2.4082,2.3321,2.2734,2.1854,2.1148,2.0324,1.944,1.9027,1.9027,1.9027,1.8915,1.8561,1.7916,1.7449,1.5847,1.3944,1.3294,1.3056,1.2391,1.2093,1.251,1.3051,1.3999,1.4772,1.5302,1.5469,1.5706,1.5798,1.601,1.6121,1.641,1.6253,1.6299,1.6698,1.6497,1.6373,3.669,3.5893,3.5269,3.4706,3.4349,3.4776,3.5151,3.5697,3.6719,3.753,3.8266,3.8693,3.8916,3.8725,3.8705,3.8757,3.9089,3.9238,3.9297,3.9503,3.9865,3.9974,4.0211,4.0453,4.0582,4.0825,4.1365,4.2197,4.333,4.398,4.4692,4.5262,4.5985,4.6496,4.6431,4.617,4.6205,4.6271,4.5707,4.5831,4.6116,4.5689,4.5357,4.6128,4.6193,4.6025,4.5921,4.6191,4.5375,4.467,4.4377,4.3893,4.2863,4.1909,4.1545,4.1451,4.1244,4.0876,4.1102,4.1132,4.0895,4.0324,3.978,3.9248,3.8406,3.7041,3.5978,3.5455,3.4615,3.3771,3.3543,3.2959,3.2031,3.0914,2.9838,2.866,2.7064,2.5626,2.4542,2.3646,2.3211,2.2625,2.1736,2.0979,2.0383,1.944,1.9086,1.9027,1.9027,1.8968,1.833,1.7745,1.7449,1.6203,1.4361,1.3587,1.317,1.263,1.2149,1.2689,1.3289,1.4237,1.4891,1.5188,1.5398,1.551,1.5619,1.5905,1.6047,1.5957,1.6022,1.5981,1.5853,1.5659,1.4695,3.6722,3.6057,3.5546,3.4971,3.4564,3.5396,3.5848,3.6177,3.7825,3.8474,3.8405,3.8363,3.8266,3.8011,3.8117,3.8342,3.8767,3.8943,3.9415,3.9592,3.9927,4.0065,4.0345,4.0171,4.0541,4.0907,4.1466,4.2248,4.3431,4.4842,4.5901,4.611,4.6657,4.6735,4.6461,4.6027,4.5589,4.5368,4.4664,4.4308,4.493,4.4806,4.5279,4.6288,4.7032,4.6813,4.7216,4.7534,4.6977,4.6548,4.6568,4.5807,4.4593,4.3333,4.2664,4.232,4.1825,4.1437,4.1341,4.116,4.1049,4.0533,3.985,3.929,3.8349,3.6884,3.5921,3.5455,3.4773,3.3874,3.3142,3.2444,3.1583,3.0321,2.904,2.7644,2.6259,2.5077,2.3946,2.3511,2.3185,2.2398,2.145,2.0744,2.0206,1.9683,1.9217,1.9046,1.9046,1.9073,1.8444,1.7935,1.7579,1.6737,1.5253,1.4183,1.3587,1.3047,1.2749,1.3051,1.3592,1.4242,1.4772,1.5129,1.5386,1.5335,1.545,1.5678,1.5703,1.5519,1.5476,1.4939,1.4802,1.3919,1.2691,3.6884,3.6462,3.6482,3.597,3.5524,3.5748,3.6255,3.7013,3.8492,3.869,3.7732,3.7634,3.7302,3.7178,3.745,3.7697,3.8354,3.8954,3.9411,3.9175,3.9736,3.9824,3.9807,3.967,4.0367,4.0861,4.1571,4.2614,4.3654,4.5135,4.6526,4.6919,4.7195,4.689,4.6021,4.5564,4.5002,4.4521,4.3703,4.3552,4.3952,4.4539,4.5297,4.6925,4.771,4.8196,4.8669,4.8736,4.8453,4.8239,4.8054,4.763,4.6549,4.5361,4.3903,4.3156,4.2271,4.1786,4.1341,4.123,4.1105,4.077,4.0143,3.957,3.8673,3.7379,3.6249,3.5626,3.466,3.3759,3.2959,3.226,3.1055,2.9654,2.8507,2.7288,2.5979,2.4837,2.3817,2.3267,2.2883,2.2347,2.1391,2.0979,2.0501,1.9533,1.9073,1.9086,1.9145,1.9283,1.8746,1.8125,1.7639,1.6797,1.5485,1.4599,1.4004,1.3647,1.3468,1.3652,1.3944,1.4297,1.4708,1.5132,1.5504,1.5423,1.5302,1.5417,1.5424,1.5051,1.4496,1.3953,1.3004,1.1916,1.0981,3.6917,3.656,3.6527,3.6427,3.6436,3.7144,3.751,3.7665,3.8083,3.7921,3.719,3.6954,3.687,3.6892,3.723,3.7832,3.8605,3.9166,3.949,3.9486,3.9733,3.9681,3.9766,3.9999,4.049,4.126,4.2151,4.3211,4.4534,4.598,4.6806,4.7008,4.6455,4.6122,4.5558,4.4806,4.4219,4.3721,4.3641,4.4185,4.5059,4.6068,4.705,4.8227,4.8673,4.8976,4.9265,4.9766,4.9704,4.9709,4.977,4.9361,4.8667,4.7138,4.5626,4.3306,4.2548,4.1897,4.1341,4.123,4.123,4.0993,4.0422,3.985,3.894,3.7661,3.6588,3.5682,3.4603,3.3645,3.2891,3.2031,3.0536,2.9066,2.7982,2.6985,2.582,2.46,2.3831,2.319,2.2648,2.217,2.1649,2.1215,2.0654,1.9754,1.9296,1.9316,1.9414,1.9493,1.9068,1.8451,1.7741,1.7051,1.6025,1.5075,1.4555,1.4207,1.4019,1.4123,1.4302,1.4658,1.4971,1.5288,1.5573,1.5462,1.526,1.5298,1.4837,1.4178,1.3568,1.2592,1.1393,1.0427,0.9987,3.6962,3.6775,3.7001,3.7028,3.708,3.829,3.8457,3.7944,3.7673,3.7151,3.6606,3.6479,3.6677,3.7012,3.7414,3.8248,3.8827,3.9318,3.9594,3.9683,3.9631,3.9682,3.9893,4.0338,4.1099,4.1903,4.2938,4.4036,4.5239,4.6395,4.7008,4.6985,4.6472,4.5747,4.5041,4.4051,4.3677,4.3481,4.4015,4.5059,4.6336,4.705,4.8227,4.9137,4.9672,4.9958,5.0208,5.0637,5.0762,5.0677,5.0611,5.0378,4.9772,4.8124,4.6678,4.4077,4.2879,4.2008,4.1397,4.123,4.123,4.1105,4.0575,4.0003,3.8996,3.7661,3.6192,3.5512,3.4672,3.3462,3.2547,3.1744,3.0536,2.9091,2.7725,2.6579,2.5335,2.4338,2.3747,2.3215,2.295,2.2385,2.1531,2.1123,2.0887,2.0051,1.9625,1.9671,1.9723,1.9752,1.9383,1.8763,1.8065,1.7301,1.6384,1.5479,1.5067,1.4704,1.4669,1.4708,1.4832,1.4966,1.529,1.5489,1.5616,1.5498,1.5253,1.4586,1.4032,1.3352,1.2434,1.1078,0.9902,0.943,0.9032,3.7143,3.7232,3.8071,3.799,3.7612,3.875,3.8624,3.7617,3.7516,3.6916,3.5934,3.6546,3.6768,3.6678,3.7672,3.8365,3.8631,3.9226,3.9415,3.9516,3.9532,3.9988,4.0276,4.0676,4.1543,4.2644,4.371,4.4555,4.5518,4.6466,4.6948,4.6931,4.6304,4.5519,4.4773,4.4086,4.3837,4.4399,4.5048,4.6377,4.7549,4.8067,4.9137,4.9993,5.0529,5.0796,5.1118,5.1421,5.151,5.1211,5.0645,5.0183,4.922,4.7729,4.6917,4.5665,4.3857,4.2492,4.1453,4.123,4.123,4.0993,4.0519,4.0017,3.8996,3.7492,3.6249,3.5411,3.4672,3.3405,3.2318,3.1446,3.0594,2.9025,2.7536,2.6285,2.4998,2.4202,2.3648,2.3259,2.3045,2.257,2.1677,2.1305,2.1103,2.041,2.0048,2.0088,2.0055,2.0009,1.9728,1.9095,1.8419,1.7611,1.6828,1.5984,1.5494,1.5098,1.5116,1.5064,1.5194,1.5328,1.5478,1.5584,1.5674,1.5416,1.4913,1.4234,1.3323,1.2211,1.1339,1.0126,0.9444,0.8822,0.8737,3.801,3.8111,3.8889,3.9123,3.9095,3.9528,3.9054,3.7975,3.7524,3.7023,3.6631,3.6892,3.7222,3.7613,3.8094,3.8426,3.9094,3.9361,3.9444,3.9444,3.9444,4.0021,4.0638,4.1154,4.2048,4.316,4.4166,4.5007,4.5868,4.6369,4.6671,4.6574,4.5805,4.5187,4.4791,4.4656,4.4638,4.5754,4.6645,4.7875,4.8834,4.9565,5.0225,5.0921,5.1296,5.1403,5.1635,5.1724,5.1724,5.1494,5.0963,5.036,4.9558,4.8215,4.6879,4.5626,4.4077,4.2548,4.1564,4.123,4.0923,4.0645,4.0073,3.929,3.8124,3.6984,3.6035,3.5309,3.4501,3.3417,3.2318,3.1687,3.0474,2.878,2.7363,2.6139,2.5016,2.4331,2.3757,2.3322,2.3006,2.2548,2.1947,2.1722,2.1339,2.086,2.0404,2.0385,2.0358,2.0272,2.0085,1.9498,1.8847,1.8028,1.7193,1.6312,1.575,1.5548,1.5371,1.5242,1.5393,1.5536,1.5611,1.5701,1.5873,1.573,1.4888,1.3803,1.2691,1.1524,1.049,0.9733,0.9015,0.8888,0.8941,3.8781,3.893,3.9482,3.9789,3.9918,3.9882,3.9292,3.833,3.7774,3.7333,3.7098,3.7439,3.7937,3.826,3.8542,3.8995,3.9377,3.9444,3.9444,3.9494,3.9793,4.0305,4.0959,4.1754,4.2549,4.3601,4.4313,4.5105,4.5837,4.6224,4.6377,4.6228,4.5506,4.4884,4.4984,4.5725,4.6116,4.7371,4.8495,4.9405,5.042,5.0795,5.1135,5.1599,5.1671,5.1671,5.1724,5.1742,5.1565,5.1229,5.075,4.9986,4.9059,4.7621,4.6335,4.5244,4.3707,4.2326,4.1772,4.0979,4.0687,4.0185,3.9556,3.8673,3.7618,3.6431,3.565,3.5037,3.4399,3.3405,3.2203,3.1514,3.0337,2.8653,2.7132,2.5885,2.51,2.4434,2.3815,2.3381,2.3341,2.3012,2.2705,2.2465,2.1657,2.1047,2.0666,2.0615,2.0569,2.049,2.0332,1.9773,1.9085,1.8332,1.742,1.623,1.5576,1.5547,1.5536,1.5467,1.5568,1.5717,1.5833,1.5946,1.6048,1.6072,1.5151,1.415,1.2544,1.1047,1.0023,0.9162,0.8975,0.8971,0.9035,3.9352,3.9661,3.9828,3.994,3.9978,3.9599,3.9161,3.859,3.8199,3.7791,3.7514,3.8063,3.8419,3.8509,3.9061,3.9311,3.9444,3.9527,3.9594,3.9827,4.0293,4.0992,4.1674,4.229,4.2985,4.3865,4.431,4.4603,4.4896,4.5518,4.5536,4.5271,4.533,4.5375,4.5766,4.7304,4.8174,4.8495,4.9797,5.0315,5.0814,5.1278,5.1492,5.1742,5.1742,5.1742,5.1742,5.1742,5.1441,5.0892,5.0307,4.9488,4.8397,4.6754,4.5517,4.4696,4.31,4.2285,4.2008,4.0895,4.0268,3.9878,3.9178,3.8168,3.7336,3.6488,3.5537,3.4797,3.4342,3.3405,3.2203,3.1065,2.9855,2.8459,2.6858,2.5664,2.5098,2.4421,2.39,2.3444,2.3665,2.3895,2.3503,2.2981,2.2031,2.1378,2.0986,2.0806,2.0754,2.0622,2.0404,1.9825,1.9116,1.8418,1.7638,1.6295,1.5564,1.5637,1.5695,1.5685,1.5754,1.5873,1.6068,1.62,1.6157,1.5989,1.5252,1.4584,1.2815,1.1158,0.9948,0.9265,0.9048,0.9037,0.9083,4.0091,4.019,4.0327,4.0186,3.9827,3.918,3.8741,3.8504,3.8148,3.7955,3.8053,3.8778,3.9084,3.9161,3.9394,3.9477,3.961,3.9977,4.0221,4.0509,4.0975,4.1691,4.2257,4.2804,4.3254,4.3818,4.4164,4.4358,4.4551,4.4687,4.4806,4.4884,4.4936,4.5382,4.6051,4.7768,4.9298,4.9904,5.0814,5.1297,5.1297,5.1564,5.1671,5.1636,5.1565,5.1565,5.1565,5.1512,5.1229,5.0573,4.9809,4.8934,4.775,4.6341,4.49,4.3927,4.299,4.2008,4.1438,4.0631,3.9878,3.9332,3.8673,3.7717,3.6714,3.5978,3.5354,3.4558,3.4159,3.3519,3.2203,3.1008,2.9797,2.8459,2.6873,2.5552,2.5013,2.46,2.4056,2.3557,2.3973,2.428,2.389,2.3462,2.2668,2.2179,2.1541,2.0942,2.0805,2.0549,2.0371,1.9868,1.9159,1.8529,1.7874,1.6809,1.5918,1.5992,1.5844,1.5849,1.592,1.6126,1.6258,1.6358,1.6255,1.5838,1.5388,1.4961,1.3371,1.141,1.0689,1.0023,0.9737,0.9153,0.9199,4.0711,4.0679,4.0243,3.981,3.9347,3.8811,3.8661,3.8678,3.8478,3.8479,3.8785,3.9184,3.9444,3.9544,3.966,3.9877,3.9993,4.0704,4.0909,4.1225,4.1658,4.2257,4.2673,4.3087,4.342,4.3836,4.3919,4.4065,4.4102,4.4221,4.4327,4.4536,4.468,4.5342,4.6739,4.8459,4.9851,5.0761,5.1439,5.1512,5.1459,5.13,5.1247,5.1087,5.1016,5.1016,5.107,5.1087,5.0644,4.9969,4.9149,4.8289,4.7264,4.5486,4.4242,4.3487,4.2382,4.1675,4.1174,4.0575,3.9822,3.901,3.8349,3.7618,3.6532,3.5909,3.5228,3.4672,3.4216,3.3405,3.2203,3.1008,2.9859,2.841,2.7062,2.5722,2.5036,2.4806,2.4351,2.3933,2.4178,2.4604,2.4247,2.3838,2.3395,2.2877,2.1914,2.1037,2.071,2.0398,2.0302,1.9869,1.9162,1.8522,1.8013,1.7196,1.6351,1.61,1.591,1.6015,1.6147,1.6285,1.6475,1.6522,1.6478,1.5949,1.5519,1.5257,1.4008,1.2026,1.1137,1.0642,0.9996,0.9337,0.9209,4.1183,4.1037,3.9877,3.9214,3.8816,3.859,3.8689,3.8944,3.9003,3.9115,3.9311,3.9444,3.9494,3.9699,4.0158,4.0568,4.0647,4.1345,4.1594,4.191,4.2423,4.2823,4.3104,4.3535,4.3869,4.3985,4.3719,4.337,4.3229,4.3832,4.393,4.4185,4.4646,4.6215,4.7605,4.8716,4.9884,5.091,5.1264,5.1123,5.0839,5.0626,5.052,5.02,5.0022,4.9969,4.9969,5.0129,4.9862,4.9239,4.8649,4.7895,4.6738,4.5009,4.3857,4.31,4.2049,4.1453,4.1049,4.0519,3.9947,3.929,3.8462,3.7461,3.6588,3.6079,3.5524,3.4923,3.4273,3.3405,3.226,3.1076,2.9985,2.8615,2.7223,2.605,2.5334,2.5063,2.462,2.4249,2.4289,2.4635,2.4513,2.4174,2.3816,2.2887,2.1861,2.1173,2.0752,2.016,2.0029,1.9934,1.9221,1.8687,1.8135,1.7509,1.6785,1.6418,1.6146,1.6211,1.629,1.6496,1.6644,1.6767,1.6706,1.602,1.5423,1.5148,1.4405,1.2593,1.1293,1.061,0.997,0.9422,0.9209,4.1004,4.0749,4.0291,3.9843,3.937,3.8632,3.8512,3.8777,3.8766,3.8997,3.9323,3.9433,3.9571,3.9907,4.0424,4.0835,4.0868,4.1574,4.2091,4.2627,4.3187,4.352,4.3652,4.3719,4.3985,4.3985,4.3569,4.3354,4.3463,4.3584,4.3679,4.3727,4.4824,4.6183,4.7613,4.869,4.9474,5.0468,5.052,5.0413,5.02,5.0129,5.004,4.9986,4.9969,4.9969,4.9969,4.9916,4.9595,4.8988,4.8451,4.7642,4.6482,4.497,4.3762,4.2935,4.1994,4.1341,4.0993,4.031,3.9738,3.9178,3.8419,3.7461,3.6815,3.6136,3.5524,3.5106,3.4387,3.3405,3.2318,3.1479,3.0341,2.8968,2.7457,2.6528,2.567,2.5136,2.4651,2.4431,2.447,2.4809,2.4619,2.4454,2.3815,2.2823,2.2049,2.1358,2.0634,1.9857,1.9883,2.0061,1.9495,1.9105,1.8541,1.7901,1.7195,1.6687,1.6395,1.6321,1.6522,1.666,1.6846,1.6947,1.7027,1.6496,1.6137,1.5488,1.4739,1.2926,1.1377,1.0672,0.9984,0.9492,0.9139,4.1246,4.0524,4.0378,3.9844,3.9064,3.8668,3.8465,3.8438,3.8443,3.8709,3.9096,3.9254,3.9513,3.995,4.0678,4.1115,4.1468,4.2104,4.2722,4.3323,4.3669,4.3902,4.3985,4.3985,4.3985,4.3836,4.3554,4.3504,4.3502,4.3526,4.3719,4.4485,4.5578,4.6633,4.8209,4.8916,4.9485,4.9778,4.9916,4.9809,4.9631,4.9524,4.9434,4.92,4.9146,4.9146,4.9129,4.92,4.8968,4.8683,4.8161,4.7405,4.6374,4.5134,4.3872,4.3045,4.2119,4.1564,4.1174,4.0087,3.9626,3.9191,3.8419,3.7587,3.711,3.6375,3.5581,3.5322,3.4558,3.3589,3.2586,3.1866,3.0812,2.952,2.7918,2.689,2.5891,2.529,2.4809,2.477,2.4675,2.4541,2.4344,2.4125,2.3673,2.2761,2.2038,2.1316,2.0566,2.0011,2.0101,2.0167,1.9699,1.93,1.8676,1.8156,1.7416,1.6963,1.6731,1.6533,1.6676,1.6792,1.6963,1.7064,1.6972,1.6968,1.6897,1.5965,1.4631,1.3096,1.1538,1.0835,1.0129,0.9566,0.9152,4.1809,4.0583,4.0541,3.9602,3.8525,3.8503,3.8398,3.803,3.8014,3.8269,3.8864,3.8991,3.9424,4.0066,4.085,4.1396,4.1961,4.2497,4.3035,4.3737,4.3886,4.3985,4.3985,4.3985,4.3985,4.3869,4.3752,4.3886,4.4236,4.3787,4.4183,4.5388,4.6365,4.7298,4.8205,4.8905,4.9755,4.9719,4.9719,4.9434,4.8988,4.8881,4.87,4.8447,4.8356,4.8356,4.8464,4.8464,4.8393,4.8232,4.7816,4.7275,4.6498,4.5462,4.4312,4.3431,4.2658,4.2064,4.1327,4.0199,3.9458,3.9234,3.8363,3.7869,3.7418,3.6727,3.6092,3.5865,3.4767,3.3763,3.2876,3.2372,3.1331,2.9955,2.845,2.7253,2.6166,2.5643,2.4825,2.4675,2.4438,2.4265,2.4162,2.3843,2.3519,2.2746,2.1959,2.1289,2.0686,2.0564,2.0565,2.0006,1.9575,1.9061,1.8472,1.8215,1.77,1.731,1.6967,1.6676,1.6797,1.6974,1.7075,1.7107,1.688,1.6805,1.6256,1.5471,1.4454,1.302,1.1471,1.0694,1.0208,0.9724,0.9171,4.3014,4.139,4.1672,4.0565,3.8733,3.8382,3.7925,3.7537,3.7524,3.8049,3.892,3.9086,3.9759,4.0578,4.0866,4.12,4.2152,4.225,4.2921,4.3674,4.3919,4.3985,4.3985,4.3985,4.3986,4.3969,4.367,4.3871,4.5103,4.522,4.552,4.609,4.6673,4.7227,4.7619,4.8434,4.8454,4.8572,4.8572,4.8501,4.8393,4.8323,4.8285,4.8248,4.8248,4.8248,4.8248,4.8248,4.8248,4.8194,4.8032,4.7746,4.7166,4.6117,4.5173,4.4461,4.3872,4.3045,4.1938,4.0533,3.9514,3.9402,3.8363,3.7869,3.7587,3.7361,3.6796,3.5895,3.5028,3.4168,3.3247,3.3078,3.2183,3.0606,2.9001,2.7796,2.6746,2.5679,2.4873,2.4399,2.4225,2.4091,2.4051,2.3834,2.3526,2.2823,2.245,2.1686,2.0854,2.082,2.0556,1.9958,1.9404,1.8973,1.8572,1.8299,1.7778,1.7448,1.7177,1.691,1.694,1.6995,1.7258,1.7369,1.6906,1.5805,1.5294,1.4637,1.3373,1.2174,1.1121,1.0362,0.9835,0.9425,0.9243,4.3714,4.2245,4.1952,4.0648,3.8842,3.8237,3.7848,3.7514,3.7516,3.8165,3.8917,3.9312,3.9944,4.0577,4.0566,4.1009,4.1722,4.2033,4.2674,4.3363,4.3772,4.3985,4.3985,4.3985,4.4119,4.4303,4.447,4.512,4.6004,4.6119,4.6168,4.6534,4.6831,4.7247,4.7612,4.7995,4.8198,4.8248,4.8248,4.8248,4.8248,4.8248,4.8248,4.8248,4.8248,4.8248,4.8248,4.8248,4.8248,4.8248,4.8248,4.7924,4.7437,4.677,4.6117,4.5244,4.4367,4.3376,4.216,4.0798,3.9738,3.9402,3.8687,3.8081,3.7813,3.7587,3.7079,3.6045,3.5184,3.4445,3.362,3.3751,3.2783,3.1035,2.9474,2.8146,2.6823,2.5498,2.4601,2.3933,2.4067,2.4178,2.4059,2.3899,2.3546,2.3224,2.2853,2.2,2.0988,2.0777,2.0627,2.0095,1.9604,1.9159,1.872,1.828,1.7727,1.7547,1.7318,1.7157,1.7079,1.6813,1.699,1.7056,1.5973,1.4708,1.4077,1.3377,1.2103,1.0832,1.0463,1.0089,0.954,0.9293,0.9275,4.4265,4.2866,4.2061,4.0585,3.8917,3.8414,3.8125,3.7894,3.7895,3.8422,3.9296,3.957,3.9915,4.042,4.0573,4.0827,4.1324,4.1785,4.2329,4.3019,4.3692,4.4104,4.4253,4.442,4.482,4.5286,4.5735,4.6186,4.6503,4.6417,4.6831,4.7147,4.7296,4.7529,4.7978,4.8248,4.8248,4.8248,4.8248,4.8248,4.8248,4.8248,4.8248,4.8248,4.8248,4.8248,4.8248,4.8248,4.8248,4.8248,4.8248,4.7978,4.7708,4.7546,4.6895,4.5915,4.4751,4.3652,4.2437,4.1076,4.0059,3.9458,3.8855,3.8237,3.7856,3.7644,3.7168,3.6214,3.5456,3.4854,3.4344,3.4183,3.3175,3.1299,2.9565,2.8029,2.6532,2.5321,2.4319,2.3973,2.4162,2.4414,2.4494,2.4446,2.3973,2.345,2.3319,2.2767,2.1406,2.0729,2.0369,1.9961,1.949,1.8981,1.852,1.7789,1.7226,1.6993,1.7064,1.6834,1.7077,1.6811,1.6196,1.5838,1.4958,1.3874,1.2887,1.2036,1.1137,1.0555,1.0259,0.9958,0.9588,0.9359,0.9331,4.4862,4.2927,4.2347,4.1123,3.9599,3.9091,3.8758,3.8561,3.8513,3.8947,3.9551,3.9611,4.0075,4.0461,4.0628,4.0659,4.0923,4.1305,4.2079,4.2952,4.3707,4.4253,4.4802,4.5385,4.6033,4.6665,4.69,4.7266,4.7632,4.7862,4.7679,4.7928,4.7978,4.8028,4.8128,4.8248,4.8248,4.8248,4.8248,4.8248,4.8248,4.8248,4.8248,4.8248,4.8248,4.8248,4.8248,4.8248,4.8248,4.8248,4.8248,4.814,4.8086,4.8032,4.7583,4.639,4.5244,4.4132,4.2865,4.141,4.0115,3.9514,3.8911,3.8306,3.7895,3.7708,3.7278,3.6672,3.6315,3.5775,3.4421,3.4293,3.3108,3.1029,2.9017,2.7444,2.612,2.5111,2.4563,2.4319,2.4556,2.4849,2.4936,2.5179,2.4339,2.372,2.3922,2.3521,2.1822,2.063,1.9871,1.924,1.8269,1.7597,1.7095,1.6442,1.618,1.6135,1.6476,1.6742,1.7179,1.6606,1.5852,1.5147,1.4152,1.3251,1.2269,1.1305,1.0645,1.042,1.0053,0.9775,0.9562,0.9492,0.9407,4.5639,4.4615,4.3349,4.2314,4.1421,4.0203,3.9673,3.9546,3.9289,3.9547,4.0072,4.018,4.0316,4.0624,4.0624,4.0624,4.0724,4.0923,4.1643,4.2724,4.3717,4.4444,4.5091,4.62,4.7101,4.7562,4.7646,4.7812,4.8094,4.8215,4.8194,4.8248,4.8232,4.8194,4.8248,4.8248,4.8194,4.8194,4.8248,4.8248,4.8248,4.8248,4.8248,4.8248,4.8248,4.8248,4.8248,4.8248,4.8248,4.8248,4.8248,4.8194,4.8194,4.8194,4.7816,4.6949,4.5899,4.4696,4.3542,4.209,4.0687,3.957,3.9248,3.8588,3.8008,3.8012,3.7642,3.6939,3.6873,3.6683,3.4896,3.4555,3.3087,3.0929,2.9055,2.7489,2.6155,2.5388,2.4917,2.4778,2.5022,2.5291,2.5607,2.6072,2.5482,2.4419,2.4525,2.3603,2.1971,2.0341,1.9468,1.832,1.7169,1.6322,1.5848,1.5508,1.5361,1.5439,1.5775,1.6331,1.6522,1.595,1.5434,1.4371,1.3306,1.2407,1.1839,1.0595,0.9777,0.9803,0.9749,0.9594,0.9441,0.9512,0.9517,4.6471,4.6111,4.4471,4.3598,4.3094,4.1421,4.0627,4.0571,4.0051,4.0134,4.0501,4.0609,4.0609,4.0624,4.0624,4.0624,4.0674,4.0705,4.1137,4.2285,4.3372,4.4371,4.5411,4.6499,4.7426,4.7875,4.8016,4.807,4.8178,4.8194,4.814,4.8032,4.7978,4.7962,4.7816,4.7654,4.7816,4.787,4.7978,4.7978,4.7995,4.8086,4.8248,4.8248,4.8248,4.8248,4.8248,4.8248,4.8248,4.8248,4.8248,4.8248,4.8194,4.8086,4.7708,4.7003,4.6008,4.4915,4.3762,4.2452,4.1259,3.9831,3.9462,3.904,3.8108,3.8346,3.787,3.7437,3.7557,3.7137,3.5746,3.4857,3.317,3.1052,2.9287,2.7843,2.6467,2.5916,2.5632,2.5452,2.5764,2.6195,2.6289,2.6696,2.6279,2.5356,2.4466,2.3565,2.1984,2.0261,1.9005,1.7745,1.6761,1.5973,1.5494,1.5132,1.4835,1.4714,1.5118,1.5597,1.5251,1.4818,1.466,1.3767,1.2619,1.2056,1.1639,1.0534,0.9535,0.9494,0.9444,0.9491,0.9541,0.9607,0.9638,4.7012,4.6212,4.5412,4.465,4.3914,4.2449,4.1606,4.1234,4.0687,4.0516,4.0609,4.0624,4.0624,4.0624,4.0624,4.0624,4.0624,4.0624,4.0817,4.144,4.2737,4.432,4.5453,4.6293,4.6863,4.7437,4.7491,4.7708,4.7924,4.8086,4.7908,4.76,4.7491,4.7204,4.6933,4.677,4.6661,4.6879,4.7313,4.76,4.7654,4.7995,4.8194,4.8248,4.8248,4.8248,4.8248,4.8248,4.8248,4.8248,4.8248,4.8248,4.8124,4.7762,4.7275,4.6607,4.5681,4.4461,4.3196,4.2288,4.1066,4.0283,3.972,3.9285,3.8942,3.8504,3.8167,3.78,3.7491,3.7267,3.6525,3.5345,3.3387,3.1134,2.9617,2.8218,2.7116,2.6802,2.671,2.6325,2.6312,2.6556,2.6814,2.6911,2.6665,2.5526,2.4688,2.3356,2.1471,2.0041,1.8804,1.7471,1.6535,1.5749,1.5266,1.4821,1.4444,1.4173,1.4639,1.47,1.4347,1.4181,1.3953,1.351,1.2766,1.2124,1.1539,1.0758,0.9815,0.9537,0.9523,0.9581,0.9706,0.9746,0.9762,4.7957,4.8397,4.6677,4.5859,4.5423,4.3452,4.2301,4.1769,4.1007,4.0624,4.0624,4.0624,4.0624,4.0624,4.0624,4.0624,4.0624,4.0624,4.0624,4.0956,4.2373,4.3976,4.5311,4.5845,4.6335,4.6841,4.6879,4.7041,4.715,4.715,4.7096,4.6895,4.6879,4.6716,4.6374,4.6444,4.6444,4.6553,4.7058,4.7437,4.7491,4.7924,4.8194,4.8248,4.8248,4.8248,4.8248,4.8248,4.8248,4.8248,4.8248,4.8248,4.8194,4.7724,4.7329,4.7058,4.5899,4.4751,4.3712,4.3097,4.2025,4.0572,4.0102,3.954,3.8873,3.8491,3.8019,3.7795,3.7684,3.7506,3.7065,3.6103,3.4109,3.1679,3.0707,2.9816,2.8219,2.7907,2.7554,2.703,2.6745,2.6877,2.698,2.7012,2.651,2.5728,2.4877,2.3038,2.1117,1.9942,1.8729,1.752,1.6485,1.5969,1.5559,1.5024,1.4566,1.4032,1.4119,1.4049,1.3907,1.3833,1.3786,1.3643,1.2902,1.2211,1.1716,1.1067,1.0171,0.9619,0.9666,0.9638,0.9733,0.9762,0.9762,4.8927,4.9738,4.7796,4.6918,4.6522,4.4423,4.2954,4.2148,4.1206,4.0808,4.0624,4.0624,4.0624,4.0624,4.0624,4.0624,4.0624,4.0624,4.0624,4.0875,4.2064,4.3602,4.4703,4.5243,4.5736,4.6226,4.6281,4.6335,4.6444,4.6553,4.6444,4.6226,4.6226,4.6172,4.5992,4.5899,4.5992,4.6063,4.6623,4.7003,4.7166,4.7708,4.8032,4.8194,4.8248,4.8248,4.8248,4.8248,4.8248,4.8248,4.8248,4.8248,4.814,4.7546,4.7096,4.6879,4.5915,4.4758,4.4024,4.3575,4.2582,4.0909,4.0404,3.9795,3.8818,3.8498,3.799,3.7672,3.7594,3.7621,3.7147,3.6462,3.5119,3.2889,3.2356,3.1482,2.9712,2.892,2.8371,2.7517,2.715,2.6996,2.6996,2.6863,2.6576,2.5811,2.4694,2.3207,2.1625,2.0255,1.8888,1.7618,1.6948,1.6428,1.5858,1.5244,1.4656,1.4114,1.3777,1.3785,1.3695,1.3767,1.3758,1.3861,1.3196,1.2479,1.1922,1.1419,1.0577,0.9717,0.9741,0.9735,0.9754,0.9762,0.9762,4.9759,4.9311,4.8578,4.7656,4.6654,4.5039,4.3543,4.228,4.1538,4.1122,4.0724,4.0674,4.0624,4.0624,4.0624,4.0624,4.0624,4.0624,4.0624,4.1107,4.2054,4.2926,4.3496,4.4435,4.5158,4.5626,4.5681,4.5938,4.621,4.6265,4.6172,4.5736,4.5681,4.5462,4.5064,4.4845,4.497,4.5064,4.5572,4.6117,4.6537,4.715,4.7708,4.8124,4.8194,4.8248,4.8194,4.814,4.8194,4.8248,4.8248,4.8248,4.8032,4.715,4.6623,4.6649,4.5001,4.4235,4.3832,4.3308,4.2321,4.1733,4.0931,4.0102,3.9644,3.8713,3.8034,3.7873,3.7449,3.7198,3.7085,3.6598,3.5826,3.4833,3.4043,3.2794,3.0549,2.9579,2.8908,2.8189,2.7513,2.7012,2.6964,2.6735,2.6525,2.5922,2.4658,2.3494,2.2104,2.0554,1.9187,1.8412,1.7896,1.7351,1.6691,1.6043,1.5289,1.4699,1.4103,1.3973,1.3794,1.385,1.3837,1.3861,1.364,1.2828,1.2168,1.1569,1.088,1.0216,0.9835,0.9759,0.9762,0.9762,0.9762,5.0186,5.0067,4.8904,4.7776,4.6702,4.5154,4.3788,4.2674,4.1801,4.1355,4.1072,4.0808,4.0624,4.0624,4.0624,4.0624,4.0624,4.0624,4.084,4.138,4.2347,4.2981,4.3507,4.4319,4.4845,4.5025,4.508,4.5173,4.5392,4.5392,4.5298,4.5134,4.508,4.4915,4.4736,4.4736,4.4736,4.479,4.5353,4.579,4.6133,4.6949,4.7475,4.7708,4.8032,4.8194,4.8194,4.787,4.787,4.814,4.8248,4.8248,4.814,4.7166,4.6652,4.6658,4.5542,4.4428,4.4503,4.4037,4.3386,4.2207,4.1591,4.0886,3.9553,3.8687,3.7931,3.7559,3.726,3.7135,3.7135,3.6898,3.6473,3.5764,3.5076,3.4113,3.3037,3.1571,3.0087,2.8629,2.792,2.74,2.6912,2.6493,2.6383,2.6012,2.4746,2.3547,2.2493,2.0869,1.9774,1.9021,1.854,1.7982,1.7463,1.6726,1.6024,1.5267,1.4517,1.4246,1.3921,1.3977,1.4072,1.4099,1.4158,1.3418,1.2766,1.2094,1.1363,1.0678,1.0066,0.9914,0.9762,0.9762,0.9762,5.0521,5.0293,4.8987,4.789,4.696,4.5445,4.4196,4.3167,4.228,4.1686,4.1339,4.1007,4.0758,4.0659,4.0624,4.0624,4.064,4.0871,4.1129,4.1719,4.2605,4.3322,4.3763,4.4411,4.4736,4.4736,4.4736,4.4736,4.4736,4.4736,4.4736,4.4736,4.4736,4.4736,4.4736,4.4736,4.4736,4.4806,4.5173,4.5517,4.5736,4.646,4.6933,4.7096,4.7491,4.7708,4.7654,4.7329,4.7437,4.7941,4.7924,4.8032,4.8028,4.7307,4.6989,4.7175,4.5756,4.4861,4.5098,4.4573,4.3556,4.259,4.1884,4.0835,3.9319,3.8502,3.7881,3.726,3.7135,3.7135,3.7135,3.7135,3.6886,3.6547,3.5775,3.5104,3.4245,3.3161,3.139,2.9364,2.8382,2.7664,2.6901,2.6404,2.6309,2.6056,2.4852,2.3831,2.3056,2.1329,1.9785,1.9599,1.8854,1.83,1.7863,1.7291,1.6576,1.5838,1.5107,1.4688,1.4303,1.4148,1.4271,1.4406,1.4449,1.4142,1.3474,1.2808,1.1972,1.1287,1.0602,1.0142,0.9838,0.9762,0.9762,5.0876,4.9878,4.8797,4.8081,4.7393,4.6061,4.4782,4.3755,4.3167,4.2378,4.1637,4.1389,4.1107,4.0724,4.0674,4.0705,4.0944,4.1373,4.1693,4.1987,4.3083,4.367,4.384,4.4458,4.4736,4.4736,4.4736,4.4736,4.4736,4.4736,4.4736,4.4736,4.4736,4.4736,4.4736,4.4736,4.4736,4.4736,4.4806,4.508,4.5572,4.5736,4.6063,4.6428,4.6444,4.6498,4.6482,4.6482,4.677,4.7329,4.7437,4.767,4.7899,4.7548,4.739,4.7206,4.5891,4.536,4.5588,4.4255,4.3431,4.2715,4.1791,4.0725,3.9381,3.8564,3.7943,3.7384,3.7198,3.7135,3.7135,3.7135,3.7073,3.7011,3.6411,3.5613,3.4903,3.4469,3.3337,3.0823,2.8772,2.7569,2.7034,2.6498,2.6254,2.607,2.5017,2.4,2.3866,2.2003,2.0618,2.0288,1.977,1.9004,1.8484,1.784,1.7112,1.6431,1.5775,1.5058,1.4666,1.4318,1.4437,1.4497,1.4612,1.4472,1.3796,1.334,1.258,1.174,1.1211,1.0602,1.0142,0.9762,0.9762,5.0895,4.9878,4.8863,4.8111,4.7489,4.6496,4.5382,4.4391,4.3755,4.3101,4.2412,4.1702,4.1355,4.1107,4.0758,4.1256,4.238,4.2313,4.2771,4.3511,4.366,4.4002,4.438,4.4627,4.4736,4.4736,4.4736,4.4736,4.4736,4.4736,4.4736,4.4736,4.4736,4.4736,4.4736,4.4736,4.4736,4.4736,4.4736,4.479,4.5009,4.5462,4.579,4.5845,4.5462,4.5447,4.5899,4.5954,4.6188,4.6661,4.677,4.6879,4.6982,4.6951,4.7284,4.7982,4.6966,4.6324,4.6357,4.5517,4.4338,4.3089,4.2552,4.1572,3.9875,3.9133,3.8502,3.7869,3.7435,3.7135,3.7135,3.7135,3.7135,3.7011,3.6536,3.5927,3.5434,3.4806,3.3766,3.2112,3.0001,2.8139,2.6962,2.6475,2.636,2.6423,2.5145,2.4372,2.4394,2.2819,2.1333,2.0887,2.0253,1.973,1.9122,1.8319,1.752,1.7141,1.6583,1.5716,1.5177,1.4769,1.4564,1.4604,1.4552,1.44,1.41,1.3724,1.296,1.2121,1.1512,1.0983,1.0298,0.9838,0.9607,5.1149,5.0397,4.9006,4.8225,4.7794,4.6737,4.5916,4.5237,4.4391,4.3739,4.315,4.2329,4.1884,4.1718,4.1622,4.2251,4.3319,4.3575,4.4035,4.4759,4.4555,4.4644,4.5049,4.4806,4.4736,4.4736,4.4736,4.4736,4.4736,4.4736,4.4736,4.4736,4.4736,4.4736,4.4736,4.4736,4.4736,4.4736,4.4736,4.4736,4.479,4.5119,4.5338,4.5353,4.4915,4.49,4.5298,4.5353,4.5626,4.6188,4.6172,4.6281,4.6454,4.673,4.7465,4.8349,4.7715,4.7191,4.7103,4.6124,4.4853,4.3468,4.2919,4.1695,4.0122,3.9331,3.87,3.7881,3.7334,3.7135,3.7135,3.7135,3.7135,3.7073,3.6723,3.6287,3.5617,3.514,3.4249,3.2687,3.0974,2.8866,2.732,2.6517,2.6509,2.6467,2.5667,2.4993,2.465,2.3439,2.1944,2.1211,2.0524,1.9986,1.9461,1.8805,1.813,1.779,1.7421,1.6701,1.5979,1.5635,1.5206,1.5239,1.4704,1.4552,1.4476,1.41,1.3644,1.2805,1.2045,1.136,1.0371,0.999,0.9683,5.1571,5.1235,4.9423,4.8706,4.8449,4.7108,4.651,4.6372,4.5357,4.4476,4.3953,4.3281,4.2789,4.2573,4.3286,4.3556,4.3897,4.5027,4.5587,4.5674,4.5713,4.572,4.5681,4.5064,4.479,4.4845,4.479,4.4736,4.4736,4.4736,4.4736,4.479,4.4806,4.479,4.49,4.49,4.4845,4.49,4.49,4.4861,4.479,4.479,4.4915,4.4955,4.4806,4.479,4.479,4.4751,4.5009,4.5626,4.5626,4.5845,4.6329,4.6935,4.7587,4.8333,4.8068,4.7823,4.7583,4.6199,4.4853,4.4017,4.2967,4.1327,3.9702,3.9207,3.8576,3.7334,3.7198,3.7135,3.7135,3.7135,3.7135,3.7135,3.7085,3.6376,3.5224,3.5396,3.4454,3.233,3.1075,2.9656,2.7461,2.6727,2.6675,2.6763,2.6303,2.5609,2.4972,2.3868,2.2607,2.1543,2.0657,1.9983,2.0275,1.9685,1.9009,1.8462,1.8137,1.7868,1.7211,1.6613,1.6234,1.5855,1.5467,1.5083,1.478,1.4476,1.4248,1.3517,1.2749,1.1736,1.0716,1.0174,0.9557,5.2205,5.2242,5.145,5.075,5.0162,4.9406,4.8659,4.7906,4.7064,4.641,4.573,4.4234,4.4203,4.5317,4.5654,4.6331,4.7227,4.73,4.7383,4.7416,4.7106,4.6678,4.6242,4.5681,4.5408,4.5353,4.4955,4.4736,4.4736,4.4736,4.4955,4.5353,4.5408,4.5626,4.5938,4.5938,4.5992,4.5992,4.5992,4.5774,4.5517,4.5774,4.5938,4.5954,4.5611,4.5408,4.5408,4.4915,4.479,4.5025,4.497,4.5009,4.5205,4.5844,4.648,4.7236,4.8074,4.8318,4.7838,4.7343,4.6319,4.4807,4.3881,4.2552,4.0787,3.964,3.87,3.7881,3.7384,3.7135,3.7135,3.7135,3.7135,3.7135,3.7135,3.6501,3.5213,3.5457,3.4657,3.2166,3.1067,3.0068,2.8475,2.7393,2.6869,2.6926,2.6395,2.5763,2.5452,2.4565,2.3516,2.2805,2.1726,2.0968,2.0309,2.0272,1.989,1.9178,1.8654,1.8422,1.7973,1.7291,1.6765,1.6993,1.6685,1.6301,1.5699,1.5458,1.5303,1.4252,1.3002,1.1815,1.103,1.0038,0.9221,5.297,5.3187,5.2751,5.2081,5.1256,5.0711,5.0025,4.9182,4.8536,4.7748,4.6953,4.6581,4.6985,4.8074,4.8207,4.8701,4.9421,4.9245,4.9184,4.9186,4.8414,4.7713,4.7172,4.6661,4.6133,4.5681,4.5298,4.4955,4.4806,4.497,4.5408,4.597,4.6297,4.6553,4.6841,4.7079,4.7079,4.6808,4.6824,4.6933,4.7079,4.7334,4.7296,4.6879,4.6553,4.6281,4.5954,4.5392,4.5134,4.508,4.4845,4.4736,4.4751,4.5344,4.5884,4.6357,4.7434,4.7969,4.7831,4.7807,4.7223,4.5822,4.4867,4.3529,4.1586,4.0245,3.9071,3.8241,3.7745,3.7384,3.7198,3.7135,3.7135,3.7135,3.7135,3.6563,3.5179,3.5269,3.4431,3.1868,3.0914,3.0042,2.8658,2.7676,2.7259,2.6934,2.6673,2.6179,2.5832,2.5299,2.4424,2.3428,2.3285,2.268,2.1938,2.1577,2.1196,2.064,2.0081,1.9778,1.9784,1.9103,1.8347,1.8124,1.7741,1.7215,1.6538,1.6377,1.6136,1.5282,1.3907,1.2865,1.1333,1.0152,0.914,5.3962,5.4125,5.374,5.2918,5.2123,5.1571,5.0986,5.0448,4.9848,4.8897,4.8203,4.9571,5.0245,5.039,5.0513,5.0684,5.0811,5.0893,5.0928,5.0715,4.9738,4.8937,4.8317,4.7668,4.6852,4.5936,4.5664,4.5337,4.5009,4.5462,4.6024,4.6553,4.7193,4.7468,4.7647,4.8028,4.8078,4.7637,4.763,4.8015,4.8892,4.8892,4.8411,4.7494,4.7386,4.7095,4.65,4.6022,4.5727,4.5736,4.5173,4.49,4.4962,4.5433,4.5749,4.5857,4.647,4.7074,4.7654,4.7724,4.7432,4.6818,4.5585,4.404,4.2233,4.0919,3.9663,3.8613,3.8179,3.7745,3.7272,3.7135,3.7135,3.7135,3.7135,3.6563,3.544,3.5054,3.3989,3.142,3.0861,2.9842,2.8398,2.775,2.746,2.7041,2.7019,2.695,2.6395,2.6156,2.5579,2.4417,2.4913,2.5283,2.4114,2.361,2.3078,2.2326,2.2118,2.1892,2.1584,2.1132,2.0453,1.9476,1.8947,1.8271,1.7594,1.714,1.6903,1.6044,1.5381,1.4723,1.2594,1.0691,0.9293,5.5381,5.5652,5.5113,5.4919,5.4802,5.3857,5.3115,5.2507,5.1767,5.1299,5.1102,5.147,5.1646,5.1664,5.1727,5.2096,5.2592,5.2653,5.2481,5.2041,5.1388,5.0418,4.9211,4.7756,4.6978,4.666,4.5808,4.5614,4.6054,4.621,4.6607,4.7209,4.7596,4.7965,4.8492,4.8598,4.8871,4.9349,4.8969,4.8724,4.8501,4.814,4.7848,4.7538,4.7089,4.6853,4.6892,4.6288,4.605,4.6271,4.6172,4.6101,4.6063,4.6206,4.6319,4.6435,4.6599,4.6789,4.7043,4.7087,4.6973,4.6829,4.5616,4.4268,4.2858,4.2014,4.1025,3.9725,3.8638,3.7845,3.7298,3.7135,3.7135,3.7135,3.7135,3.6774,3.5963,3.5378,3.4188,3.2228,3.104,2.9898,2.8404,2.7767,2.748,2.7238,2.7582,2.7859,2.772,2.7651,2.7598,2.7333,2.7993,2.7856,2.5717,2.5316,2.4935,2.3905,2.3398,2.3097,2.2796,2.2193,2.1364,2.0604,2.0232,1.9627,1.8347,1.8049,1.7683,1.6954,1.6192,1.5167,1.3687,1.1692,0.9841,5.6188,5.6168,5.6363,5.6268,5.6081,5.5305,5.4473,5.3738,5.4036,5.4104,5.4156,5.4156,5.4104,5.4104,5.4104,5.435,5.4766,5.4246,5.3899,5.3566,5.2761,5.1755,5.0487,4.9247,4.822,4.7399,4.6646,4.6207,4.6231,4.6724,4.7077,4.743,4.7844,4.8519,4.9275,4.9566,4.9796,4.9942,4.9914,4.9788,4.9467,4.9182,4.8911,4.8726,4.8116,4.7917,4.8203,4.7363,4.6965,4.7111,4.686,4.6536,4.6243,4.6157,4.6123,4.5973,4.5951,4.6022,4.6083,4.6205,4.6362,4.6816,4.5919,4.4794,4.3412,4.2766,4.1751,4.0215,3.915,3.8185,3.7264,3.7118,3.7135,3.7135,3.7135,3.6847,3.6224,3.5451,3.4314,3.2775,3.1512,3.0275,2.8858,2.8294,2.7902,2.7585,2.7936,2.8445,2.8604,2.9726,3.0538,3.0091,3.0352,2.971,2.7978,2.7645,2.7219,2.6195,2.5638,2.5045,2.4225,2.3925,2.3097,2.2036,2.1735,2.1283,2.0232,1.9935,1.9504,1.8677,1.7766,1.6449,1.4941,1.3256,1.1894,5.6725,5.6378,5.7046,5.7099,5.6688,5.608,5.5397,5.4799,5.5893,5.6409,5.6429,5.6444,5.6503,5.6503,5.6518,5.6576,5.6525,5.5667,5.5253,5.513,5.4055,5.2987,5.1983,5.0967,4.9661,4.8138,4.7659,4.7112,4.6532,4.7232,4.7708,4.781,4.823,4.8953,4.9877,5.0327,5.0482,5.0341,5.0711,5.0788,5.0696,5.0646,5.0341,4.9764,4.9277,4.9167,4.9399,4.8571,4.8049,4.7997,4.768,4.7149,4.6394,4.6243,4.5868,4.5406,4.5122,4.4994,4.512,4.4998,4.536,4.6271,4.6001,4.5094,4.3699,4.3139,4.2156,4.0388,3.9615,3.8662,3.7358,3.7059,3.6977,3.6889,3.69,3.6676,3.6146,3.5323,3.4371,3.3172,3.2,3.0836,2.9824,2.9221,2.8748,2.843,2.87,2.8993,2.9851,3.1777,3.284,3.2261,3.1944,3.1409,3.0023,2.9865,2.9348,2.8418,2.8025,2.7205,2.5781,2.5277,2.4608,2.3316,2.294,2.272,2.2193,2.2042,2.1503,2.1033,1.9852,1.8615,1.6591,1.5779,1.5052,5.7084,5.6959,5.6734,5.6908,5.7456,5.6447,5.6338,5.6869,0.0,0.0,0.0,5.5959,5.6075,5.6135,5.6468,5.6576,5.6576,5.637,5.6267,5.6267,5.5182,5.4271,5.3388,5.1228,4.9968,4.9545,4.8462,4.8159,4.8589,4.881,4.9113,4.9413,4.8936,4.9075,4.9617,4.9715,5.0527,5.1922,5.1711,5.1226,5.0592,5.0163,4.9537,4.8664,4.855,4.8623,4.891,4.9392,4.9395,4.8988,4.945,4.9398,4.866,4.7858,4.7241,4.6708,4.5064,4.4189,4.4304,4.3051,4.2911,4.4382,4.4604,4.4168,4.273,4.2729,4.2234,4.0996,4.0249,3.9153,3.742,3.6826,3.6347,3.589,3.583,3.5841,3.5624,3.4892,3.4097,3.3317,3.2391,3.1526,3.0506,3.0259,3.0037,2.9805,2.9743,3.0217,3.118,3.1862,3.2149,3.188,3.206,3.1992,3.1029,3.0701,3.0356,2.9519,2.8906,2.8041,2.6779,2.5884,2.4902,2.3598,2.3166,2.3172,2.2946,2.257,2.2193,2.2564,2.1379,1.9853,1.8916,1.9391,1.9163,5.7551,5.7175,5.7349,5.7566,0.0,5.684,5.675,5.7172,5.6025,5.5639,5.5921,5.6551,5.6879,5.6847,5.7068,5.7254,5.7448,5.7192,5.7038,5.7038,5.6164,5.5282,5.4386,5.2803,5.1873,5.1463,5.0285,4.9899,5.0212,5.004,5.0129,5.0391,4.9653,4.966,5.0158,5.0398,5.1133,5.2457,5.2239,5.1902,5.1506,5.0915,5.0309,4.9897,4.9181,0.0,0.0,0.0,0.0,0.0,0.0,0.0,0.0,0.0,0.0,4.5148,4.3899,4.2858,4.2008,4.1657,4.1845,4.2623,4.306,4.2975,4.2237,4.2382,4.2158,4.1469,4.0268,3.9074,3.795,3.7196,3.6609,3.6033,3.5977,3.5834,3.5523,3.4568,3.3884,3.3626,3.2515,3.1638,3.1316,3.1056,3.0759,3.0628,3.0772,3.1056,3.1302,3.1548,3.193,3.2256,3.2436,3.2333,3.184,3.1656,3.1153,3.0282,2.9718,2.8773,2.7018,2.6583,2.6084,2.5058,2.4807,2.4751,2.4451,2.4376,2.4376,2.4212,2.3583,2.2679,2.1645,2.1711,2.1384,5.7994,5.7225,5.7973,5.8014,5.7592,5.7147,5.6889,5.6793,5.595,5.5817,5.6282,5.7215,5.7465,5.7131,5.7566,5.7834,5.8083,5.7689,5.7646,5.7805,5.709,5.6338,5.5454,5.4567,5.3931,5.3461,5.2438,5.1841,5.1832,5.1545,5.1329,5.1108,5.073,5.0587,5.0727,0.0,0.0,0.0,5.276,5.2905,5.2734,5.1956,5.1443,5.1273,5.0027,0.0,5.0245,5.0173,5.0045,4.9797,5.0106,0.0,0.0,0.0,0.0,0.0,0.0,0.0,0.0,0.0,0.0,0.0,4.1079,4.1323,4.1432,4.1781,4.1927,4.181,4.0414,3.9288,3.8626,3.7983,3.7171,3.6371,3.6004,3.5711,3.5149,3.4063,3.3429,3.3768,3.2445,3.1647,3.2014,3.1768,3.144,3.131,3.1557,3.1517,3.1086,3.1441,3.1854,3.2395,3.2112,3.2067,3.2281,3.2064,3.1475,3.0735,3.0347,2.937,2.7524,2.7238,2.6943,2.621,2.6354,2.6223,2.6124,2.6184,2.6053,2.5826,2.5418,2.4969,2.3993,2.3422,2.2633,5.8094,5.7209,5.7253,5.7298,5.721,5.7033,5.6752,5.6379,5.5831,5.5622,5.5758,5.679,5.6374,5.4986,5.685,5.7566,5.7324,5.7537,5.8132,5.8802,5.7856,5.7326,5.7153,5.5837,5.5156,5.5066,5.425,5.3851,5.388,5.3831,5.3382,5.263,5.2543,5.1915,5.0879,5.2248,5.2818,5.2525,5.3949,5.4348,5.3677,5.2791,5.2013,5.1311,5.038,4.9887,5.002,5.1381,5.1652,5.0712,5.1957,5.1891,4.9854,4.7573,4.562,0.0,3.9998,0.0,0.0,0.0,0.0,0.0,0.0,0.0,0.0,4.0615,4.1468,4.19,4.1406,4.0691,3.9777,3.8789,3.7542,3.5972,3.4918,3.4103,3.359,3.2776,3.231,3.2365,3.2296,3.2337,3.2421,3.263,3.2555,3.2051,3.1985,3.1909,3.1866,3.171,3.1525,3.1049,3.0784,3.1005,3.1248,3.1475,3.1434,3.0887,3.0316,2.9347,2.8023,2.7356,2.6695,2.597,2.5956,2.6335,2.7741,2.6743,2.6109,2.6504,2.5642,2.4976,2.5095,2.4762,2.4026,5.8214,5.7783,5.776,5.7092,5.5901,5.544,5.5022,5.4614,5.3979,5.3987,5.4518,5.4475,5.4118,5.3589,5.5039,5.5884,5.6291,5.6758,5.7332,5.7931,5.7211,5.6567,5.6,5.5395,5.5069,5.5049,5.4744,5.4693,5.4967,5.5016,5.451,5.3655,5.3397,5.2347,5.0555,5.1682,5.2354,5.2506,5.3753,5.4418,5.4424,5.3171,5.2336,5.1956,5.0674,4.9972,4.9944,5.0712,5.0952,5.0793,5.0939,5.0123,4.8093,4.5847,4.3268,0.0,0.0,0.0,0.0,0.0,0.0,0.0,0.0,0.0,0.0,0.0,4.0597,4.0862,4.0563,4.0204,3.9939,3.8657,3.7205,3.5932,3.5112,3.4204,3.3129,3.2536,3.23,3.2583,3.2371,3.2321,3.2556,3.2902,3.2941,3.2391,3.2194,3.1945,3.1299,3.126,3.1316,3.1283,3.1162,3.1225,3.1569,3.1797,3.1584,3.0668,3.0229,2.9593,2.8512,2.785,2.7485,2.7318,2.7067,2.706,2.703,2.6878,2.6904,2.6872,2.6341,2.5905,2.579,2.5369,2.4948,5.7908,5.7698,5.7136,5.5919,5.4308,5.3559,5.3398,5.3527,5.2529,5.2632,5.3455,5.2117,5.1739,5.2088,5.2632,5.3514,5.4637,5.5186,5.5995,5.687,5.6315,5.5674,5.5056,5.4672,5.4544,5.4544,5.4447,5.462,5.5005,5.5005,5.4542,5.363,5.3002,5.1608,4.9597,5.0612,5.1579,5.2351,5.3347,5.4177,5.4743,5.3159,5.2213,5.2024,5.0654,4.9972,4.9972,5.0257,5.0493,5.0567,4.9847,4.8346,4.6081,4.3638,0.0,0.0,0.0,0.0,0.0,0.0,0.0,0.0,0.0,3.3478,3.5143,0.0,3.9072,0.0,3.9422,3.9751,4.0089,3.856,0.0,0.0,3.5015,3.4022,3.2696,3.2054,3.1943,3.2562,3.2298,3.2186,3.2505,3.2955,3.3168,3.2623,3.2575,3.2282,3.1311,3.1428,3.1705,3.1762,3.1794,3.1809,3.189,3.2037,3.178,3.0812,3.0501,3.0072,2.9105,2.8569,2.823,2.8365,2.8171,2.7618,2.6766,2.7383,2.7888,2.752,2.7172,2.6775,2.6225,2.5725,2.5428,5.6696,5.5922,5.3703,5.265,5.2438,5.1799,5.2706,5.4498,5.2811,5.2529,5.3098,5.0578,4.9715,5.0123,4.9728,0.0,5.1861,5.2508,5.4018,5.6205,5.5471,5.5307,5.5651,5.4322,5.375,5.373,5.34,5.324,5.3287,5.3267,5.2777,5.1871,5.0563,4.912,4.7827,4.9372,5.08,5.193,5.3193,5.3972,5.4241,5.2635,5.1436,5.0724,5.0208,4.9972,4.9991,5.1086,5.1254,5.0253,4.976,4.8247,4.5289,0.0,0.0,0.0,0.0,0.0,0.0,0.0,0.0,0.0,0.0,0.0,0.0,0.0,0.0,3.6498,3.8609,0.0,4.0368,3.9206,0.0,0.0,0.0,3.2399,3.1659,3.0811,3.0606,3.136,0.0,0.0,3.2144,3.2971,3.3403,3.2868,3.321,3.3448,3.3388,3.3103,3.2862,3.2318,3.2109,3.1806,3.1393,3.1582,3.1917,3.1981,3.1472,3.0803,3.0152,2.942,2.8716,2.8336,2.8018,2.7968,2.7885,2.8238,2.8585,2.8801,2.7855,2.6858,2.6866,2.6388,2.602,5.3686,5.0511,4.9107,4.8638,4.8773,4.9073,4.9545,5.0115,4.9963,4.9467,4.8711,4.742,4.6388,4.5592,4.4959,0.0,0.0,0.0,5.1322,5.3618,5.3299,5.2821,5.2257,5.1449,5.0962,5.0724,5.1125,5.1303,5.1303,5.1854,5.0008,4.5958,0.0,0.0,4.5367,4.7125,4.8824,5.0345,5.1667,5.2459,5.2696,5.201,5.1368,5.0563,4.9817,4.9641,4.9925,5.0253,4.9794,4.8556,4.7171,4.4852,0.0,0.0,0.0,0.0,0.0,0.0,0.0,0.0,0.0,0.0,0.0,2.8319,2.9459,0.0,0.0,0.0,3.6877,3.864,3.9746,3.8829,0.0,0.0,0.0,0.0,0.0,0.0,0.0,3.1416,3.1637,3.1942,3.2597,3.3345,3.3525,3.2595,3.3482,3.3994,3.3226,0.0,3.3366,3.3134,3.3053,3.2927,3.261,3.2707,3.2886,3.3077,3.2453,3.1775,3.1343,3.0705,3.0283,3.0126,2.9501,2.9153,2.994,2.9884,2.9531,2.8661,2.856,2.8613,2.8488,2.8263,2.7867,4.8736,0.0,0.0,0.0,0.0,4.4983,4.5379,4.5708,4.5919,4.546,4.4451,4.3131,0.0,0.0,0.0,0.0,0.0,0.0,4.783,5.0257,5.0428,5.0173,4.9559,4.879,4.8268,4.8012,4.8539,4.8646,4.8376,4.793,4.518,4.0449,0.0,0.0,0.0,0.0,4.673,4.9104,5.0399,5.1197,5.1526,5.1444,5.0906,4.9966,4.9275,4.9113,4.9391,4.9038,4.8019,4.6186,4.3901,0.0,0.0,0.0,0.0,0.0,0.0,0.0,0.0,0.0,0.0,0.0,0.0,0.0,0.0,0.0,0.0,0.0,0.0,0.0,3.8248,3.7815,3.6631,0.0,0.0,0.0,0.0,0.0,0.0,0.0,0.0,0.0,3.2904,3.3425,3.346,0.0,0.0,3.4167,3.3274,3.362,3.3888,3.372,3.3784,0.0,3.3256,3.3274,3.3274,3.3045,3.2746,3.2516,3.2321,3.1821,3.1562,3.1638,3.0664,3.0349,3.1648,3.1413,3.0436,2.9373,2.9578,3.0048,2.9877,2.9716,2.9374,0.0,0.0,0.0,0.0,0.0,0.0,0.0,0.0,4.0976,4.0686,0.0,3.7572,0.0,0.0,0.0,0.0,3.8087,4.0689,0.0,0.0,4.6994,4.7718,4.8431,4.6874,4.6156,4.6121,4.5762,4.5072,4.3916,4.0349,0.0,0.0,0.0,0.0,0.0,0.0,4.4822,4.8629,4.9849,5.0631,5.1104,5.0749,4.9911,4.8554,4.8434,4.829,4.8058,4.7665,4.6108,4.3209,4.0271,0.0,0.0,0.0,0.0,0.0,0.0,0.0,0.0,0.0,0.0,0.0,0.0,0.0,0.0,0.0,0.0,0.0,0.0,0.0,0.0,3.6194,0.0,0.0,0.0,0.0,0.0,0.0,0.0,0.0,0.0,0.0,3.2837,3.2953,3.3165,3.3817,0.0,0.0,0.0,0.0,3.454,3.3897,3.4249,3.4038,3.2392,3.2543,3.2601,3.1601,0.0,0.0,3.2661,3.2592,3.2386,3.1788,3.1144,3.1258,3.3,3.2329,3.1499,3.1193,3.0832,3.0704,3.063,3.0228,2.9861,0.0,0.0,0.0,0.0,0.0,0.0,0.0,0.0,0.0,3.6269,0.0,3.3942,0.0,0.0,0.0,0.0,0.0,0.0,0.0,0.0,4.4043,4.4632,4.4104,4.3218,4.2533,0.0,4.1289,3.9594,0.0,0.0,0.0,0.0,0.0,0.0,0.0,0.0,4.2724,4.5706,4.8274,4.942,4.9141,4.9425,4.8863,4.7235,4.7785,4.7672,4.6774,4.5079,4.2705,0.0,0.0,0.0,0.0,0.0,0.0,0.0,0.0,0.0,0.0,0.0,0.0,0.0,0.0,0.0,0.0,0.0,0.0,0.0,0.0,0.0,0.0,0.0,3.5238,0.0,0.0,0.0,0.0,0.0,0.0,0.0,0.0,0.0,3.1807,3.258,3.3294,3.3842,3.3929,3.4009,3.4013,0.0,0.0,0.0,0.0,0.0,0.0,0.0,3.2958,3.2647,3.2571,3.2559,3.241,3.2569,3.2673,3.2673,0.0,0.0,3.2353,3.1676,3.1294,3.2125,3.1267,3.0472,3.1018,3.0409,2.976,0.0,0.0,0.0,0.0,0.0,0.0,0.0,0.0,0.0,3.2059,3.09,0.0,0.0,0.0,0.0,0.0,0.0,0.0,0.0,0.0,0.0,0.0,3.9947,3.9408,0.0,0.0,0.0,0.0,0.0,0.0,0.0,0.0,0.0,0.0,0.0,0.0,4.1098,4.3879,4.6967,4.8224,4.7583,4.8376,4.7916,4.6078,4.6957,4.6693,4.5106,0.0,0.0,0.0,0.0,0.0,0.0,0.0,0.0,0.0,0.0,0.0,0.0,0.0,0.0,0.0,0.0,0.0,0.0,0.0,0.0,0.0,0.0,0.0,0.0,0.0,3.4469,0.0,0.0,0.0,0.0,0.0,0.0,0.0,0.0,0.0,0.0,0.0,3.2805,3.331,3.3706,3.3923,3.3799,3.3102,3.2667,0.0,0.0,0.0,0.0,0.0,0.0,0.0,0.0,0.0,0.0,0.0,0.0,0.0,0.0,3.1403,3.1231,3.0878,3.0914,3.1857,0.0,0.0,0.0,0.0,0.0,0.0,0.0,0.0,0.0,0.0,0.0,0.0,0.0,0.0,0.0,2.7717,0.0,0.0,2.5202,0.0,0.0,0.0,0.0,0.0,0.0,0.0,0.0,0.0,0.0,0.0,0.0,0.0,0.0,0.0,0.0,0.0,0.0,0.0,0.0,0.0,0.0,3.9939,4.3247,4.6036,4.7189,4.6687,4.7664,4.7237,4.5242,4.5842,4.5248,4.3124,0.0,0.0,0.0,0.0,0.0,0.0,0.0,0.0,0.0,0.0,0.0,0.0,0.0,0.0,0.0,0.0,0.0,0.0,0.0,0.0,0.0,0.0,0.0,0.0,0.0,0.0,3.5518,3.5175,3.3525,0.0,0.0,0.0,0.0,0.0,0.0,0.0,0.0,0.0,3.2393,3.3187,3.3646,3.3265,3.3228,3.2971,3.2548,3.2396,3.2425,3.248,3.2068,3.1499,0.0,0.0,0.0,0.0,0.0,0.0,0.0,0.0,0.0,0.0,0.0,0.0,0.0,0.0,0.0,0.0,0.0,0.0,0.0,0.0,0.0,0.0,0.0,0.0,0.0,0.0,0.0,0.0,0.0,0.0,0.0,0.0,0.0,0.0,0.0,0.0,0.0,0.0,0.0,0.0,0.0,0.0,0.0,0.0,0.0,0.0,0.0,0.0,0.0,0.0,0.0,0.0,0.0,0.0,3.8455,4.1832,4.5215,4.675,4.6156,4.7469,4.7057,4.4708,4.5049,4.3776,0.0,0.0,0.0,0.0,0.0,0.0,0.0,0.0,0.0,0.0,0.0,0.0,0.0,0.0,0.0,0.0,0.0,0.0,0.0,0.0,0.0,0.0,0.0,0.0,0.0,0.0,0.0,0.0,3.3438,3.2802,3.1197,0.0,0.0,0.0,0.0,0.0,0.0,0.0,0.0,0.0,0.0,3.2628,3.315,3.2552,3.1983,3.1941,3.1524,3.1564,3.2333,3.2015,3.1606,3.1496,0.0,0.0,0.0,0.0,0.0,0.0,0.0,0.0,0.0,0.0,0.0,0.0,0.0,0.0,0.0,0.0,0.0,0.0,0.0,0.0,0.0,0.0,0.0,0.0,0.0,0.0,0.0,0.0,0.0,0.0,0.0,0.0,0.0,0.0,0.0,0.0,0.0,0.0,0.0,0.0,0.0,0.0,0.0,0.0,0.0,0.0,0.0,0.0,0.0,0.0,0.0,0.0,0.0,3.7963,4.0876,4.477,4.6388,4.5657,4.6848,4.6471,4.4348,4.4162,4.2345,0.0,0.0,0.0,0.0,0.0,0.0,0.0,0.0,0.0,0.0,0.0,0.0,0.0,0.0,0.0,0.0,0.0,0.0,0.0,0.0,0.0,0.0,0.0,0.0,0.0,0.0,0.0,0.0,3.2341,3.2205,3.192,0.0,0.0,0.0,0.0,0.0,0.0,0.0,0.0,0.0,0.0,3.2167,3.2472,3.2129,0.0,0.0,3.0928,3.1016,3.1761,3.1383,3.0961,3.0747,2.9404,0.0,0.0,0.0,0.0,0.0,0.0,0.0,0.0,0.0,0.0,0.0,0.0,0.0,0.0,0.0,0.0,0.0,0.0,0.0,0.0,0.0,0.0,0.0,0.0,0.0,0.0,0.0,0.0,0.0,0.0,0.0,0.0,0.0,0.0,0.0,0.0,0.0,0.0,0.0,0.0,0.0,0.0,0.0,0.0,0.0,0.0,0.0,0.0,0.0,0.0,0.0,0.0,3.8167,4.0493,4.447,4.6072,4.5193,4.599,4.5739,4.4312,4.322,4.1025,0.0,0.0,0.0,0.0,0.0,0.0,0.0,0.0,0.0,0.0,0.0,0.0,0.0,0.0,0.0,0.0,0.0,0.0,0.0,0.0,0.0,0.0,0.0,0.0,0.0,0.0,0.0,0.0,0.0,0.0,0.0,0.0,0.0,0.0,0.0,0.0,0.0,0.0,0.0,0.0,0.0,3.1938,3.1331,3.1886,3.1814,0.0,3.0473,3.0802,3.0863,3.0256,2.967,2.9108,0.0,0.0,0.0,0.0,0.0,0.0,0.0,0.0,0.0,0.0,0.0,0.0,0.0,0.0,0.0,0.0,0.0,0.0,0.0,0.0,0.0,0.0,0.0,0.0,0.0,0.0,0.0,0.0,0.0,0.0,0.0,0.0,0.0,0.0,0.0,0.0,0.0,0.0,0.0,0.0,0.0,0.0,0.0,0.0,0.0,0.0,0.0,0.0,0.0,0.0,0.0,0.0,0.0,0.0,4.0862,4.3728,4.5181,4.5125,4.599,4.5594,4.3793,4.2465,0.0,0.0,0.0,0.0,0.0,0.0,0.0,0.0,0.0,0.0,0.0,0.0,0.0,0.0,0.0,0.0,0.0,0.0,0.0,0.0,0.0,0.0,0.0,0.0,0.0,0.0,0.0,2.8535,0.0,0.0,0.0,0.0,0.0,0.0,0.0,0.0,0.0,0.0,0.0,0.0,0.0,0.0,3.099,3.0745,3.1298,3.1195,0.0,0.0,2.9714,3.0138,2.9288,2.8444,0.0,0.0,0.0,0.0,0.0,0.0,0.0,0.0,0.0,0.0,0.0,0.0,0.0,0.0,0.0,0.0,0.0,0.0,0.0,0.0,0.0,0.0,0.0,0.0,0.0,0.0,0.0,0.0,0.0,0.0,0.0,0.0,0.0,0.0,0.0,0.0,0.0,0.0,0.0,0.0,0.0,0.0,0.0,0.0,0.0,0.0,0.0,0.0,0.0,0.0,0.0,0.0,0.0,0.0,3.7513,4.0729,4.324,4.4769,4.5349,4.5463,4.4864,4.3452,4.1853,3.9437,0.0,0.0,0.0,0.0,0.0,0.0,0.0,0.0,0.0,0.0,0.0,0.0,0.0,0.0,0.0,0.0,0.0,0.0,0.0,0.0,0.0,0.0,0.0,0.0,0.0,0.0,0.0,0.0,0.0,0.0,0.0,0.0,0.0,0.0,0.0,0.0,0.0,0.0,0.0,0.0,0.0,0.0,3.0183,3.0628,0.0,0.0,0.0,2.8886,2.8736,0.0,0.0,0.0,0.0,0.0,0.0,0.0,0.0,0.0,0.0,0.0,0.0,0.0,0.0,0.0,0.0,0.0,0.0,0.0,0.0,0.0,0.0,0.0,0.0,0.0,0.0,0.0,0.0,0.0,0.0,0.0,0.0,0.0,0.0,0.0,0.0,0.0,0.0,0.0,0.0,0.0,0.0,0.0,0.0,0.0,0.0,0.0,0.0,0.0,0.0,0.0,0.0,0.0,0.0,0.0,0.0,0.0,4.0364,4.2942,4.4638,4.5452,4.4752,4.3995,4.3337,4.1384,3.8887,0.0,0.0,0.0,0.0,0.0,0.0,0.0,0.0,0.0,0.0,0.0,0.0,0.0,0.0,0.0,0.0,0.0,0.0,0.0,0.0,0.0,0.0,0.0,0.0,0.0,0.0,0.0,0.0,0.0,0.0,0.0,0.0,0.0,0.0,0.0,0.0,0.0,0.0,0.0,0.0,0.0,2.9423,2.9488,2.9772,2.9556,0.0,0.0,2.8018,2.721,2.6846,0.0,0.0,0.0,0.0,0.0,0.0,0.0,0.0,0.0,0.0,0.0,0.0,0.0,0.0,0.0,0.0,0.0,0.0,0.0,0.0,0.0,0.0,0.0,0.0,0.0,0.0,0.0,0.0,0.0,0.0,0.0,0.0,0.0,0.0,0.0,0.0,0.0,0.0,0.0,0.0,0.0,0.0,0.0,0.0,0.0,0.0,0.0,0.0,0.0,0.0,0.0,0.0,0.0,0.0,0.0,0.0,4.0054,4.2494,4.4019,4.4692,4.4456,4.3995,4.3337,4.1057,3.8391,0.0,0.0,0.0,0.0,0.0,0.0,0.0,0.0,0.0,0.0,0.0,0.0,0.0,0.0,0.0,0.0,0.0,0.0,0.0,0.0,0.0,0.0,0.0,0.0,0.0,0.0,0.0,0.0,0.0,0.0,0.0,0.0,0.0,0.0,0.0,0.0,0.0,0.0,0.0,0.0,0.0,2.854,2.7963,2.8641,0.0,0.0,0.0,0.0,2.6484,2.5447,0.0,0.0,0.0,0.0,0.0,0.0,0.0,0.0,0.0,0.0,0.0,0.0,0.0,0.0,0.0,0.0,0.0,0.0,0.0,0.0,0.0,0.0,0.0,0.0,0.0,0.0,0.0,0.0,0.0,0.0,0.0,0.0,0.0,0.0,0.0,0.0,0.0,0.0,0.0,0.0,0.0,0.0,0.0,0.0,0.0,0.0,0.0,0.0,0.0,0.0,0.0,0.0,0.0,0.0,0.0,0.0,4.0156,4.1909,4.3355,4.4618,4.4023,4.3397,4.2776,4.0667,3.8186,0.0,0.0,0.0,0.0,0.0,0.0,0.0,0.0,0.0,0.0,0.0,0.0,0.0,0.0,0.0,0.0,0.0,0.0,0.0,0.0,0.0,0.0,0.0,0.0,0.0,0.0,0.0,0.0,0.0,0.0,0.0,0.0,0.0,0.0,0.0,0.0,0.0,0.0,0.0,0.0,2.6346,2.727,2.7293,0.0,0.0,0.0,0.0,0.0,0.0,2.4659,2.3805,0.0,0.0,0.0,0.0,0.0,0.0,0.0,0.0,0.0,0.0,0.0,0.0,0.0,0.0,0.0,0.0,0.0,0.0,0.0,0.0,0.0,0.0,0.0,0.0,0.0,0.0,0.0,0.0,0.0,0.0,0.0,0.0,0.0,0.0,0.0,0.0,0.0,0.0,0.0,0.0,0.0,0.0,0.0,0.0,0.0,0.0,0.0,0.0,0.0,0.0,0.0,0.0,0.0,0.0,0.0,4.0157,4.1294,4.2704,4.4528,4.3461,4.2643,4.212,4.0293,3.7896,3.4879,0.0,0.0,0.0,0.0,0.0,0.0,0.0,0.0,0.0,0.0,0.0,0.0,0.0,0.0,0.0,0.0,0.0,0.0,0.0,0.0,0.0,0.0,0.0,0.0,0.0,0.0,0.0,0.0,0.0,0.0,0.0,0.0,0.0,0.0,0.0,0.0,0.0,0.0,0.0,2.4906,2.5971,0.0,0.0,0.0,0.0,0.0,0.0,0.0,0.0,2.3294,0.0,0.0,0.0,0.0,0.0,0.0,0.0,0.0,0.0,0.0,0.0,0.0,0.0,0.0,0.0,0.0,0.0,0.0,0.0,0.0,0.0,0.0,0.0,0.0,0.0,0.0,0.0,0.0,0.0,0.0,0.0,0.0,0.0,0.0,0.0,0.0,0.0,0.0,0.0,0.0,0.0,0.0,0.0,0.0,0.0,0.0,0.0,0.0,0.0,0.0,0.0,0.0,0.0,0.0,0.0,0.0,4.0793,4.2419,4.3363,4.2896,4.2457,4.204,3.9829,3.7068,3.3663,0.0,0.0,0.0,0.0,0.0,0.0,0.0,0.0,0.0,0.0,0.0,0.0,0.0,0.0,0.0,0.0,0.0,0.0,0.0,0.0,0.0,0.0,0.0,0.0,0.0,0.0,0.0,0.0,0.0,0.0,0.0,0.0,0.0,0.0,0.0,0.0,0.0,0.0,2.1632,2.3618,0.0,0.0,0.0,0.0,0.0,0.0,0.0,0.0,2.3142,0.0,0.0,0.0,0.0,0.0,0.0,0.0,0.0,0.0,0.0,0.0,0.0,0.0,0.0,0.0,0.0,0.0,0.0,0.0,0.0,0.0,0.0,0.0,0.0,0.0,0.0,0.0,0.0,0.0,0.0,0.0,0.0,0.0,0.0,0.0,0.0,0.0,0.0,0.0,0.0,0.0,0.0,0.0,0.0,0.0,0.0,0.0,0.0,0.0,0.0,0.0,0.0,0.0,0.0,0.0,0.0,0.0,0.0,4.22,4.3474,4.3307,4.2769,4.1744,3.9545,3.6637,0.0,0.0,0.0,0.0,0.0,0.0,0.0,0.0,0.0,0.0,0.0,0.0,0.0,0.0,0.0,0.0,0.0,0.0,0.0,0.0,0.0,0.0,0.0,0.0,0.0,0.0,0.0,0.0,0.0,0.0,0.0,0.0,0.0,0.0,0.0,0.0,0.0,0.0,0.0,0.0,0.0,0.0,0.0,0.0,0.0,0.0,0.0,0.0,0.0,0.0,0.0,0.0,0.0,0.0,0.0,0.0,0.0,0.0,0.0,0.0,0.0,0.0,0.0,0.0,0.0,0.0,0.0,0.0,0.0,0.0,0.0,0.0,0.0,0.0,0.0,0.0,0.0,0.0,0.0,0.0,0.0,0.0,0.0,0.0,0.0,0.0,0.0,0.0,0.0,0.0,0.0,0.0,0.0,0.0,0.0,0.0,0.0,0.0,0.0,0.0,0.0,0.0,0.0,0.0,0.0,0.0,0.0,0.0,4.1772,4.37,4.3701,4.3007,4.1584,3.9243,3.6225,0.0,0.0,0.0,0.0,0.0,0.0,0.0,0.0,0.0,0.0,0.0,0.0,0.0,0.0,0.0,0.0,0.0,0.0,0.0,0.0,0.0,0.0,0.0,0.0,0.0,0.0,0.0,0.0,0.0,0.0,0.0,0.0,0.0,0.0,0.0,0.0,0.0,0.0,0.0,0.0,0.0,0.0,0.0,0.0,0.0,0.0,0.0,0.0,2.2795,0.0,0.0,0.0,0.0,0.0,0.0,0.0,0.0,0.0,0.0,0.0,0.0,0.0,0.0,0.0,0.0,0.0,0.0,0.0,0.0,0.0,0.0,0.0,0.0,0.0,0.0,0.0,0.0,0.0,0.0,0.0,0.0,0.0,0.0,0.0,0.0,0.0,0.0,0.0,0.0,0.0,0.0,0.0,0.0,0.0,0.0,0.0,0.0,0.0,0.0,0.0,0.0,0.0,0.0,0.0,0.0,0.0,0.0,0.0,4.0714,4.316,4.3335,4.2761,4.1408,3.8926,3.5598,0.0,0.0,0.0,0.0,0.0,0.0,0.0,0.0,0.0,0.0,0.0,0.0,0.0,0.0,0.0,0.0,0.0,0.0,0.0,0.0,0.0,0.0,0.0,0.0,0.0,0.0,0.0,0.0,0.0,0.0,0.0,0.0,0.0,0.0,0.0,0.0,0.0,0.0,0.0,0.0,0.0,0.0,0.0,0.0,0.0,0.0,0.0,0.0,0.0,0.0,0.0,0.0,0.0,0.0,0.0,0.0,0.0,0.0,0.0,0.0,0.0,0.0,0.0,0.0,0.0,0.0,0.0,0.0,0.0,0.0,0.0,0.0,0.0,0.0,0.0,0.0,0.0,0.0,0.0,0.0,0.0,0.0,0.0,0.0,0.0,0.0,0.0,0.0,0.0,0.0,0.0,0.0,0.0,0.0,0.0,0.0,0.0,0.0,0.0,0.0,0.0,0.0,0.0,0.0,0.0,0.0,0.0,0.0,4.0465,4.2737,4.2939,4.2264,4.0758,3.7982,3.4828,0.0,0.0,0.0,0.0,0.0,0.0,0.0,0.0,0.0,0.0,0.0,0.0,0.0,0.0,0.0,0.0,0.0,0.0,0.0,0.0,0.0,0.0,0.0,0.0,0.0,0.0,0.0,0.0,0.0,0.0,0.0,0.0,0.0,0.0,0.0,0.0,0.0,0.0,0.0,0.0,0.0,0.0,0.0,0.0,0.0,0.0,0.0,0.0,0.0,0.0,0.0,0.0,0.0,0.0,0.0,0.0,0.0,0.0,0.0,0.0,0.0,0.0,0.0,0.0,0.0,0.0,0.0,0.0,0.0,0.0,0.0,0.0,0.0,0.0,0.0,0.0,0.0,0.0,0.0,0.0,0.0,0.0,0.0,0.0,0.0,0.0,0.0,0.0,0.0,0.0,0.0,0.0,0.0,0.0,0.0,0.0,0.0,0.0,0.0,0.0,0.0,0.0,0.0,0.0,0.0,0.0,0.0,0.0,0.0,4.2031,4.1665,4.0748,3.9357,3.6637,3.366,0.0,0.0,0.0,0.0,0.0,0.0,0.0,0.0,0.0,0.0,0.0,0.0,0.0,0.0,0.0,0.0,0.0,0.0,0.0,0.0,0.0,0.0,0.0,0.0,0.0,0.0,0.0,0.0,0.0,0.0,0.0,0.0,0.0,0.0,0.0,0.0,0.0,0.0,0.0,0.0,0.0,0.0,0.0,0.0,0.0,0.0,0.0,0.0,0.0,0.0,0.0,0.0,0.0,0.0,0.0,0.0,0.0,0.0,0.0,0.0,0.0,0.0,0.0,0.0,0.0,0.0,0.0,0.0,0.0,0.0,0.0,0.0,0.0,0.0,0.0,0.0,0.0,0.0,0.0,0.0,0.0,0.0,0.0,0.0,0.0,0.0,0.0,0.0,0.0,0.0,0.0,0.0,0.0,0.0,0.0,0.0,0.0,0.0,0.0,0.0,0.0,0.0,0.0,0.0,0.0,0.0,0.0,0.0,0.0,4.1035,3.8969,3.758,3.7111,3.4806,3.1992,0.0,0.0,0.0,0.0,0.0,0.0,0.0,0.0,0.0,0.0,0.0,0.0,0.0,0.0,0.0,0.0,0.0,0.0,0.0,0.0,0.0,0.0,0.0,0.0,0.0,0.0,0.0,0.0,0.0,0.0,0.0,0.0,0.0,0.0,0.0,0.0,0.0,0.0,0.0,0.0,0.0,0.0,0.0,0.0,0.0,0.0,0.0,0.0,0.0,0.0,0.0,0.0,0.0,0.0,0.0,0.0,0.0,0.0,0.0,0.0,0.0,0.0,0.0,0.0,0.0,0.0,0.0,0.0,0.0,0.0,0.0,0.0,0.0,0.0,0.0,0.0,0.0,0.0,0.0,0.0,0.0,0.0,0.0,0.0,0.0,0.0,0.0,0.0,0.0,0.0,0.0,0.0,0.0,0.0,0.0,0.0,0.0,0.0,0.0,0.0,0.0,0.0,0.0,0.0,0.0,0.0,0.0,0.0,0.0,3.5376,3.5288,3.4979,3.4521,3.2311,2.9942,2.7466,0.0,0.0,0.0,0.0,0.0,0.0,0.0,0.0,0.0,0.0,0.0,0.0,0.0,0.0,0.0,0.0,0.0,0.0,0.0,0.0,0.0,0.0,0.0,0.0,0.0,0.0,0.0,0.0,0.0,0.0,0.0,0.0,0.0,0.0,0.0,0.0,0.0,0.0,0.0,0.0,0.0,0.0,0.0,0.0,0.0,0.0,0.0,0.0,0.0,0.0,0.0,0.0,0.0,0.0,0.0,0.0,0.0,0.0,0.0,0.0,0.0,0.0,0.0,0.0,0.0,0.0,0.0,0.0,0.0,0.0,0.0,0.0,0.0,0.0,0.0,0.0,0.0,0.0,0.0,0.0,0.0,0.0,0.0,0.0,0.0,0.0,0.0,0.0,0.0,0.0,0.0,0.0,0.0,0.0,0.0,0.0,0.0,0.0,0.0,0.0,0.0,0.0,0.0,0.0,0.0,0.0,0.0,0.0,3.1128,3.2339,3.2754,3.2171,3.0386,2.8419,0.0,0.0,0.0,0.0,0.0,0.0,0.0,0.0,0.0,0.0,0.0,0.0,0.0,0.0,0.0,0.0,0.0,0.0,0.0,0.0,0.0,0.0,0.0,0.0,0.0,0.0,0.0,0.0,0.0,0.0,0.0,0.0,0.0,0.0,0.0,0.0,0.0,0.0,0.0,0.0,0.0,0.0,0.0,0.0,0.0,0.0,0.0,0.0,0.0,0.0,0.0,0.0,0.0,0.0,0.0,0.0,0.0,0.0,0.0,0.0,0.0,0.0,0.0,0.0,0.0,0.0,0.0,0.0,0.0,0.0,0.0,0.0,0.0,0.0,0.0,0.0,0.0,0.0,0.0,0.0,0.0,0.0,0.0,0.0,0.0,0.0,0.0,0.0,0.0,0.0,0.0,0.0,0.0,0.0,0.0,0.0,0.0,0.0,0.0,0.0,0.0,0.0,0.0,0.0,0.0,0.0,0.0,0.0,2.7047,2.8929,3.0336,3.0798,3.0337,2.9174,2.7515,0.0,0.0,0.0,0.0,0.0,0.0,0.0,0.0,0.0,0.0,0.0,0.0,0.0,0.0,0.0,0.0,0.0,0.0,0.0,0.0,0.0,0.0,0.0,0.0,0.0,0.0,0.0,0.0,0.0,0.0,0.0,0.0,0.0,0.0,0.0,0.0,0.0,0.0,0.0,0.0,0.0,0.0,0.0,0.0,0.0,0.0,0.0,0.0,0.0,0.0,0.0,0.0,0.0,0.0,0.0,0.0,0.0,0.0,0.0,0.0,0.0,0.0,0.0,0.0,0.0,0.0,0.0,0.0,0.0,0.0,0.0,0.0,0.0,0.0,0.0,0.0,0.0,0.0,0.0,0.0,0.0,0.0,0.0,0.0,0.0,0.0,0.0,0.0,0.0,0.0,0.0,0.0,0.0,0.0,0.0,0.0,0.0,0.0,0.0,0.0,0.0,0.0,0.0,0.0,0.0,0.0,0.0,0.0,0.0,2.6415,0.0,2.8135,0.0,2.7163,2.5866,0.0,0.0,0.0,0.0,0.0,0.0,0.0,0.0,0.0,0.0,0.0,0.0,0.0,0.0,0.0,0.0,0.0,0.0,0.0,0.0,0.0,0.0,0.0,0.0,0.0,0.0,0.0,0.0,0.0,0.0,0.0,0.0,0.0,0.0,0.0,0.0,0.0,0.0,0.0,0.0,0.0,0.0,0.0,0.0,0.0,0.0,0.0,0.0,0.0,0.0,0.0,0.0,0.0,0.0,0.0,0.0,0.0,0.0,0.0,0.0,0.0,0.0,0.0,0.0,0.0,0.0,0.0,0.0,0.0,0.0,0.0,0.0,0.0,0.0,0.0,0.0,0.0,0.0,0.0,0.0,0.0,0.0,0.0,0.0,0.0,0.0,0.0,0.0,0.0,0.0,0.0,0.0,0.0,0.0,0.0,0.0,0.0,0.0,0.0,0.0,0.0,0.0,0.0,0.0,0.0,0.0,0.0,0.0,0.0,2.5546,2.6308,2.6964,2.742,2.6456,2.5205,0.0,0.0,0.0,0.0,0.0,0.0,0.0,0.0,0.0,0.0,0.0,0.0,0.0,0.0,0.0,0.0,0.0,0.0,0.0,0.0,0.0,0.0,0.0,0.0,0.0,0.0,0.0,0.0,0.0,0.0,0.0,0.0,0.0,0.0,0.0,0.0,0.0,0.0,0.0,0.0,0.0,0.0,0.0,0.0,0.0,0.0,0.0,0.0,0.0,0.0,0.0,0.0,0.0,0.0,0.0,0.0,0.0,0.0,0.0,0.0,0.0,0.0,0.0,0.0,0.0,0.0,0.0,0.0,0.0,0.0,0.0,0.0,0.0,0.0,0.0,0.0,0.0,0.0,0.0,0.0,0.0,0.0,0.0,0.0,0.0,0.0,0.0,0.0,0.0,0.0,0.0,0.0,0.0,0.0,0.0,0.0,0.0,0.0,0.0,0.0,0.0,0.0,0.0,0.0,0.0,0.0,0.0,0.0,0.0,2.6036,2.651,2.7107,2.7672,2.6676,2.5369,0.0,0.0,0.0,0.0,0.0,0.0,0.0,0.0,0.0,0.0,0.0,0.0,0.0,0.0,0.0,0.0,0.0,0.0,0.0,0.0,0.0,0.0,0.0,0.0,0.0,0.0,0.0,0.0,0.0,0.0,0.0,0.0,0.0,0.0,0.0,0.0,0.0,0.0,0.0,0.0,0.0,0.0,0.0,0.0,0.0,0.0,0.0,0.0,0.0,0.0,0.0,0.0,0.0,0.0,0.0,0.0,0.0,0.0,0.0,0.0,0.0,0.0,0.0,0.0,0.0,0.0,0.0,0.0,0.0,0.0,0.0,0.0,0.0,0.0,0.0,0.0,0.0,0.0,0.0,0.0,0.0,0.0,0.0,0.0,0.0,0.0,0.0,0.0,0.0,0.0,0.0,0.0,0.0,0.0,0.0,0.0,0.0,0.0,0.0,0.0,0.0,0.0,0.0,0.0,0.0,0.0,0.0,0.0,0.0,0.0,2.5488,2.5546,2.5158,2.4233,2.3154,2.1992,0.0,0.0,0.0,0.0,0.0,0.0,0.0,0.0,0.0,0.0,0.0,0.0,0.0,0.0,0.0,0.0,0.0,0.0,0.0,0.0,0.0,0.0,0.0,0.0,0.0,0.0,0.0,0.0,0.0,0.0,0.0,0.0,0.0,0.0,0.0,0.0,0.0,0.0,0.0,0.0,0.0,0.0,0.0,0.0,0.0,0.0,0.0,0.0,0.0,0.0,0.0,0.0,0.0,0.0,0.0,0.0,0.0,0.0,0.0,0.0,0.0,0.0,0.0,0.0,0.0,0.0,0.0,0.0,0.0,0.0,0.0,0.0,0.0,0.0,0.0,0.0,0.0,0.0,0.0,0.0,0.0,0.0,0.0,0.0,0.0,0.0,0.0,0.0,0.0,0.0,0.0,0.0,0.0,0.0,0.0,0.0,0.0,0.0,0.0,0.0,0.0,0.0,0.0,0.0,0.0,0.0,0.0,0.0,0.0,0.0,2.5171,2.4383,2.4013,2.3026,0.0,0.0,0.0,0.0,0.0,0.0,0.0,0.0,0.0,0.0,0.0,0.0,0.0,0.0,0.0,0.0,0.0,0.0,0.0,0.0,0.0,0.0,0.0,0.0,0.0,0.0,0.0,0.0,0.0,0.0,0.0,0.0,0.0,0.0,0.0,0.0,0.0,0.0,0.0,0.0,0.0,0.0,0.0,0.0,0.0,0.0,0.0,0.0,0.0,0.0,0.0,0.0,0.0,0.0,0.0,0.0,0.0,0.0,0.0,0.0,0.0,0.0,0.0,0.0,0.0,0.0,0.0,0.0,0.0,0.0,0.0,0.0,0.0,0.0,0.0,0.0,0.0,0.0,0.0,0.0,0.0,0.0,0.0,0.0,0.0,0.0,0.0,0.0,0.0,0.0,0.0,0.0,0.0,0.0,0.0,0.0,0.0,0.0,0.0,0.0,0.0,0.0,0.0,0.0,0.0,0.0,0.0,0.0,0.0,0.0,0.0,2.5501,2.4588,2.4936,0.0,2.1466,0.0,0.0,0.0,0.0,0.0,0.0,0.0,0.0,0.0,0.0,0.0,0.0,0.0,0.0,0.0,0.0,0.0,0.0,0.0,0.0,0.0,0.0,0.0,0.0,0.0,0.0,0.0,0.0,0.0,0.0,0.0,0.0,0.0,0.0,0.0,0.0,0.0,0.0,0.0,0.0,0.0,0.0,0.0,0.0,0.0,0.0,0.0,0.0,0.0,0.0,0.0,0.0,0.0,0.0,0.0,0.0,0.0,0.0,0.0,0.0,0.0,0.0,0.0,0.0,0.0,0.0,0.0,0.0,0.0,0.0,0.0,0.0,0.0,0.0,0.0,0.0,0.0,0.0,0.0,0.0,0.0,0.0,0.0,0.0,0.0,0.0,0.0,0.0,0.0,0.0,0.0,0.0,0.0,0.0,0.0,0.0,0.0,0.0,0.0,0.0,0.0,0.0,0.0,0.0,0.0,0.0,0.0,0.0,0.0,0.0,0.0,0.0,2.3332,2.232,2.0818,0.0,0.0,0.0,0.0,0.0,0.0,0.0,0.0,0.0,0.0,0.0,0.0,0.0,0.0,0.0,0.0,0.0,0.0,0.0,0.0,0.0,0.0,0.0,0.0,0.0,0.0,0.0,0.0,0.0,0.0,0.0,0.0,0.0,0.0,0.0,0.0,0.0,0.0,0.0,0.0,0.0,0.0,0.0,0.0,0.0,0.0,0.0,0.0,0.0,0.0,0.0,0.0,0.0,0.0,0.0,0.0,0.0,0.0,0.0,0.0,0.0,0.0,0.0,0.0,0.0,0.0,0.0,0.0,0.0,0.0,0.0,0.0,0.0,0.0,0.0,0.0,0.0,0.0,0.0,0.0,0.0,0.0,0.0,0.0,0.0,0.0,0.0,0.0,0.0,0.0,0.0,0.0,0.0,0.0,0.0,0.0,0.0,0.0,0.0,0.0,0.0,0.0,0.0,0.0,0.0,0.0,0.0,0.0,0.0,0.0,2.3528,2.2832,2.2721,2.2134,2.0797,0.0,0.0,0.0,0.0,0.0,0.0,0.0,0.0,0.0,0.0,0.0,0.0,0.0,0.0,0.0,0.0,0.0,0.0,0.0,0.0,0.0,0.0,0.0,0.0,0.0,0.0,0.0,0.0,0.0,0.0,0.0,0.0,0.0,0.0,0.0,0.0,0.0,0.0,0.0,0.0,0.0,0.0,0.0,0.0,0.0,0.0,0.0,0.0,0.0,0.0,0.0,0.0,0.0,0.0,0.0,0.0,0.0,0.0,0.0,0.0,0.0,0.0,0.0,0.0,0.0,0.0,0.0,0.0,0.0,0.0,0.0,0.0,0.0,0.0,0.0,0.0,0.0,0.0,0.0,0.0,0.0,0.0,0.0,0.0,0.0,0.0,0.0,0.0,0.0,0.0,0.0,0.0,0.0,0.0,0.0,0.0,0.0,0.0,0.0,0.0,0.0,0.0,0.0,0.0,0.0,0.0,0.0,0.0,0.0,0.0,0.0,0.0,0.0,0.0,2.086,0.0,0.0,0.0,0.0,0.0,0.0,0.0,0.0,0.0,0.0,0.0,0.0,0.0,0.0,0.0,0.0,0.0,0.0,0.0,0.0,0.0,0.0,0.0,0.0,0.0,0.0,0.0,0.0,0.0,0.0,0.0,0.0,0.0,0.0,0.0,0.0,0.0,0.0,0.0,0.0,0.0,0.0,0.0,0.0,0.0,0.0,0.0,0.0,0.0,0.0,0.0,0.0,0.0,0.0,0.0,0.0,0.0,0.0,0.0,0.0,0.0,0.0,0.0,0.0,0.0,0.0,0.0,0.0,0.0,0.0,0.0,0.0,0.0,0.0,0.0,0.0,0.0,0.0,0.0,0.0,0.0,0.0,0.0,0.0,0.0,0.0,0.0,0.0,0.0,0.0,0.0,0.0,0.0,0.0,0.0,0.0,0.0,0.0,0.0,0.0,0.0,0.0,0.0,0.0,0.0,0.0,0.0,0.0,0.0,0.0,0.0,0.0,0.0,0.0,0.0,0.0,0.0,0.0,0.0,0.0,0.0,0.0,0.0,0.0,0.0,0.0,0.0,0.0,0.0,0.0,0.0,0.0,0.0,0.0,0.0,0.0,0.0,0.0,0.0,0.0,0.0,0.0,0.0,0.0,0.0,0.0,0.0,0.0,0.0,0.0,0.0,0.0,0.0,0.0,0.0,0.0,0.0,0.0,0.0,0.0,0.0,0.0,0.0,0.0,0.0,0.0,0.0,0.0,0.0,0.0,0.0,0.0,0.0,0.0,0.0,0.0,0.0,0.0,0.0,0.0,0.0,0.0,0.0,0.0,0.0,0.0,0.0,0.0,0.0,0.0,0.0,0.0,0.0,0.0,0.0,0.0,0.0,0.0,0.0,0.0,0.0,0.0,0.0,0.0,0.0,0.0,0.0,0.0,0.0,0.0,0.0,0.0,0.0,0.0,0.0,0.0,0.0,0.0,0.0,0.0,0.0,0.0,0.0,0.0,0.0,0.0,0.0,0.0,0.0,0.0,0.0,0.0,0.0,0.0,0.0,0.0,0.0,0.0,0.0,0.0,0.0,0.0,0.0,0.0,0.0,0.0,0.0,0.0,0.0,0.0,0.0,0.0,0.0,0.0,0.0,0.0,0.0,0.0,0.0,0.0,0.0,0.0,0.0,0.0,0.0,0.0,0.0,0.0,0.0,0.0,0.0,0.0,0.0,0.0,0.0,0.0,0.0,0.0,0.0,0.0,0.0,0.0,0.0,0.0,0.0,0.0,0.0,0.0,0.0,0.0,0.0,0.0,0.0,0.0,0.0,0.0,0.0,0.0,0.0,0.0,0.0,0.0,0.0,0.0,0.0,0.0,0.0,0.0,0.0,0.0,0.0,0.0,0.0,0.0,0.0,0.0,0.0,0.0,0.0,0.0,0.0,0.0,0.0,0.0,0.0,0.0,0.0,0.0,0.0,0.0,0.0,0.0,0.0,0.0,0.0,0.0,0.0,0.0,0.0,0.0,0.0,0.0,0.0,0.0,0.0,0.0,0.0,0.0,0.0,0.0,0.0,0.0,0.0,0.0,0.0,0.0,0.0,0.0,0.0,0.0,0.0,0.0,0.0,0.0,0.0,0.0,0.0,0.0,0.0,0.0,0.0,0.0,0.0,0.0,0.0,0.0,0.0,0.0,0.0,0.0,0.0,0.0,0.0,0.0,0.0,0.0,0.0,0.0,0.0,0.0,0.0,0.0,0.0,0.0,0.0,0.0,0.0,0.0,0.0,0.0,0.0,0.0,0.0,0.0,0.0,0.0,0.0,0.0,0.0,0.0,0.0,0.0,0.0,0.0,0.0,0.0,0.0,0.0,0.0,0.0,0.0,0.0,0.0,0.0,0.0,0.0,0.0,0.0,0.0,0.0,0.0,0.0,0.0,0.0,0.0,0.0,0.0,0.0,0.0,0.0,0.0,0.0,0.0,0.0,0.0,0.0,0.0,0.0,0.0,0.0,0.0,0.0,0.0,0.0,0.0,0.0,0.0,0.0,0.0,0.0,0.0,0.0,0.0,0.0,0.0,0.0,0.0,0.0,0.0,0.0,0.0,0.0,0.0,0.0,0.0,0.0,0.0,0.0,0.0,0.0,0.0,0.0,0.0,0.0,0.0,0.0,0.0,0.0,0.0,0.0,0.0,0.0,0.0,0.0,0.0,0.0,0.0,0.0,0.0,0.0,0.0,0.0,0.0,0.0,0.0,0.0,0.0,0.0,0.0,0.0,0.0,0.0,0.0,0.0,0.0,0.0,0.0,0.0,0.0,0.0,0.0,0.0,0.0,0.0,0.0,0.0,0.0,0.0,0.0,0.0,0.0,0.0,0.0,0.0,0.0,0.0,0.0,0.0,0.0,0.0,0.0,0.0,0.0,0.0,0.0,0.0,0.0,0.0,0.0,0.0,0.0,0.0,0.0,0.0,0.0,0.0,0.0,0.0,0.0,0.0,0.0,0.0,0.0,0.0,0.0,0.0,0.0,0.0,0.0,0.0,0.0,0.0,0.0,0.0,0.0,0.0,0.0,0.0,0.0,0.0,0.0,0.0,0.0,0.0,0.0,0.0,0.0,0.0,0.0,0.0,0.0,0.0,0.0,0.0,0.0,0.0,0.0,0.0,0.0,0.0,0.0,0.0,0.0,0.0,0.0,0.0,0.0,0.0,0.0,0.0,0.0,0.0,0.0,0.0,0.0,0.0,0.0,0.0,0.0,0.0,0.0,0.0,0.0,0.0,0.0,0.0,0.0,0.0,0.0,0.0,0.0,0.0,0.0,0.0,0.0,0.0,0.0,0.0,0.0,0.0,0.0,0.0,0.0,0.0,0.0,0.0,0.0,0.0,0.0,0.0,0.0,0.0,0.0,0.0,0.0,0.0,0.0,0.0,0.0,0.0,0.0,0.0,0.0,0.0,0.0,0.0,0.0,0.0,0.0,0.0,0.0,0.0,0.0,0.0,0.0,0.0,0.0,0.0,0.0,0.0,0.0,0.0,0.0,0.0,0.0,0.0,0.0,0.0,0.0,0.0,0.0,0.0,0.0,0.0,0.0,0.0,0.0,0.0,0.0,0.0,0.0,0.0,0.0,0.0,0.0,0.0,0.0,0.0,0.0,0.0,0.0,0.0,0.0,0.0,0.0,0.0,0.0,0.0,0.0,0.0,0.0,0.0,0.0,0.0,0.0,0.0,0.0,0.0,0.0,0.0,0.0,0.0,0.0,0.0,0.0,0.0,0.0,0.0,0.0,0.0,0.0,0.0,0.0,0.0,0.0,0.0,0.0,0.0,0.0,0.0,0.0,0.0,0.0,0.0,0.0,0.0,0.0,0.0,0.0,0.0,0.0,0.0,0.0,0.0,0.0,0.0,0.0,0.0,0.0,0.0,0.0,0.0,0.0,0.0,0.0,0.0,0.0,0.0,0.0,0.0,0.0,0.0,0.0,0.0,0.0,0.0,0.0,0.0,0.0,0.0,0.0,0.0,0.0,0.0,0.0,0.0,0.0,0.0,0.0,0.0,0.0,0.0,0.0,0.0,0.0,0.0,0.0,0.0,0.0,0.0,0.0,0.0,0.0,0.0,0.0,0.0,0.0,0.0,0.0,0.0,0.0,0.0,0.0,0.0,0.0,0.0,0.0,0.0,0.0,0.0,0.0,0.0,0.0,0.0,0.0,0.0,0.0,0.0,0.0,0.0,0.0,0.0,0.0,0.0,0.0,0.0,0.0,0.0,0.0,0.0,0.0,0.0,0.0,0.0,0.0,0.0,0.0,0.0,0.0,0.0,0.0,0.0,0.0,0.0,0.0,0.0,0.0,0.0,0.0,0.0,0.0,0.0,0.0,0.0,0.0,0.0,0.0,0.0,0.0,0.0,0.0,0.0,0.0,0.0,0.0,0.0,0.0,0.0,0.0,0.0,0.0,0.0,0.0,0.0,0.0,0.0,0.0,0.0,0.0,0.0,0.0,0.0,0.0,0.0,0.0,0.0,0.0,0.0,0.0,0.0,0.0,0.0,0.0,0.0,0.0,0.0,0.0,0.0,0.0,0.0,0.0,0.0,0.0,0.0,0.0,0.0,0.0,0.0,0.0,0.0,0.0,0.0,0.0,0.0,0.0,0.0,0.0,0.0,0.0,0.0,0.0,0.0,0.0,0.0,0.0,0.0,0.0,0.0,0.0,0.0,0.0,0.0,0.0,0.0,0.0,0.0,0.0,0.0,0.0,0.0,0.0,0.0,0.0,0.0,0.0,0.0,0.0,0.0,0.0,0.0,0.0,0.0,0.0,0.0,0.0,0.0,0.0,0.0,0.0,0.0,0.0,0.0,0.0,0.0,0.0,0.0,0.0,0.0]}],[{"header":{"parameterUnit":"kt","parameterCategory":2,"dx":1,"dy":1,"la1":29.587661999999998,"la2":31.0,"lo1":-88.76705300000003,"lo2":-86.6583820000003,"nx":115,"ny":88,"refTime":"2022-09-23T18:00:00:Z","depth":0,"parameterNumber":2,"parameterNumberName":"V-component_of_WINDS"},"data":[5.96,6.0088,6.025,6.0506,6.0814,6.0904,6.1971,6.3713,6.4981,6.6465,6.7889,6.9196,6.9879,6.9644,6.945,6.9494,6.9796,7.0304,7.1141,7.2309,7.2529,7.3758,7.5192,7.6474,7.7914,7.8638,7.9073,7.9415,8.0117,8.0862,8.1492,8.2185,8.4926,8.5966,8.6335,8.7223,8.8128,8.817,8.8278,8.8278,8.7902,8.7442,8.7274,8.7307,8.7322,8.8305,8.9033,8.9649,9.0308,9.1134,9.2034,9.3428,9.4435,9.5308,9.6245,9.7237,9.7824,9.8704,9.9571,10.0064,10.042,10.1839,10.2162,10.2575,10.2927,10.34,10.3742,10.4053,10.4322,10.4529,10.4676,10.4823,10.5021,10.5198,10.5494,10.5837,10.6227,10.658,10.6868,10.7144,10.737,10.7571,10.7822,10.7948,10.807,10.8199,10.8251,10.8251,10.8251,10.8309,10.834,10.8441,10.8575,10.8796,10.9022,10.9212,10.9278,10.9317,10.9326,10.9286,10.9217,10.9145,10.9014,10.8895,10.8848,10.9105,10.9781,11.0336,11.1884,11.3818,11.5581,11.684,11.7875,11.8664,11.872,5.958,6.0055,6.0437,6.0711,6.0866,6.1101,6.209,6.3613,6.5145,6.6624,6.8066,6.9231,6.9716,6.9846,6.9922,6.9943,7.0263,7.1093,7.2116,7.3165,7.4176,7.5634,7.6916,7.7799,7.8711,7.9419,7.9698,8.0243,8.1052,8.1956,8.2817,8.3862,8.5027,8.6167,8.6544,8.7357,8.8069,8.8002,8.7701,8.7969,8.7634,8.698,8.6603,8.6938,8.7576,8.8467,8.8892,8.9305,8.9789,9.0848,9.231,9.4118,9.5558,9.6554,9.7677,9.8753,9.932,10.0182,10.1085,10.1437,10.1782,10.2135,10.2459,10.2774,10.3055,10.344,10.3801,10.4149,10.4416,10.4603,10.4713,10.486,10.511,10.5318,10.5643,10.597,10.6371,10.6783,10.7035,10.724,10.7408,10.7534,10.7716,10.7857,10.8015,10.8178,10.8251,10.8251,10.8251,10.8309,10.8371,10.8517,10.8632,10.8877,10.9137,10.9257,10.9285,10.9286,10.932,10.9273,10.9248,10.9092,10.899,10.8878,10.92,10.9588,11.0227,11.127,11.3364,11.5393,11.6566,11.7364,11.8344,11.8793,11.8849,5.958,6.0107,6.0476,6.08,6.1177,6.1939,6.3251,6.4815,6.6159,6.7619,6.9034,6.9535,6.9846,6.9952,7.0006,7.0281,7.1528,7.2268,7.3616,7.5183,7.6579,7.7719,7.8494,7.918,7.9754,7.98,7.9992,8.0629,8.1706,8.2822,8.4164,8.5237,8.6486,8.7332,8.7324,8.6947,8.7014,8.7022,8.6075,8.631,8.6846,8.6042,8.553,8.6754,8.745,8.771,8.8449,8.9806,9.0391,9.146,9.2908,9.494,9.6698,9.7694,9.8921,10.0071,10.0813,10.1331,10.1731,10.1965,10.2019,10.2205,10.2459,10.2746,10.3063,10.3521,10.3935,10.4075,10.4398,10.4713,10.4787,10.4932,10.5179,10.5632,10.6019,10.6265,10.6565,10.6998,10.7369,10.7492,10.747,10.7595,10.774,10.7928,10.8004,10.8178,10.8241,10.8251,10.8251,10.8261,10.8448,10.8584,10.8632,10.8825,10.9083,10.9182,10.9233,10.9259,10.9275,10.9252,10.9219,10.9061,10.8974,10.8933,10.9133,10.9923,11.1134,11.2282,11.4179,11.63,11.7249,11.7906,11.8421,11.8945,11.9144,5.956,6.0009,6.0269,6.0955,6.1797,6.2722,6.4341,6.6457,6.7542,6.8788,6.9912,7.0108,7.0204,7.0558,7.0846,7.1544,7.291,7.4019,7.5615,7.6976,7.8255,7.9165,8.0044,8.0132,8.0541,8.0611,8.0837,8.1373,8.2768,8.4557,8.6101,8.6721,8.7289,8.7549,8.7265,8.6679,8.5966,8.5438,8.4222,8.3551,8.4725,8.449,8.527,8.7056,8.8337,8.8625,8.9743,9.0948,9.1579,9.235,9.3784,9.5634,9.771,9.8773,10.0055,10.1231,10.16,10.1759,10.2003,10.2035,10.208,10.2245,10.2473,10.2689,10.3084,10.3618,10.3955,10.4075,10.4305,10.464,10.4914,10.5092,10.5354,10.5961,10.6516,10.6652,10.6806,10.7284,10.7737,10.7716,10.7632,10.7682,10.7836,10.7974,10.8037,10.8172,10.8295,10.8363,10.8363,10.886,10.9122,10.863,10.8688,10.8744,10.8962,10.9106,10.9182,10.921,10.9245,10.9248,10.922,10.9099,10.899,10.8941,10.948,11.0867,11.2154,11.3349,11.4917,11.6896,11.805,11.8464,11.894,11.9276,11.9489,5.9459,5.972,5.9752,6.0989,6.2868,6.3265,6.507,6.7817,6.8909,6.9798,7.0406,7.0502,7.0807,7.1514,7.2229,7.2998,7.4369,7.5939,7.7453,7.8252,7.9373,8.0093,8.0609,8.0888,8.1519,8.2291,8.27,8.2851,8.4194,8.5561,8.6929,8.801,8.7949,8.738,8.6553,8.5807,8.4859,8.3953,8.241,8.2018,8.288,8.3987,8.5304,8.8136,8.9611,9.0643,9.1896,9.2633,9.2953,9.3662,9.4695,9.6054,9.7593,9.882,10.0223,10.1208,10.158,10.1822,10.2003,10.2048,10.2058,10.2192,10.2399,10.2581,10.2923,10.34,10.3801,10.4017,10.4343,10.4677,10.4932,10.5109,10.5472,10.6032,10.6857,10.7449,10.7694,10.8119,10.8271,10.773,10.7657,10.7731,10.7848,10.7928,10.7982,10.8354,10.8513,10.8588,10.8924,10.9709,10.9456,10.8675,10.8678,10.8735,10.8891,10.9052,10.913,10.9175,10.9197,10.9212,10.9137,10.9053,10.896,10.94,10.9885,11.1506,11.3362,11.4688,11.618,11.7799,11.8595,11.9004,11.9341,11.9645,12.023,5.9439,5.966,5.968,6.085,6.2871,6.4742,6.6978,6.9191,6.9958,7.0391,7.078,7.0989,7.1588,7.2601,7.3365,7.455,7.6074,7.7705,7.8774,7.9413,8.035,8.0798,8.1307,8.1784,8.2558,8.2982,8.3513,8.4465,8.5662,8.6704,8.7339,8.8178,8.7139,8.6628,8.5681,8.449,8.3383,8.2444,8.2185,8.31,8.4743,8.6528,8.8371,9.0583,9.1421,9.199,9.2654,9.372,9.4097,9.4481,9.5991,9.7139,9.7744,9.8827,10.0118,10.1102,10.1465,10.1776,10.2003,10.2048,10.2048,10.2103,10.2289,10.2473,10.2781,10.3297,10.3682,10.3997,10.4361,10.4714,10.4914,10.5179,10.5623,10.6155,10.7231,10.823,10.8591,10.8991,10.8618,10.7941,10.7707,10.7768,10.7912,10.7882,10.8146,10.924,10.9784,10.9896,11.0457,11.0906,11.0248,10.9159,10.8931,10.881,10.8851,10.8987,10.9172,10.9295,10.9242,10.9114,10.9091,10.9044,10.9116,10.9647,11.0374,11.2689,11.4938,11.6197,11.7137,11.8136,11.9087,11.9805,12.0383,12.0699,12.1803,5.9367,5.9572,6.0012,6.102,6.2714,6.5658,6.8319,7.0249,7.0481,7.08,7.1169,7.1788,7.2667,7.3731,7.4633,7.6296,7.7663,7.886,7.974,8.0247,8.0696,8.1136,8.1793,8.259,8.357,8.4274,8.5072,8.5962,8.7135,8.7601,8.8178,8.8018,8.6829,8.5925,8.4709,8.2957,8.2252,8.1884,8.289,8.4743,8.703,8.8371,9.0583,9.2292,9.3297,9.3833,9.4303,9.5235,9.547,9.5687,9.6965,9.7685,9.808,9.8942,9.9674,10.0768,10.1325,10.173,10.198,10.2048,10.2048,10.2058,10.2188,10.2372,10.276,10.3297,10.3821,10.4056,10.4379,10.4733,10.5021,10.5266,10.5623,10.6935,10.867,10.8877,10.8121,10.8661,10.9374,10.8635,10.7682,10.7917,10.8865,10.8983,10.9686,11.0884,11.1654,11.1916,11.2215,11.2017,11.1349,10.9915,10.9416,10.9232,10.922,10.9275,10.9371,10.9382,10.9119,10.896,10.8982,10.9078,10.9225,10.9772,11.0675,11.2953,11.5858,11.7207,11.8001,11.892,11.9554,12.0564,12.1581,12.238,12.3362,5.9298,5.9511,6.0778,6.1767,6.2751,6.5784,6.8355,7.0468,7.0651,7.1009,7.1681,7.32,7.415,7.4787,7.7132,7.8442,7.8987,8.0092,8.059,8.0795,8.0829,8.1874,8.2578,8.3397,8.4706,8.6237,8.7191,8.7444,8.8615,8.8551,8.8296,8.7918,8.6402,8.5272,8.4206,8.3024,8.2554,8.3502,8.4834,8.7223,8.9309,9.0281,9.2292,9.39,9.4906,9.5408,9.6012,9.6581,9.6749,9.7079,9.7547,9.7828,9.8316,9.9091,9.9478,10.0058,10.0864,10.1488,10.1958,10.2048,10.2048,10.2103,10.221,10.2407,10.276,10.3359,10.3801,10.413,10.4379,10.4751,10.5091,10.5316,10.5606,10.7386,10.9422,10.9222,10.8277,10.8886,10.9784,10.913,10.8127,10.8809,10.9919,11.0572,11.1152,11.2516,11.3699,11.3924,11.3737,11.3475,11.2599,11.1129,11.0435,11.0029,10.9729,10.9816,10.981,10.9597,10.9288,10.8912,10.897,10.9066,10.9697,11.0449,11.1088,11.2811,11.5711,11.7518,11.8656,11.931,11.9816,12.1067,12.3445,12.4214,12.4943,6.0682,6.0842,6.2236,6.361,6.5226,6.7441,6.9115,7.0491,7.1891,7.2662,7.337,7.4809,7.6,7.7119,7.832,7.9003,8.0156,8.0702,8.0872,8.0872,8.0872,8.1942,8.3205,8.4262,8.5854,8.7041,8.7982,8.845,8.8819,8.8601,8.8357,8.7592,8.5808,8.4761,8.424,8.4097,8.4063,8.605,8.7726,9.0039,9.1722,9.3096,9.4336,9.5643,9.6347,9.6548,9.6984,9.7151,9.7151,9.723,9.751,9.778,9.8189,9.8855,9.9538,10.0118,10.0768,10.1465,10.1913,10.2048,10.209,10.2201,10.2386,10.2689,10.3168,10.3542,10.3916,10.4205,10.4435,10.4787,10.5091,10.5283,10.5839,10.6941,10.8487,10.914,10.8896,11.0607,11.1469,10.9427,10.8524,11.0209,11.1608,11.2077,11.273,11.4287,11.5718,11.5606,11.5457,11.4971,11.4271,11.3102,11.225,11.1461,11.0902,11.0382,10.9889,10.9764,10.9367,10.8887,10.9096,11.0111,11.0637,11.1276,11.2939,11.4645,11.6518,11.7722,11.8878,11.9684,12.0655,12.2813,12.5,12.6113,12.687,6.2214,6.2301,6.388,6.565,6.7431,6.8817,7.0071,7.1335,7.266,7.3867,7.4918,7.6443,7.789,7.8662,7.9242,7.9951,8.0736,8.0872,8.0872,8.0975,8.1589,8.2522,8.3977,8.549,8.6877,8.8051,8.8757,8.9124,8.8878,8.8677,8.8383,8.7517,8.5924,8.4749,8.4825,8.6109,8.6846,8.8974,9.1085,9.2795,9.4577,9.528,9.6045,9.6917,9.7051,9.7051,9.7151,9.7185,9.7236,9.737,9.7621,9.7971,9.8397,9.9143,9.9792,10.0291,10.0971,10.1557,10.1787,10.2067,10.2143,10.2342,10.2546,10.2923,10.3353,10.3778,10.4089,10.4337,10.4509,10.4751,10.5127,10.5335,10.5799,10.6935,10.8819,10.9395,10.9539,11.1362,11.2039,10.9997,10.9811,11.1548,11.2541,11.2937,11.4409,11.6028,11.6829,11.6915,11.6653,11.6205,11.5307,11.4326,11.3288,11.2566,11.1558,11.0241,10.953,11.0186,11.0111,10.9622,11.0336,11.1389,11.2216,11.3465,11.5099,11.6668,11.7556,11.8446,11.9352,12.0949,12.3057,12.5141,12.6373,12.7287,12.8196,6.3826,6.3858,6.5715,6.7551,6.9244,6.9548,7.1013,7.296,7.338,7.4571,7.6491,7.804,7.888,7.9174,8.0087,8.0599,8.0872,8.1043,8.1179,8.1657,8.2612,8.4046,8.5445,8.6707,8.7889,8.9318,8.9606,8.9461,8.9314,8.8615,8.7708,8.6734,8.5931,8.5563,8.6301,8.8966,9.0482,9.1085,9.3532,9.4504,9.5442,9.6313,9.6715,9.7185,9.7185,9.7185,9.7185,9.7185,9.7258,9.7504,9.7807,9.8182,9.8682,9.9554,10.0168,10.0537,10.1231,10.1615,10.173,10.2019,10.2227,10.238,10.2731,10.3111,10.3456,10.3758,10.4127,10.4377,10.4528,10.4751,10.5127,10.5508,10.5857,10.7145,11.0021,11.1163,11.0358,11.1015,11.1245,11.0294,11.1334,11.2721,11.3307,11.4228,11.6038,11.7125,11.789,11.7999,11.77,11.6952,11.5718,11.4625,11.3475,11.2706,11.1754,11.027,10.9877,11.0825,11.1238,11.1163,11.1652,11.2939,11.433,11.573,11.6809,11.7484,11.8347,11.9311,12.066,12.2158,12.4662,12.6542,12.7395,12.8234,12.8877,6.5422,6.5584,6.7365,6.9342,7.1207,7.1695,7.3052,7.4761,7.5071,7.6231,7.8129,7.9507,8.0245,8.0292,8.077,8.094,8.1213,8.1964,8.2352,8.3056,8.4012,8.5479,8.6639,8.7639,8.856,8.9468,8.9679,8.9456,8.9233,8.8059,8.7231,8.6336,8.5409,8.5689,8.6838,8.9838,9.2593,9.3733,9.5442,9.6475,9.6475,9.6978,9.7179,9.7241,9.7236,9.7236,9.7236,9.7264,9.737,9.767,9.8019,9.8416,9.8996,9.9663,10.0404,10.0875,10.1278,10.173,10.1923,10.2166,10.238,10.2632,10.2923,10.3277,10.3678,10.3935,10.4149,10.4416,10.4548,10.4714,10.5127,10.5525,10.5873,10.6909,10.9822,11.0955,11.026,11.1831,11.1677,11.1124,11.2782,11.423,11.4856,11.5641,11.696,11.7517,11.8022,11.8014,11.7614,11.6541,11.5532,11.4502,11.3352,11.261,11.2063,11.1229,11.0632,11.158,11.2291,11.2329,11.3277,11.4743,11.6143,11.6858,11.7524,11.8308,11.9401,12.0757,12.2089,12.3432,12.5325,12.736,12.8182,12.8872,12.9516,6.7089,6.7286,6.9353,7.1086,7.2468,7.3573,7.5065,7.6632,7.686,7.792,7.9631,8.045,8.0872,8.1077,8.1316,8.1759,8.1998,8.3341,8.3875,8.4523,8.5411,8.6639,8.7492,8.8219,8.8902,8.9628,8.9799,8.96,8.882,8.7614,8.6879,8.6473,8.5715,8.6182,8.802,9.1018,9.3632,9.5341,9.6615,9.7264,9.7292,9.7376,9.7404,9.7488,9.7482,9.7482,9.7454,9.7488,9.7676,9.7938,9.8309,9.8734,9.9229,10.0099,10.0696,10.1066,10.1534,10.1867,10.2071,10.2188,10.2402,10.2795,10.3084,10.3353,10.3702,10.3919,10.4152,10.4379,10.4529,10.4751,10.5127,10.5525,10.6093,10.7197,10.8289,10.9239,11.0644,11.3651,11.4254,11.2596,11.3748,11.5442,11.6255,11.6843,11.7281,11.7693,11.7876,11.7804,11.6705,11.5681,11.4773,11.377,11.262,11.1804,11.254,11.213,11.1489,11.2331,11.3202,11.3954,11.4894,11.6331,11.7225,11.7563,11.8183,11.9136,12.0418,12.2059,12.3546,12.4899,12.6506,12.8072,12.881,12.9468,12.9668,6.871,6.9063,7.1571,7.2886,7.3485,7.5229,7.6967,7.8537,7.855,7.9427,8.0599,8.0872,8.0975,8.1508,8.2678,8.3407,8.3454,8.4887,8.5399,8.6048,8.698,8.7799,8.8253,8.9014,8.9696,8.9809,8.9389,8.8799,8.8023,8.7554,8.7038,8.6951,8.6801,8.8425,9.0482,9.2472,9.4689,9.6508,9.718,9.7426,9.7531,9.7642,9.7697,9.7862,9.791,9.7938,9.7938,9.7856,9.7992,9.8222,9.8515,9.8884,9.952,10.0355,10.0864,10.1231,10.1672,10.1958,10.208,10.221,10.2394,10.2689,10.3042,10.3451,10.3682,10.386,10.4091,10.4375,10.451,10.4751,10.5109,10.5545,10.6096,10.7496,10.9187,10.9825,11.1394,11.4528,11.5517,11.4082,11.4578,11.6212,11.7208,11.6541,11.6731,11.6724,11.6882,11.6005,11.5117,11.4335,11.3587,11.3411,11.2225,11.2045,11.2905,11.335,11.3152,11.3666,11.4434,11.5345,11.6369,11.7375,11.8428,11.8832,11.9339,12.0161,12.1234,12.3373,12.522,12.6445,12.7483,12.8532,12.9383,12.9652,12.9668,6.9612,7.1296,7.3251,7.5132,7.6749,7.759,7.8961,8.0394,8.0483,8.0625,8.0847,8.0962,8.1697,8.2968,8.4278,8.5134,8.5202,8.6674,8.7142,8.7641,8.8424,8.9106,8.9253,8.9389,8.9809,8.9809,8.9083,8.8765,8.85,8.8017,8.7249,8.7225,8.833,9.0152,9.2447,9.4284,9.5674,9.7596,9.7697,9.7752,9.7862,9.7856,9.7944,9.7971,9.7938,9.7938,9.7938,9.7965,9.8128,9.8389,9.8655,9.9048,9.9682,10.0414,10.0947,10.1301,10.1695,10.2003,10.2103,10.2333,10.2516,10.2731,10.3099,10.3451,10.3602,10.3841,10.4091,10.4353,10.4473,10.4751,10.5091,10.5425,10.6469,10.8345,11.0381,11.0764,11.1746,11.4861,11.6286,11.5246,11.5432,11.7029,11.6448,11.5979,11.5763,11.573,11.5107,11.4195,11.3402,11.2615,11.2765,11.3774,11.2717,11.2283,11.307,11.3827,11.4627,11.5085,11.5741,11.6595,11.7563,11.8541,11.9396,12.011,12.0674,12.1706,12.3094,12.5014,12.6901,12.7671,12.8428,12.9289,12.9572,12.9647,12.9673,7.1711,7.3296,7.5148,7.6846,7.835,7.9392,8.0418,8.1271,8.1395,8.1269,8.1167,8.1723,8.2609,8.3874,8.6007,8.6809,8.7061,8.8272,8.8818,8.8949,8.9287,8.9765,8.9809,8.9809,8.9809,8.9628,8.9175,8.9072,8.8946,8.8384,8.8289,8.9223,9.0671,9.2393,9.436,9.6003,9.7119,9.7694,9.7965,9.8019,9.8067,9.8121,9.8209,9.8411,9.8438,9.8438,9.8404,9.8411,9.8484,9.8583,9.8881,9.9246,9.9732,10.0341,10.0899,10.1255,10.1684,10.1913,10.2071,10.2421,10.256,10.2767,10.3099,10.3445,10.3537,10.3797,10.4072,10.4241,10.4416,10.5131,10.5962,10.63,10.7677,10.9454,11.1714,11.2005,11.2708,11.5566,11.7029,11.6533,11.6087,11.5456,11.4838,11.4418,11.4125,11.4427,11.4375,11.3971,11.3376,11.3128,11.3999,11.4372,11.3529,11.3059,11.3894,11.4632,11.5668,11.6541,11.7189,11.7638,11.8653,11.9481,12.0223,12.0938,12.2215,12.3672,12.5176,12.66,12.7793,12.8646,12.9443,12.9542,12.9599,12.968,12.9862,7.4274,7.5037,7.6953,7.825,7.9208,8.061,8.1416,8.1672,8.1638,8.1603,8.1825,8.3025,8.3828,8.4953,8.7353,8.8271,8.8719,8.9473,8.9847,8.955,8.9731,8.9809,8.9809,8.9809,8.9809,8.9696,8.9458,8.9731,9.0447,8.9652,8.9965,9.1784,9.3249,9.4735,9.5767,9.7157,9.8046,9.8107,9.8107,9.8209,9.8389,9.8443,9.8617,9.8784,9.8871,9.8871,9.8818,9.8818,9.881,9.8889,9.9133,9.9392,9.9716,10.0192,10.0707,10.1089,10.1418,10.1707,10.1968,10.2377,10.2624,10.271,10.312,10.3342,10.3507,10.3714,10.3896,10.3975,10.4667,10.5673,10.6906,10.7773,10.9266,11.1067,11.2794,11.2972,11.3618,11.6266,11.6482,11.6087,11.4973,11.4156,11.3673,11.3081,11.2761,11.3384,11.3965,11.4169,11.4395,11.5883,11.7001,11.5672,11.4668,11.5062,11.5812,11.6237,11.7123,11.8025,11.8382,11.8653,11.9518,12.0298,12.1013,12.2695,12.4029,12.5533,12.6678,12.7732,12.873,12.9302,12.9487,12.9554,12.9707,12.9897,13.0127,7.5642,7.6629,7.8374,7.972,8.0752,8.1382,8.1679,8.1775,8.1864,8.2417,8.3226,8.3819,8.5264,8.7145,8.8392,8.9242,9.0139,9.0219,9.0238,8.9918,8.9799,8.9809,8.9809,8.9809,8.9935,8.9901,8.9413,8.9949,9.222,9.2586,9.3073,9.3978,9.5298,9.6295,9.6695,9.7944,9.8526,9.8765,9.8765,9.8757,9.881,9.8802,9.8863,9.8923,9.8923,9.8923,9.8923,9.8923,9.8923,9.895,9.9028,9.9125,9.9444,9.9893,10.0281,10.0599,10.0899,10.1255,10.1718,10.2245,10.2603,10.2646,10.312,10.3342,10.3445,10.3527,10.3729,10.4245,10.526,10.6739,10.7904,10.8829,11.064,11.2504,11.3673,11.4403,11.5277,11.583,11.6084,11.4787,11.397,11.3339,11.3153,11.2734,11.3729,11.4414,11.5494,11.5601,11.641,11.8074,11.8852,11.7298,11.6737,11.7308,11.7257,11.7607,11.8071,11.8964,11.9387,11.9847,12.0533,12.1407,12.3287,12.5073,12.6286,12.7002,12.8021,12.9091,12.9266,12.9385,12.9556,12.9847,13.0421,13.068,13.115,7.7166,7.811,7.9213,8.0316,8.1205,8.1534,8.2217,8.3037,8.3161,8.3867,8.5026,8.6014,8.727,8.8525,8.9532,9.0248,9.0632,9.0655,9.0355,9.0026,8.987,8.9809,8.9809,8.9809,9.0208,9.071,9.1051,9.2381,9.4062,9.4428,9.4658,9.5409,9.6151,9.7004,9.7755,9.854,9.8821,9.8923,9.8923,9.8923,9.8923,9.8923,9.8923,9.8923,9.8923,9.8923,9.8923,9.8923,9.8923,9.8923,9.8923,9.9081,9.9315,9.9589,9.9893,10.0291,10.0682,10.1113,10.1626,10.2099,10.2516,10.2646,10.2958,10.3224,10.3363,10.3445,10.3629,10.4314,10.5729,10.7607,10.9537,11.0609,11.2245,11.4079,11.5002,11.5295,11.561,11.5909,11.4511,11.2596,11.3228,11.3748,11.319,11.3962,11.4771,11.5767,11.6885,11.7628,11.8275,11.9739,12.1228,12.0086,11.9552,11.9278,11.8194,11.834,11.8616,11.9641,12.0364,12.1116,12.2009,12.354,12.5355,12.6879,12.7785,12.8472,12.9192,12.9304,12.9392,12.9504,13.022,13.0935,13.1281,13.1869,13.2632,7.8337,7.9155,7.9628,8.0518,8.159,8.1912,8.3176,8.4739,8.4864,8.5667,8.6981,8.8356,8.8867,8.9598,9.0861,9.1163,9.0939,9.0769,9.0517,9.0191,9.0458,9.0427,9.0607,9.0948,9.1767,9.2849,9.3771,9.4565,9.5213,9.517,9.6151,9.6799,9.7107,9.7584,9.8506,9.8923,9.8923,9.8923,9.8923,9.8923,9.8923,9.8923,9.8923,9.8923,9.8923,9.8923,9.8923,9.8923,9.8923,9.8923,9.8923,9.9055,9.9185,9.9263,9.9572,10.0028,10.0512,10.0994,10.1511,10.1987,10.235,10.2624,10.2895,10.3126,10.3307,10.3425,10.3879,10.4617,10.6158,10.8273,11.1896,11.2025,11.3356,11.4558,11.5096,11.4815,11.4352,11.451,11.4106,11.2782,11.3673,11.4551,11.5233,11.5942,11.6854,11.789,11.9618,12.0999,12.1016,12.1827,12.2542,12.2148,12.1762,12.0267,11.9033,11.9029,11.9726,12.0909,12.1896,12.2694,12.3964,12.5571,12.6762,12.784,12.8787,12.929,12.9392,12.9436,12.9745,13.0479,13.1265,13.2049,13.2952,13.3844,13.4493,7.7997,7.9165,7.9434,8.0927,8.2905,8.3356,8.4556,8.6229,8.6375,8.7221,8.8573,8.8837,8.9877,9.0744,9.1252,9.1321,9.1245,9.1031,9.0885,9.0686,9.1377,9.1747,9.224,9.3181,9.4512,9.581,9.6159,9.691,9.7661,9.8267,9.7892,9.8404,9.8506,9.8608,9.8813,9.8923,9.8923,9.8923,9.8923,9.8923,9.8923,9.8923,9.8923,9.8923,9.8923,9.8923,9.8923,9.8923,9.8923,9.8923,9.8923,9.8976,9.9002,9.9028,9.9203,9.9767,10.0291,10.0744,10.129,10.1852,10.2328,10.2603,10.2873,10.3141,10.3414,10.3603,10.4364,10.5382,10.679,10.8492,11.1714,11.2388,11.2901,11.3569,11.2963,11.2418,11.2577,11.3856,11.4636,11.4106,11.522,11.6593,11.7313,11.8775,11.9298,12.0274,12.2711,12.4257,12.3757,12.3692,12.2855,12.234,12.1337,11.9979,11.9744,11.9836,12.1365,12.2559,12.3586,12.4546,12.5713,12.667,12.7379,12.8574,12.9222,12.947,12.9643,13.0035,13.07,13.148,13.2347,13.3509,13.4629,13.5737,13.5591,7.8161,7.9665,8.0361,8.1938,8.3877,8.4762,8.6058,8.7534,8.7858,8.8824,9.0003,9.0246,9.0684,9.1378,9.1378,9.1378,9.1334,9.1245,9.1377,9.1883,9.2172,9.2919,9.3745,9.5782,9.7244,9.7653,9.7823,9.8165,9.8745,9.8855,9.895,9.8923,9.8889,9.895,9.8923,9.8923,9.895,9.895,9.8923,9.8923,9.8923,9.8923,9.8923,9.8923,9.8923,9.8923,9.8923,9.8923,9.8923,9.8923,9.8923,9.895,9.895,9.895,9.9133,9.9546,9.9993,10.0537,10.1042,10.1614,10.2143,10.2581,10.2746,10.3036,10.3372,10.426,10.5201,10.6335,10.8044,11.0031,11.3037,11.3023,11.2828,11.3203,11.311,11.2602,11.2452,11.3639,11.5064,11.6259,11.7721,11.8984,12.0469,12.266,12.3521,12.3464,12.5804,12.5439,12.5003,12.3624,12.2919,12.1675,12.0731,12.0427,12.0375,12.1376,12.2888,12.4064,12.5093,12.617,12.7103,12.7597,12.8004,12.8625,12.9312,12.9592,13.0407,13.0971,13.1568,13.2898,13.4158,13.5083,13.6083,13.7106,13.7182,7.8597,8.0169,8.148,8.3196,8.5035,8.6115,8.7499,8.9154,8.9431,9.0142,9.1101,9.1343,9.1343,9.1378,9.1378,9.1378,9.1356,9.1425,9.1856,9.2921,9.2879,9.4214,9.6284,9.8037,9.9152,9.8978,9.8994,9.8968,9.8916,9.895,9.8976,9.9028,9.9055,9.902,9.9133,9.9211,9.9133,9.9107,9.9055,9.9055,9.9089,9.9002,9.8923,9.8923,9.8923,9.8923,9.8923,9.8923,9.8923,9.8923,9.8923,9.8923,9.895,9.9002,9.9185,9.9521,9.9943,10.0439,10.0947,10.1546,10.2118,10.3091,10.3476,10.3555,10.4347,10.5714,10.6571,10.7769,10.9656,11.1801,11.3806,11.3129,11.2883,11.3169,11.3246,11.2984,11.351,11.5116,11.7434,11.9105,12.1212,12.2906,12.3351,12.5594,12.6341,12.711,12.6975,12.6373,12.5078,12.356,12.2146,12.0532,12.0213,12.0818,12.1263,12.2686,12.4176,12.549,12.6551,12.7602,12.8255,12.8803,12.8668,12.8958,12.9571,13.0425,13.1378,13.2004,13.3222,13.471,13.6121,13.6803,13.7523,13.8469,13.8924,7.9512,8.0243,8.2349,8.453,8.6535,8.7517,8.8844,9.0479,9.0851,9.1135,9.1343,9.1378,9.1378,9.1378,9.1378,9.1378,9.1378,9.1378,9.1542,9.2261,9.405,9.6415,9.8736,9.956,9.9503,9.9315,9.9289,9.9185,9.9081,9.9002,9.9047,9.9237,9.9289,9.9384,9.9512,9.9589,9.964,9.9538,9.9332,9.9237,9.9211,9.9089,9.895,9.8923,9.8923,9.8923,9.8923,9.8923,9.8923,9.8923,9.8923,9.8923,9.8942,9.9159,9.9392,9.9665,10.0093,10.0599,10.1149,10.1779,10.2769,10.4259,10.484,10.5774,10.6992,10.7796,10.8721,10.9974,11.1042,11.2398,11.3678,11.3176,11.2938,11.3225,11.2493,11.3439,11.6009,11.9353,12.2056,12.3849,12.4123,12.5274,12.6151,12.6945,12.7153,12.6883,12.6275,12.5254,12.3741,12.2635,12.1294,12.0035,12.0513,12.1154,12.267,12.4063,12.5559,12.6851,12.7868,12.8396,12.9047,12.9486,12.9358,12.9901,13.1083,13.1944,13.2721,13.3891,13.5067,13.6381,13.7257,13.8091,13.8805,13.9373,13.96,8.0408,8.2265,8.3992,8.5908,8.7724,8.8844,8.9817,9.0735,9.1165,9.1378,9.1378,9.1378,9.1378,9.1378,9.1378,9.1378,9.1378,9.1378,9.1378,9.1854,9.4339,9.7198,9.9427,10.0018,9.9792,9.9598,9.9538,9.9461,9.9409,9.9409,9.9435,9.9572,9.9538,9.9614,9.9732,9.9741,9.9741,9.9691,9.9495,9.9315,9.9289,9.9081,9.895,9.8923,9.8923,9.8923,9.8923,9.8923,9.8923,9.8923,9.8923,9.8923,9.895,9.9219,9.9366,9.9495,9.9993,10.0512,10.1134,10.2305,10.3528,10.4839,10.6198,10.7178,10.8269,10.9452,11.022,11.134,11.2218,11.3118,11.3863,11.3853,11.3555,11.3508,11.46,11.6599,11.926,12.1788,12.397,12.5484,12.6166,12.6448,12.6931,12.7079,12.6758,12.6106,12.5425,12.3923,12.2493,12.1612,12.0806,12.0834,12.1133,12.2848,12.447,12.5759,12.7227,12.8127,12.892,12.8927,12.9592,13.0249,13.0483,13.1185,13.2481,13.369,13.4763,13.5885,13.6868,13.7555,13.8237,13.8924,13.9184,13.96,13.96,8.173,8.381,8.5455,8.6977,8.8307,8.9466,9.018,9.0644,9.1076,9.1255,9.1378,9.1378,9.1378,9.1378,9.1378,9.1378,9.1378,9.1378,9.1378,9.1807,9.4477,9.7075,9.8661,9.9708,10.0068,9.9842,9.9817,9.9792,9.9741,9.9691,9.9741,9.9842,9.9842,9.9868,9.9909,9.9993,9.9909,9.9918,9.97,9.9521,9.9444,9.9185,9.9028,9.895,9.8923,9.8923,9.8923,9.8923,9.8923,9.8923,9.8923,9.8923,9.8976,9.9263,9.9435,9.9538,10.0028,10.0675,10.1702,10.2968,10.4572,10.6052,10.7707,10.8783,10.9619,11.1018,11.1714,11.2183,11.2969,11.388,11.4115,11.4336,11.42,11.3993,11.5447,11.8008,12.0852,12.3424,12.5382,12.6738,12.705,12.7005,12.7005,12.6723,12.6046,12.512,12.4145,12.2964,12.225,12.1445,12.1396,12.151,12.3024,12.4779,12.6307,12.7606,12.8631,12.9531,12.972,12.9796,13.0302,13.0981,13.1593,13.2575,13.3978,13.5,13.627,13.7418,13.8246,13.8957,13.9297,13.9222,13.9487,13.96,13.96,8.3533,8.4238,8.641,8.7657,8.8323,8.9115,8.9897,9.054,9.0883,9.1155,9.1334,9.1356,9.1378,9.1378,9.1378,9.1378,9.1378,9.1378,9.1378,9.2327,9.4316,9.613,9.7123,9.9365,10.0247,10.0118,10.0093,9.9934,9.9808,9.9783,9.9868,10.0068,10.0093,10.0192,10.0331,10.0429,10.0414,10.0331,10.0143,9.9893,9.9656,9.9409,9.9185,9.8942,9.895,9.8923,9.895,9.8976,9.895,9.8923,9.8923,9.8923,9.9028,9.9409,9.97,9.9897,10.0484,10.1735,10.3106,10.4233,10.5742,10.8542,10.9658,11.0933,11.2145,11.2831,11.3262,11.3396,11.3777,11.4059,11.4136,11.4333,11.4497,11.4605,11.5159,11.7256,12.0839,12.44,12.6155,12.6823,12.7049,12.7079,12.6857,12.578,12.5126,12.4283,12.2565,12.2291,12.1855,12.2011,12.2003,12.3658,12.5843,12.749,12.8957,13.0072,13.0392,13.0918,13.0755,13.0883,13.1246,13.1774,13.2348,13.3987,13.546,13.634,13.7353,13.8319,13.9213,13.953,13.9557,13.9563,13.96,13.96,13.96,8.4251,8.5423,8.6879,8.7764,8.8298,8.9099,8.9778,9.0355,9.0804,9.1008,9.1178,9.1255,9.1378,9.1378,9.1378,9.1378,9.1378,9.1378,9.1864,9.3078,9.4975,9.6396,9.7575,9.9541,10.0429,10.039,10.0365,10.0281,10.0183,10.0183,10.0267,10.0341,10.0365,10.0439,10.0478,10.0478,10.0478,10.0453,10.0242,10.0043,9.9927,9.9546,9.9255,9.9185,9.9028,9.895,9.895,9.9107,9.9107,9.8976,9.8923,9.8923,9.8976,9.9444,10.0189,10.1065,10.1989,10.3099,10.4843,10.615,10.7892,10.9417,11.0871,11.2143,11.3063,11.3562,11.3777,11.3901,11.4039,11.4079,11.4079,11.4196,11.4372,11.4517,11.4729,11.6563,12.0144,12.4027,12.623,12.6842,12.6922,12.653,12.5936,12.4977,12.4457,12.3371,12.2315,12.2203,12.2479,12.2651,12.4408,12.633,12.8359,13.0009,13.1536,13.2052,13.2292,13.2076,13.1893,13.2076,13.2454,13.2982,13.3889,13.5565,13.6857,13.7771,13.81,13.9113,13.9517,13.9571,13.9579,13.959,13.96,13.96,13.96,8.5023,8.6347,8.7138,8.7745,8.8203,8.8951,8.962,9.0121,9.054,9.0815,9.0974,9.1165,9.1277,9.1321,9.1378,9.1378,9.1413,9.1933,9.2649,9.3841,9.5691,9.7159,9.8293,9.9749,10.0478,10.0478,10.0478,10.0478,10.0478,10.0478,10.0478,10.0478,10.0478,10.0478,10.0478,10.0478,10.0478,10.0488,10.0281,10.0168,10.0068,9.9776,9.9512,9.9435,9.9289,9.9185,9.9211,9.9366,9.9315,9.9115,9.9081,9.9028,9.9157,9.9881,10.0911,10.2039,10.3223,10.4731,10.6405,10.7941,10.9174,11.0409,11.1653,11.2768,11.3386,11.3626,11.3834,11.4039,11.4079,11.4079,11.4079,11.4079,11.416,11.4389,11.4553,11.5951,11.8936,12.2157,12.4739,12.6245,12.6391,12.6084,12.555,12.422,12.3774,12.3246,12.2836,12.296,12.3649,12.4536,12.6251,12.8739,13.0538,13.2303,13.3436,13.4162,13.3793,13.3194,13.3241,13.3441,13.3979,13.4606,13.5777,13.706,13.8201,13.892,13.9139,13.9392,13.9466,13.9523,13.9577,13.9573,13.9595,13.96,13.96,8.6048,8.6718,8.7244,8.7641,8.7972,8.8719,8.9329,8.9836,9.0121,9.0494,9.0838,9.0951,9.1121,9.1334,9.1356,9.1425,9.1693,9.279,9.3645,9.4304,9.6766,9.8084,9.8466,9.9853,10.0478,10.0478,10.0478,10.0478,10.0478,10.0478,10.0478,10.0478,10.0478,10.0478,10.0478,10.0478,10.0478,10.0478,10.0488,10.0365,10.0143,10.0068,9.9918,9.9707,9.9741,9.9716,9.9682,9.9682,9.9589,9.9366,9.9315,9.9245,9.9304,10.0817,10.2065,10.2693,10.445,10.6376,10.7888,10.8851,11.0081,11.1459,11.2336,11.2848,11.3364,11.3605,11.3813,11.3998,11.4059,11.4079,11.4079,11.4079,11.41,11.412,11.4392,11.5359,11.7359,11.9227,12.1754,12.5075,12.5563,12.5327,12.5832,12.4665,12.3514,12.398,12.3654,12.3469,12.4964,12.6809,12.881,13.0861,13.2783,13.416,13.5267,13.6081,13.5103,13.4423,13.454,13.4775,13.5276,13.623,13.7362,13.7929,13.9024,13.9153,13.9298,13.9342,13.9413,13.9448,13.953,13.9577,13.9573,13.96,13.96,8.6081,8.6718,8.7251,8.7581,8.792,8.8492,8.9068,8.9524,8.9836,9.011,9.0437,9.085,9.1008,9.1121,9.1277,9.1719,9.246,9.3117,9.4535,9.645,9.7632,9.8685,9.968,10.0235,10.0478,10.0478,10.0478,10.0478,10.0478,10.0478,10.0478,10.0478,10.0478,10.0478,10.0478,10.0478,10.0478,10.0478,10.0478,10.0453,10.0355,10.0192,10.0043,10.0018,10.0192,10.0158,9.9993,9.9968,9.9902,9.964,9.9589,9.9538,9.9615,10.1264,10.3159,10.5136,10.6424,10.7822,10.9376,11.0057,11.0783,11.1885,11.2131,11.2498,11.3191,11.345,11.3626,11.3798,11.3942,11.4079,11.4079,11.4079,11.4079,11.412,11.4352,11.5261,11.7041,11.8931,12.1242,12.3613,12.4963,12.5629,12.5498,12.4554,12.4346,12.4643,12.4636,12.5021,12.6603,12.8593,13.0541,13.2343,13.4515,13.5552,13.606,13.5711,13.4783,13.5329,13.5667,13.5961,13.6519,13.7632,13.8571,13.8948,13.9183,13.9198,13.9267,13.9343,13.9378,13.9415,13.9467,13.9548,13.96,13.9595,13.9573,8.5975,8.6418,8.7171,8.7562,8.7798,8.8365,8.8794,8.9142,8.9524,8.9802,9.0087,9.0517,9.0724,9.0884,9.1596,9.231,9.303,9.425,9.5794,9.7509,9.8478,9.9396,10.0296,10.0488,10.0478,10.0478,10.0478,10.0478,10.0478,10.0478,10.0478,10.0478,10.0478,10.0478,10.0478,10.0478,10.0478,10.0478,10.0478,10.0478,10.0453,10.0306,10.0207,10.0242,10.0439,10.0404,10.0267,10.0242,10.0118,9.9902,9.9868,9.9817,9.9904,10.1366,10.3702,10.6554,10.7961,10.9019,11.0131,11.0669,11.119,11.1779,11.1991,11.2452,11.3104,11.3421,11.3598,11.3834,11.4054,11.4079,11.4079,11.4079,11.4079,11.41,11.4293,11.487,11.6271,11.7922,11.9685,12.1459,12.3943,12.5658,12.5498,12.5088,12.5051,12.5526,12.5808,12.637,12.7558,12.9215,13.1132,13.2983,13.432,13.5245,13.5782,13.5415,13.543,13.6279,13.6939,13.7258,13.7574,13.8568,13.8845,13.9147,13.9167,13.9183,13.9191,13.9267,13.9313,13.9354,13.9422,13.9479,13.9556,13.9584,13.9568,8.5722,8.6012,8.7022,8.7643,8.7742,8.8598,8.8871,8.9199,8.9379,8.9694,8.9993,9.0108,9.0343,9.078,9.2039,9.2877,9.3472,9.5877,9.7208,9.767,9.9159,10.0034,10.0093,10.0331,10.0453,10.0429,10.0453,10.0478,10.0478,10.0478,10.0478,10.0453,10.0488,10.0453,10.0404,10.0404,10.0429,10.0404,10.0404,10.0463,10.0453,10.0453,10.0439,10.038,10.0488,10.0453,10.0453,10.0512,10.0355,10.0118,10.0118,10.0018,9.992,10.1229,10.3521,10.6519,10.876,10.9986,11.009,11.0678,11.119,11.1564,11.1932,11.2588,11.3292,11.3464,11.364,11.4054,11.4059,11.4079,11.4079,11.4079,11.4079,11.4079,11.4136,11.4284,11.4763,11.6457,11.7491,11.8841,12.1803,12.4421,12.6478,12.5742,12.5831,12.6589,12.715,12.7292,12.7728,12.9174,13.1135,13.2737,13.3723,13.421,13.5663,13.6287,13.6881,13.7339,13.7765,13.8643,13.8917,13.9066,13.9111,13.9155,13.9122,13.9126,13.9159,13.9191,13.9214,13.8791,13.8749,13.8496,13.8083,13.8962,13.8853,8.6138,8.7268,8.7781,8.9019,9.0612,9.1113,9.1514,9.1782,9.0893,9.0718,9.085,9.0194,9.0379,9.1141,9.1567,9.3054,9.4983,9.6048,9.7149,9.8441,9.9178,9.9674,9.9877,10.0093,10.0217,10.0242,10.038,10.0478,10.0478,10.0478,10.038,10.0242,10.0217,10.0118,9.9934,9.9934,9.9909,9.9909,9.9909,10.0009,10.0168,10.0009,9.9934,9.9968,10.0083,10.0217,10.0217,10.0439,10.0453,10.039,10.0414,10.0355,10.0351,10.177,10.3482,10.5473,10.8134,10.9811,11.0021,11.0194,11.0628,11.1249,11.1577,11.2131,11.2825,11.3314,11.3598,11.3834,11.3998,11.4079,11.4079,11.4079,11.4079,11.4079,11.4079,11.4244,11.4727,11.6201,11.7471,11.8493,12.1217,12.4048,12.4891,12.5832,12.6411,12.702,12.7248,12.7338,12.7594,12.9005,13.0859,13.2719,13.4323,13.525,13.5888,13.6662,13.7178,13.7548,13.8194,13.8762,13.8859,13.8945,13.9048,13.9021,13.902,13.9027,13.9134,13.9047,13.9026,13.7763,13.659,13.5898,13.6345,13.6079,13.6137,8.7184,8.8737,8.8997,9.0093,9.1524,9.1957,9.2375,9.2741,9.2009,9.1479,9.1164,9.0929,9.1105,9.1737,9.2481,9.3679,9.5445,9.6389,9.7314,9.8248,9.8716,9.9056,9.9315,9.964,9.9927,10.0093,10.0267,10.038,10.0488,10.0414,10.0217,10.0003,9.9852,9.9691,9.9598,9.9401,9.9401,9.9529,9.9563,9.9512,9.9401,9.9238,9.9298,9.9538,9.9691,9.9817,9.9968,10.0183,10.0341,10.0365,10.0429,10.0478,10.0512,10.1994,10.3208,10.4119,10.6383,10.8056,10.8864,10.9621,11.0245,11.0794,11.1225,11.1755,11.2533,11.306,11.3471,11.3673,11.3839,11.3998,11.4059,11.4079,11.4079,11.4079,11.4079,11.4224,11.4618,11.5583,11.6469,11.7393,11.9806,12.1905,12.3213,12.4837,12.6211,12.7057,12.719,12.7253,12.7324,12.8283,12.9805,13.1608,13.3329,13.4627,13.5635,13.6231,13.7213,13.8104,13.8493,13.8537,13.8574,13.867,13.8772,13.8839,13.885,13.8955,13.9075,13.9018,13.8931,13.8149,13.6616,13.5154,13.4605,13.4624,13.3859,8.8491,9.0079,9.0441,9.0968,9.1776,9.2087,9.2456,9.2793,9.2772,9.2204,9.1498,9.2016,9.2299,9.2566,9.401,9.4823,9.5186,9.6732,9.7442,9.7553,9.8012,9.8287,9.8383,9.8825,9.934,9.9642,9.9767,9.9916,10.0355,10.0192,9.9977,9.9691,9.9221,9.8963,9.892,9.8608,9.8711,9.9177,9.8885,9.8446,9.7928,9.7928,9.8167,9.874,9.8792,9.9015,9.9296,9.9686,9.9905,10.0068,10.0281,10.0404,10.0543,10.1746,10.2603,10.2846,10.4069,10.5421,10.7033,10.8621,10.9576,11.0129,11.0563,11.1269,11.2211,11.2616,11.2984,11.3548,11.3694,11.3839,11.4075,11.4079,11.4079,11.4079,11.4079,11.4224,11.4578,11.4657,11.4977,11.5745,11.774,11.9412,12.1792,12.3576,12.5157,12.6879,12.7116,12.7131,12.7248,12.7491,12.8227,12.9767,13.1219,13.2772,13.4609,13.651,13.7448,13.8034,13.8182,13.8218,13.8228,13.8298,13.84,13.8579,13.8653,13.8782,13.8907,13.8964,13.8917,13.8139,13.6992,13.5805,13.4646,13.3972,13.2897,8.9714,9.1374,9.1611,9.2655,9.4089,9.4589,9.4965,9.5215,9.4236,9.3627,9.3388,9.3576,9.3653,9.3686,9.4042,9.4835,9.5862,9.6348,9.6658,9.6853,9.7158,9.6852,9.6193,9.6839,9.7261,9.7414,9.7817,9.8661,9.9755,9.9808,9.9665,9.9255,9.7721,9.6863,9.66,9.6547,9.709,9.8039,9.5592,9.4224,9.4296,9.4481,9.4671,9.4828,9.5094,9.5929,9.7218,9.7591,9.8333,9.9654,9.9868,9.9858,9.9918,10.0228,10.1054,10.2336,10.2845,10.3717,10.5351,10.5914,10.6753,10.8183,10.8782,10.9911,11.1648,11.1076,11.1203,11.2962,11.3419,11.3726,11.3946,11.4079,11.4079,11.4079,11.4079,11.4236,11.4494,11.4597,11.4957,11.5719,11.7379,11.9359,12.1518,12.3339,12.4919,12.6448,12.7034,12.6974,12.7004,12.7019,12.7109,12.7904,12.8927,13.0703,13.2688,13.4543,13.6197,13.7769,13.7971,13.8022,13.8072,13.817,13.8301,13.8378,13.8471,13.8558,13.8772,13.8849,13.8399,13.7457,13.6172,13.4419,13.3013,13.1983,13.0497,9.0688,9.177,9.2541,9.353,9.4615,9.5071,9.555,9.5834,9.4663,9.4186,9.4156,9.4156,9.4186,9.4186,9.4186,9.4614,9.5338,9.5635,9.5875,9.6017,9.6419,9.6446,9.6087,9.5876,9.6057,9.638,9.5903,9.6199,9.7198,9.7004,9.6791,9.6576,9.5438,9.4585,9.4279,9.4084,9.4521,9.5302,9.3383,9.2417,9.2546,9.2741,9.2841,9.2981,9.3298,9.4296,9.6023,9.644,9.7098,9.8082,9.8244,9.7978,9.736,9.7317,9.7795,9.8872,9.8965,9.9686,10.1412,10.2273,10.3826,10.6241,10.688,10.748,10.8127,10.8221,10.8942,11.0489,11.1716,11.249,11.2799,11.3606,11.4079,11.4079,11.4079,11.4252,11.4452,11.4614,11.492,11.5487,11.6585,11.8128,12.0201,12.1348,12.2685,12.443,12.5363,12.6027,12.673,12.655,12.6591,12.7478,12.8275,12.9983,13.2696,13.4006,13.5294,13.7158,13.7495,13.7643,13.7829,13.7881,13.8022,13.8157,13.8205,13.8275,13.8471,13.8552,13.823,13.7234,13.6091,13.4574,13.3069,13.1644,13.1012,9.089,9.1329,9.2523,9.3292,9.3765,9.4262,9.4753,9.5275,9.4064,9.3534,9.3566,9.3823,9.3921,9.3921,9.4177,9.4275,9.4306,9.4859,9.5101,9.5128,9.5786,9.6208,9.6366,9.5102,9.4892,9.5503,9.3916,9.3469,9.4098,9.3707,9.338,9.3328,9.2897,9.2432,9.1981,9.1735,9.178,9.2117,9.1957,9.1741,9.1575,9.1603,9.1641,9.1653,9.1829,9.2835,9.4643,9.5326,9.5718,9.5744,9.6157,9.5741,9.4336,9.4029,9.4044,9.4268,9.3941,9.4465,9.6211,9.7608,9.9822,10.2868,10.4236,10.4176,10.2792,10.4631,10.6339,10.7307,10.9212,11.0519,11.1046,11.2386,11.3173,11.3321,11.3357,11.351,11.356,11.3978,11.4427,11.4741,11.5389,11.6608,11.8516,11.9136,12.0032,12.1628,12.3086,12.4343,12.5545,12.5698,12.6131,12.7612,12.8122,12.9583,13.2014,13.3335,13.411,13.625,13.6603,13.6768,13.743,13.764,13.7799,13.7947,13.801,13.8085,13.817,13.8194,13.8203,13.816,13.6915,13.5671,13.4518,13.3316,13.275,8.864,8.8765,8.9269,9.0193,9.1283,9.2,9.2956,9.3833,0.0,0.0,0.0,9.1542,9.2182,9.228,9.3631,9.4275,9.4275,9.4398,9.446,9.446,9.5098,9.4834,9.3765,9.3016,9.2751,9.2935,9.1747,9.1778,9.2967,9.2895,9.2734,9.2446,9.1194,9.0385,9.0089,9.0035,9.0453,9.1191,9.1399,9.0888,8.9763,8.9917,8.9483,8.836,8.838,8.9205,9.0906,9.2285,9.3144,9.3358,9.4488,9.4515,9.3102,9.1935,9.1357,9.1546,8.9527,8.9116,9.0836,9.0512,9.1502,9.4503,9.8872,10.0231,9.7545,10.0358,10.3074,10.5082,10.7116,10.8491,10.9061,10.9663,11.0023,11.0253,11.0272,11.0308,11.0458,11.1726,11.2845,11.3156,11.4609,11.6385,11.8225,11.8602,11.9363,12.0947,12.1549,12.2331,12.3617,12.3757,12.431,12.6103,12.6527,12.7132,12.9245,13.0065,13.1159,13.4189,13.4905,13.5553,13.6968,13.7565,13.7708,13.7783,13.7972,13.8009,13.8047,13.8109,13.817,13.8072,13.6915,13.5879,13.5668,13.5294,13.4751,8.7157,8.6586,8.7472,8.8327,0.0,8.9652,8.9079,8.7723,8.6477,8.65,8.7357,8.8981,9.0256,9.1306,9.2108,9.2974,9.3746,9.3903,9.3996,9.3996,9.4521,9.4556,9.4199,9.3092,9.2745,9.2843,9.0717,9.002,9.0585,8.9811,8.9283,8.9179,8.8549,8.811,8.787,8.8739,8.9806,9.0972,9.1054,9.081,9.0117,8.9536,8.892,8.8193,8.7595,0.0,0.0,0.0,0.0,0.0,0.0,0.0,0.0,0.0,0.0,8.491,8.2779,8.1783,8.2223,8.3209,8.4853,8.739,9.1558,9.2687,8.9302,9.4085,9.8124,10.0269,10.2554,10.3989,10.4444,10.6326,10.7653,10.7887,10.8705,10.9272,10.9533,11.0475,11.1481,11.2391,11.3626,11.5055,11.6874,11.7179,11.761,11.8429,11.9254,12.0083,12.0764,12.0897,12.1817,12.4165,12.5138,12.6732,12.9204,12.9367,12.9762,13.215,13.3017,13.3574,13.4676,13.5575,13.6175,13.6445,13.7185,13.7735,13.7789,13.7802,13.7802,13.7754,13.7246,13.6437,13.4759,13.5171,13.5493,8.5076,8.3947,8.5045,8.5706,8.599,8.583,8.3946,8.1015,8.1599,8.2654,8.4034,8.5831,8.7441,8.8926,8.9819,9.1,9.2279,9.2884,9.3268,9.3526,9.3965,9.4462,9.4851,9.3567,9.3059,9.3066,9.0369,8.9004,8.8877,8.7505,8.6707,8.644,8.6663,8.6526,8.6225,0.0,0.0,0.0,9.1499,9.1634,9.1338,8.999,8.9103,8.8807,8.764,0.0,8.8695,8.9476,8.9591,8.9034,8.947,0.0,0.0,0.0,0.0,0.0,0.0,0.0,0.0,0.0,0.0,0.0,8.2055,8.2654,8.0769,8.6743,9.1999,9.488,9.7418,9.9104,9.9649,10.2613,10.4604,10.4884,10.6254,10.7314,10.7579,10.8445,10.9556,11.0881,11.2224,11.3635,11.4951,11.5531,11.5818,11.6089,11.7005,11.7881,11.8074,11.8373,11.9402,12.1694,12.3613,12.5977,12.9173,12.8601,12.8629,13.0525,13.1122,13.1461,13.2325,13.3508,13.4304,13.4449,13.5581,13.6496,13.6786,13.6697,13.6413,13.6842,13.6726,13.5959,13.3513,13.4115,13.5251,8.0883,7.9743,7.9897,7.9959,7.9928,7.823,7.74,7.7156,7.7554,7.789,7.826,8.1387,8.2505,8.2389,8.63,8.8327,8.8801,9.0424,9.18,9.2858,9.3495,9.3777,9.3838,9.2814,9.2249,9.2214,9.0623,8.9845,8.9783,8.9591,8.8842,8.7699,8.7663,8.7153,8.6267,8.881,9.0456,9.0977,9.3443,9.4133,9.2854,9.1437,9.0089,8.8872,8.7481,8.6844,8.7075,8.9445,8.9464,8.6849,8.898,8.8314,8.4006,8.0062,7.6585,0.0,6.7649,0.0,0.0,0.0,0.0,0.0,0.0,0.0,0.0,7.8542,8.432,9.0758,9.3274,9.5283,9.7229,9.8158,9.8926,9.9508,10.0164,10.0645,10.0937,10.3756,10.5888,10.607,11.0132,11.3006,11.3298,11.4502,11.5431,11.5571,11.5826,11.6044,11.6134,11.7318,11.8429,11.8986,12.0662,12.2643,12.4461,12.5657,12.6958,12.8654,12.9063,13.0027,13.1483,13.2244,13.2689,13.2832,13.3145,13.3535,13.4103,13.3686,13.354,13.4391,13.3863,13.3139,13.2576,13.2793,13.3699,7.7165,7.6681,7.6651,7.4488,7.099,7.0484,7.0425,7.0694,7.1228,7.1888,7.2677,7.455,7.6398,7.8338,8.1026,8.3341,8.535,8.7087,8.8706,9.0172,9.0675,9.1078,9.1383,9.0952,9.0751,9.0718,9.0104,8.969,8.9478,8.9448,8.8734,8.7343,8.7457,8.6584,8.487,8.6762,8.8879,9.0944,9.2986,9.4136,9.4265,9.2095,9.0648,8.999,8.7881,8.6664,8.6724,8.7947,8.7808,8.623,8.6585,8.4774,8.0238,7.574,7.0955,0.0,0.0,0.0,0.0,0.0,0.0,0.0,0.0,0.0,0.0,0.0,7.615,8.1399,8.5642,8.8862,9.0768,9.1486,9.2086,9.2549,9.3756,9.4778,9.5199,9.8487,10.1477,10.3339,10.6504,10.9333,11.1243,11.2882,11.3938,11.4135,11.4152,11.4222,11.4558,11.5906,11.7385,11.8297,11.9153,12.0196,12.1793,12.2675,12.3514,12.4449,12.4713,12.5372,12.7296,12.8608,12.9657,13.0623,13.1567,13.2266,13.2117,13.2109,13.2608,13.3195,13.1676,12.9865,12.9656,13.0513,13.1406,7.3373,7.2862,7.127,6.761,6.2958,6.3547,6.4275,6.5006,6.5377,6.6316,6.7504,6.7538,6.9445,7.2856,7.4472,7.696,8.0151,8.23,8.4499,8.6741,8.7238,8.7919,8.8754,8.8456,8.8357,8.8357,8.8416,8.8265,8.8026,8.8026,8.7285,8.593,8.5337,8.4011,8.2036,8.4128,8.6912,9.0332,9.2168,9.3837,9.5176,9.254,9.0894,9.0564,8.8068,8.6664,8.6664,8.6938,8.6582,8.5525,8.4099,8.106,7.622,7.0951,0.0,0.0,0.0,0.0,0.0,0.0,0.0,0.0,0.0,5.2677,5.6653,0.0,6.8363,0.0,7.7788,8.2411,8.4522,8.498,0.0,0.0,8.7075,8.82,8.9226,9.2598,9.6164,9.9477,10.2632,10.5688,10.8645,11.0809,11.1973,11.1698,11.1989,11.235,11.2664,11.405,11.5549,11.6753,11.7374,11.8196,11.9275,11.9825,12.0443,12.1047,12.1204,12.1741,12.3303,12.4675,12.6036,12.729,12.8732,12.924,12.8683,12.9523,13.0503,13.1589,12.8869,12.5965,12.6081,12.7152,12.8567,6.9085,6.7164,6.0967,5.809,5.7667,5.8292,5.977,6.1734,6.1291,6.1981,6.314,6.1287,6.1599,6.3653,6.6066,0.0,7.171,7.5163,7.8965,8.3033,8.3708,8.486,8.6312,8.5269,8.4778,8.4746,8.5044,8.5099,8.507,8.5038,8.4359,8.291,8.0235,7.8228,7.7288,8.1462,8.5387,8.86,9.1555,9.3955,9.5507,9.2795,9.0682,8.9427,8.7623,8.6664,8.6697,8.7598,8.6795,8.3945,8.2204,7.8635,7.2742,0.0,0.0,0.0,0.0,0.0,0.0,0.0,0.0,0.0,0.0,0.0,0.0,0.0,0.0,6.3537,7.0925,0.0,8.0415,7.9721,0.0,0.0,0.0,8.0065,8.2072,8.5669,8.9362,9.2715,0.0,0.0,10.5343,10.8266,10.9683,10.8139,10.9265,11.0264,11.0282,11.1755,11.2973,11.3406,11.4807,11.5915,11.6145,11.7353,11.8599,11.9879,12.0877,12.0736,12.1213,12.1666,12.1951,12.243,12.2581,12.267,12.2611,12.3543,12.5372,12.6958,12.4681,12.2413,12.245,12.2826,12.4417,6.1083,5.5365,5.1692,5.0037,5.0012,5.1095,5.2324,5.3508,5.4168,5.4518,5.4636,5.3954,5.3895,5.4274,5.5582,0.0,0.0,0.0,7.0882,7.5169,7.674,7.8126,7.9233,7.9036,7.8945,7.9143,8.0058,8.053,8.053,8.1395,7.7933,7.0516,0.0,0.0,7.2514,7.7185,8.1659,8.5789,8.8929,9.1322,9.3022,9.1927,9.0677,8.9256,8.7715,8.6854,8.6691,8.6062,8.4218,8.1111,7.7735,7.2745,0.0,0.0,0.0,0.0,0.0,0.0,0.0,0.0,0.0,0.0,0.0,4.13,4.383,0.0,0.0,0.0,6.1908,6.7691,7.3202,7.3607,0.0,0.0,0.0,0.0,0.0,0.0,0.0,8.6904,9.2701,9.7763,10.1262,10.2816,10.3756,10.437,10.6598,10.8228,10.8466,0.0,11.1082,11.1191,11.1809,11.2282,11.2335,11.2899,11.3519,11.4176,11.4354,11.4821,11.5962,11.6368,11.6832,11.7813,11.8323,11.7745,11.5509,11.4778,11.628,12.2315,12.0115,11.7486,11.8376,11.9445,12.0707,5.1469,0.0,0.0,0.0,0.0,4.3487,4.4496,4.546,4.6322,4.6666,4.6637,4.59,0.0,0.0,0.0,0.0,0.0,0.0,6.2262,6.6997,6.9091,7.0911,7.2447,7.2419,7.2494,7.271,7.3771,7.411,7.3697,7.2673,6.7617,5.913,0.0,0.0,0.0,0.0,7.7868,8.3259,8.7075,9.0031,9.2243,9.2332,9.1719,9.0373,8.8325,8.6587,8.5333,8.3562,8.0813,7.6866,7.1992,0.0,0.0,0.0,0.0,0.0,0.0,0.0,0.0,0.0,0.0,0.0,0.0,0.0,0.0,0.0,0.0,0.0,0.0,0.0,6.4449,6.6414,6.6684,0.0,0.0,0.0,0.0,0.0,0.0,0.0,0.0,0.0,9.4554,9.6221,9.8217,0.0,0.0,10.5743,10.6544,10.8067,10.9136,10.9228,10.9645,0.0,10.8775,10.9047,10.9047,10.8085,10.8374,10.9117,11.0441,11.0745,11.1213,11.2415,11.296,11.1078,10.5573,10.4375,10.7468,11.3067,11.2346,11.0452,11.1992,11.337,11.4871,0.0,0.0,0.0,0.0,0.0,0.0,0.0,0.0,3.8169,3.8864,0.0,3.7003,0.0,0.0,0.0,0.0,4.3959,4.8277,0.0,0.0,6.1037,6.3539,6.6506,6.5943,6.5613,6.5638,6.5889,6.5351,6.3749,5.7026,0.0,0.0,0.0,0.0,0.0,0.0,7.432,8.1333,8.656,9.0873,9.4122,9.4573,9.4116,9.29,8.9437,8.5788,8.22,8.0317,7.6736,7.0857,6.4998,0.0,0.0,0.0,0.0,0.0,0.0,0.0,0.0,0.0,0.0,0.0,0.0,0.0,0.0,0.0,0.0,0.0,0.0,0.0,0.0,5.7922,0.0,0.0,0.0,0.0,0.0,0.0,0.0,0.0,0.0,0.0,8.4303,8.8727,9.3818,9.8737,0.0,0.0,0.0,0.0,10.7098,10.7303,10.8625,10.8573,10.5744,10.6651,10.6633,10.3564,0.0,0.0,10.5184,10.5166,10.511,10.5412,10.5564,10.2041,9.0206,9.3065,9.7667,9.912,10.0067,10.1218,10.2786,10.3498,10.5658,0.0,0.0,0.0,0.0,0.0,0.0,0.0,0.0,0.0,3.1598,0.0,3.073,0.0,0.0,0.0,0.0,0.0,0.0,0.0,0.0,5.3192,5.5797,5.7608,5.7613,5.7743,0.0,5.7288,5.4061,0.0,0.0,0.0,0.0,0.0,0.0,0.0,0.0,7.0929,7.7594,8.4356,8.9157,9.1816,9.2956,9.2995,9.1959,9.0345,8.6783,8.1014,7.6244,7.0985,0.0,0.0,0.0,0.0,0.0,0.0,0.0,0.0,0.0,0.0,0.0,0.0,0.0,0.0,0.0,0.0,0.0,0.0,0.0,0.0,0.0,0.0,0.0,5.5113,0.0,0.0,0.0,0.0,0.0,0.0,0.0,0.0,0.0,7.7026,8.2446,8.8315,9.3455,9.6649,9.9474,10.2397,0.0,0.0,0.0,0.0,0.0,0.0,0.0,10.1624,9.937,9.8595,9.7839,9.6688,9.5432,9.4554,9.4554,0.0,0.0,8.0329,8.1984,8.5979,8.8262,8.8449,8.9128,9.1869,9.3591,9.6027,0.0,0.0,0.0,0.0,0.0,0.0,0.0,0.0,0.0,2.5501,2.5246,0.0,0.0,0.0,0.0,0.0,0.0,0.0,0.0,0.0,0.0,0.0,4.8893,4.9377,0.0,0.0,0.0,0.0,0.0,0.0,0.0,0.0,0.0,0.0,0.0,0.0,6.823,7.5715,8.3439,8.8817,9.165,9.3677,9.4041,9.2544,9.1418,8.7701,8.0956,0.0,0.0,0.0,0.0,0.0,0.0,0.0,0.0,0.0,0.0,0.0,0.0,0.0,0.0,0.0,0.0,0.0,0.0,0.0,0.0,0.0,0.0,0.0,0.0,0.0,5.0387,0.0,0.0,0.0,0.0,0.0,0.0,0.0,0.0,0.0,0.0,0.0,8.2357,8.8066,9.2293,9.6128,9.9746,10.0939,10.1479,0.0,0.0,0.0,0.0,0.0,0.0,0.0,0.0,0.0,0.0,0.0,0.0,0.0,0.0,8.0624,7.2365,7.33,7.6038,7.8113,0.0,0.0,0.0,0.0,0.0,0.0,0.0,0.0,0.0,0.0,0.0,0.0,0.0,0.0,0.0,2.0815,0.0,0.0,1.9912,0.0,0.0,0.0,0.0,0.0,0.0,0.0,0.0,0.0,0.0,0.0,0.0,0.0,0.0,0.0,0.0,0.0,0.0,0.0,0.0,0.0,0.0,6.6225,7.5859,8.3913,8.9929,9.3767,9.7053,9.7389,9.4852,9.2576,8.8327,8.1858,0.0,0.0,0.0,0.0,0.0,0.0,0.0,0.0,0.0,0.0,0.0,0.0,0.0,0.0,0.0,0.0,0.0,0.0,0.0,0.0,0.0,0.0,0.0,0.0,0.0,0.0,5.0491,5.4882,5.6701,0.0,0.0,0.0,0.0,0.0,0.0,0.0,0.0,0.0,8.2764,8.8031,9.2598,9.6438,9.8416,9.9623,9.9802,9.9891,9.9243,9.7425,9.5842,9.363,0.0,0.0,0.0,0.0,0.0,0.0,0.0,0.0,0.0,0.0,0.0,0.0,0.0,0.0,0.0,0.0,0.0,0.0,0.0,0.0,0.0,0.0,0.0,0.0,0.0,0.0,0.0,0.0,0.0,0.0,0.0,0.0,0.0,0.0,0.0,0.0,0.0,0.0,0.0,0.0,0.0,0.0,0.0,0.0,0.0,0.0,0.0,0.0,0.0,0.0,0.0,0.0,0.0,0.0,6.5121,7.4697,8.3711,9.0286,9.4241,9.7191,9.756,9.5063,9.3007,8.7922,0.0,0.0,0.0,0.0,0.0,0.0,0.0,0.0,0.0,0.0,0.0,0.0,0.0,0.0,0.0,0.0,0.0,0.0,0.0,0.0,0.0,0.0,0.0,0.0,0.0,0.0,0.0,0.0,4.9984,5.2878,5.4103,0.0,0.0,0.0,0.0,0.0,0.0,0.0,0.0,0.0,0.0,8.8442,9.4266,9.6761,9.8069,9.8123,9.8297,9.7686,9.5593,9.3976,9.1789,8.8328,0.0,0.0,0.0,0.0,0.0,0.0,0.0,0.0,0.0,0.0,0.0,0.0,0.0,0.0,0.0,0.0,0.0,0.0,0.0,0.0,0.0,0.0,0.0,0.0,0.0,0.0,0.0,0.0,0.0,0.0,0.0,0.0,0.0,0.0,0.0,0.0,0.0,0.0,0.0,0.0,0.0,0.0,0.0,0.0,0.0,0.0,0.0,0.0,0.0,0.0,0.0,0.0,0.0,6.4529,7.4315,8.3649,9.043,9.4526,9.7534,9.7841,9.5105,9.2717,8.7061,0.0,0.0,0.0,0.0,0.0,0.0,0.0,0.0,0.0,0.0,0.0,0.0,0.0,0.0,0.0,0.0,0.0,0.0,0.0,0.0,0.0,0.0,0.0,0.0,0.0,0.0,0.0,0.0,4.6134,4.9297,5.2217,0.0,0.0,0.0,0.0,0.0,0.0,0.0,0.0,0.0,0.0,8.4073,8.9671,9.2653,0.0,0.0,9.4659,9.4231,9.29,9.0822,8.8195,8.4764,8.0243,0.0,0.0,0.0,0.0,0.0,0.0,0.0,0.0,0.0,0.0,0.0,0.0,0.0,0.0,0.0,0.0,0.0,0.0,0.0,0.0,0.0,0.0,0.0,0.0,0.0,0.0,0.0,0.0,0.0,0.0,0.0,0.0,0.0,0.0,0.0,0.0,0.0,0.0,0.0,0.0,0.0,0.0,0.0,0.0,0.0,0.0,0.0,0.0,0.0,0.0,0.0,0.0,6.4233,7.4482,8.3637,9.0421,9.4749,9.8067,9.8227,9.5164,9.2029,8.6011,0.0,0.0,0.0,0.0,0.0,0.0,0.0,0.0,0.0,0.0,0.0,0.0,0.0,0.0,0.0,0.0,0.0,0.0,0.0,0.0,0.0,0.0,0.0,0.0,0.0,0.0,0.0,0.0,0.0,0.0,0.0,0.0,0.0,0.0,0.0,0.0,0.0,0.0,0.0,0.0,0.0,7.98,8.3659,8.7016,8.9222,0.0,8.9609,8.9456,8.9475,8.6792,8.3497,8.0109,0.0,0.0,0.0,0.0,0.0,0.0,0.0,0.0,0.0,0.0,0.0,0.0,0.0,0.0,0.0,0.0,0.0,0.0,0.0,0.0,0.0,0.0,0.0,0.0,0.0,0.0,0.0,0.0,0.0,0.0,0.0,0.0,0.0,0.0,0.0,0.0,0.0,0.0,0.0,0.0,0.0,0.0,0.0,0.0,0.0,0.0,0.0,0.0,0.0,0.0,0.0,0.0,0.0,0.0,7.4193,8.2784,8.9638,9.4739,9.8067,9.8336,9.5404,9.2379,0.0,0.0,0.0,0.0,0.0,0.0,0.0,0.0,0.0,0.0,0.0,0.0,0.0,0.0,0.0,0.0,0.0,0.0,0.0,0.0,0.0,0.0,0.0,0.0,0.0,0.0,0.0,3.3595,0.0,0.0,0.0,0.0,0.0,0.0,0.0,0.0,0.0,0.0,0.0,0.0,0.0,0.0,7.8421,8.2094,8.5412,8.7185,0.0,0.0,8.6297,8.615,8.343,8.0185,0.0,0.0,0.0,0.0,0.0,0.0,0.0,0.0,0.0,0.0,0.0,0.0,0.0,0.0,0.0,0.0,0.0,0.0,0.0,0.0,0.0,0.0,0.0,0.0,0.0,0.0,0.0,0.0,0.0,0.0,0.0,0.0,0.0,0.0,0.0,0.0,0.0,0.0,0.0,0.0,0.0,0.0,0.0,0.0,0.0,0.0,0.0,0.0,0.0,0.0,0.0,0.0,0.0,0.0,6.2279,7.3008,8.1324,8.8102,9.3367,9.626,9.6624,9.4391,9.1574,8.5915,0.0,0.0,0.0,0.0,0.0,0.0,0.0,0.0,0.0,0.0,0.0,0.0,0.0,0.0,0.0,0.0,0.0,0.0,0.0,0.0,0.0,0.0,0.0,0.0,0.0,0.0,0.0,0.0,0.0,0.0,0.0,0.0,0.0,0.0,0.0,0.0,0.0,0.0,0.0,0.0,0.0,0.0,7.8246,8.084,0.0,0.0,0.0,8.0592,8.0727,0.0,0.0,0.0,0.0,0.0,0.0,0.0,0.0,0.0,0.0,0.0,0.0,0.0,0.0,0.0,0.0,0.0,0.0,0.0,0.0,0.0,0.0,0.0,0.0,0.0,0.0,0.0,0.0,0.0,0.0,0.0,0.0,0.0,0.0,0.0,0.0,0.0,0.0,0.0,0.0,0.0,0.0,0.0,0.0,0.0,0.0,0.0,0.0,0.0,0.0,0.0,0.0,0.0,0.0,0.0,0.0,0.0,7.1253,7.9502,8.6207,9.1286,9.3824,9.4348,9.2937,9.0286,8.5207,0.0,0.0,0.0,0.0,0.0,0.0,0.0,0.0,0.0,0.0,0.0,0.0,0.0,0.0,0.0,0.0,0.0,0.0,0.0,0.0,0.0,0.0,0.0,0.0,0.0,0.0,0.0,0.0,0.0,0.0,0.0,0.0,0.0,0.0,0.0,0.0,0.0,0.0,0.0,0.0,0.0,7.1808,7.3215,7.486,7.5394,0.0,0.0,7.3709,7.4254,7.277,0.0,0.0,0.0,0.0,0.0,0.0,0.0,0.0,0.0,0.0,0.0,0.0,0.0,0.0,0.0,0.0,0.0,0.0,0.0,0.0,0.0,0.0,0.0,0.0,0.0,0.0,0.0,0.0,0.0,0.0,0.0,0.0,0.0,0.0,0.0,0.0,0.0,0.0,0.0,0.0,0.0,0.0,0.0,0.0,0.0,0.0,0.0,0.0,0.0,0.0,0.0,0.0,0.0,0.0,0.0,0.0,6.9375,7.7758,8.456,8.9883,9.3334,9.4348,9.2937,9.0351,8.5348,0.0,0.0,0.0,0.0,0.0,0.0,0.0,0.0,0.0,0.0,0.0,0.0,0.0,0.0,0.0,0.0,0.0,0.0,0.0,0.0,0.0,0.0,0.0,0.0,0.0,0.0,0.0,0.0,0.0,0.0,0.0,0.0,0.0,0.0,0.0,0.0,0.0,0.0,0.0,0.0,0.0,6.9544,6.8672,6.9789,0.0,0.0,0.0,0.0,6.8768,6.6726,0.0,0.0,0.0,0.0,0.0,0.0,0.0,0.0,0.0,0.0,0.0,0.0,0.0,0.0,0.0,0.0,0.0,0.0,0.0,0.0,0.0,0.0,0.0,0.0,0.0,0.0,0.0,0.0,0.0,0.0,0.0,0.0,0.0,0.0,0.0,0.0,0.0,0.0,0.0,0.0,0.0,0.0,0.0,0.0,0.0,0.0,0.0,0.0,0.0,0.0,0.0,0.0,0.0,0.0,0.0,0.0,6.7246,7.5219,8.2079,8.7923,9.1141,9.2407,9.1733,8.9236,8.4524,0.0,0.0,0.0,0.0,0.0,0.0,0.0,0.0,0.0,0.0,0.0,0.0,0.0,0.0,0.0,0.0,0.0,0.0,0.0,0.0,0.0,0.0,0.0,0.0,0.0,0.0,0.0,0.0,0.0,0.0,0.0,0.0,0.0,0.0,0.0,0.0,0.0,0.0,0.0,0.0,6.3508,6.5632,6.4593,0.0,0.0,0.0,0.0,0.0,0.0,6.2103,6.1215,0.0,0.0,0.0,0.0,0.0,0.0,0.0,0.0,0.0,0.0,0.0,0.0,0.0,0.0,0.0,0.0,0.0,0.0,0.0,0.0,0.0,0.0,0.0,0.0,0.0,0.0,0.0,0.0,0.0,0.0,0.0,0.0,0.0,0.0,0.0,0.0,0.0,0.0,0.0,0.0,0.0,0.0,0.0,0.0,0.0,0.0,0.0,0.0,0.0,0.0,0.0,0.0,0.0,0.0,0.0,6.4578,7.2341,7.9372,8.5537,8.8374,8.9908,9.007,8.7528,8.3155,7.6645,0.0,0.0,0.0,0.0,0.0,0.0,0.0,0.0,0.0,0.0,0.0,0.0,0.0,0.0,0.0,0.0,0.0,0.0,0.0,0.0,0.0,0.0,0.0,0.0,0.0,0.0,0.0,0.0,0.0,0.0,0.0,0.0,0.0,0.0,0.0,0.0,0.0,0.0,0.0,5.9213,6.1277,0.0,0.0,0.0,0.0,0.0,0.0,0.0,0.0,5.811,0.0,0.0,0.0,0.0,0.0,0.0,0.0,0.0,0.0,0.0,0.0,0.0,0.0,0.0,0.0,0.0,0.0,0.0,0.0,0.0,0.0,0.0,0.0,0.0,0.0,0.0,0.0,0.0,0.0,0.0,0.0,0.0,0.0,0.0,0.0,0.0,0.0,0.0,0.0,0.0,0.0,0.0,0.0,0.0,0.0,0.0,0.0,0.0,0.0,0.0,0.0,0.0,0.0,0.0,0.0,0.0,6.934,7.702,8.2419,8.6154,8.8145,8.8387,8.5902,8.0987,7.3653,0.0,0.0,0.0,0.0,0.0,0.0,0.0,0.0,0.0,0.0,0.0,0.0,0.0,0.0,0.0,0.0,0.0,0.0,0.0,0.0,0.0,0.0,0.0,0.0,0.0,0.0,0.0,0.0,0.0,0.0,0.0,0.0,0.0,0.0,0.0,0.0,0.0,0.0,4.909,5.4479,0.0,0.0,0.0,0.0,0.0,0.0,0.0,0.0,5.4518,0.0,0.0,0.0,0.0,0.0,0.0,0.0,0.0,0.0,0.0,0.0,0.0,0.0,0.0,0.0,0.0,0.0,0.0,0.0,0.0,0.0,0.0,0.0,0.0,0.0,0.0,0.0,0.0,0.0,0.0,0.0,0.0,0.0,0.0,0.0,0.0,0.0,0.0,0.0,0.0,0.0,0.0,0.0,0.0,0.0,0.0,0.0,0.0,0.0,0.0,0.0,0.0,0.0,0.0,0.0,0.0,0.0,0.0,7.3834,7.9861,8.3861,8.6133,8.6424,8.2215,7.6704,0.0,0.0,0.0,0.0,0.0,0.0,0.0,0.0,0.0,0.0,0.0,0.0,0.0,0.0,0.0,0.0,0.0,0.0,0.0,0.0,0.0,0.0,0.0,0.0,0.0,0.0,0.0,0.0,0.0,0.0,0.0,0.0,0.0,0.0,0.0,0.0,0.0,0.0,0.0,0.0,0.0,0.0,0.0,0.0,0.0,0.0,0.0,0.0,0.0,0.0,0.0,0.0,0.0,0.0,0.0,0.0,0.0,0.0,0.0,0.0,0.0,0.0,0.0,0.0,0.0,0.0,0.0,0.0,0.0,0.0,0.0,0.0,0.0,0.0,0.0,0.0,0.0,0.0,0.0,0.0,0.0,0.0,0.0,0.0,0.0,0.0,0.0,0.0,0.0,0.0,0.0,0.0,0.0,0.0,0.0,0.0,0.0,0.0,0.0,0.0,0.0,0.0,0.0,0.0,0.0,0.0,0.0,0.0,7.0039,7.7043,8.112,8.3503,8.4093,7.7751,7.1577,0.0,0.0,0.0,0.0,0.0,0.0,0.0,0.0,0.0,0.0,0.0,0.0,0.0,0.0,0.0,0.0,0.0,0.0,0.0,0.0,0.0,0.0,0.0,0.0,0.0,0.0,0.0,0.0,0.0,0.0,0.0,0.0,0.0,0.0,0.0,0.0,0.0,0.0,0.0,0.0,0.0,0.0,0.0,0.0,0.0,0.0,0.0,0.0,4.7258,0.0,0.0,0.0,0.0,0.0,0.0,0.0,0.0,0.0,0.0,0.0,0.0,0.0,0.0,0.0,0.0,0.0,0.0,0.0,0.0,0.0,0.0,0.0,0.0,0.0,0.0,0.0,0.0,0.0,0.0,0.0,0.0,0.0,0.0,0.0,0.0,0.0,0.0,0.0,0.0,0.0,0.0,0.0,0.0,0.0,0.0,0.0,0.0,0.0,0.0,0.0,0.0,0.0,0.0,0.0,0.0,0.0,0.0,0.0,6.5394,7.3454,7.738,7.9686,8.0184,7.2825,6.6165,0.0,0.0,0.0,0.0,0.0,0.0,0.0,0.0,0.0,0.0,0.0,0.0,0.0,0.0,0.0,0.0,0.0,0.0,0.0,0.0,0.0,0.0,0.0,0.0,0.0,0.0,0.0,0.0,0.0,0.0,0.0,0.0,0.0,0.0,0.0,0.0,0.0,0.0,0.0,0.0,0.0,0.0,0.0,0.0,0.0,0.0,0.0,0.0,0.0,0.0,0.0,0.0,0.0,0.0,0.0,0.0,0.0,0.0,0.0,0.0,0.0,0.0,0.0,0.0,0.0,0.0,0.0,0.0,0.0,0.0,0.0,0.0,0.0,0.0,0.0,0.0,0.0,0.0,0.0,0.0,0.0,0.0,0.0,0.0,0.0,0.0,0.0,0.0,0.0,0.0,0.0,0.0,0.0,0.0,0.0,0.0,0.0,0.0,0.0,0.0,0.0,0.0,0.0,0.0,0.0,0.0,0.0,0.0,6.0631,6.798,7.1996,7.2745,7.0152,6.5705,6.1168,0.0,0.0,0.0,0.0,0.0,0.0,0.0,0.0,0.0,0.0,0.0,0.0,0.0,0.0,0.0,0.0,0.0,0.0,0.0,0.0,0.0,0.0,0.0,0.0,0.0,0.0,0.0,0.0,0.0,0.0,0.0,0.0,0.0,0.0,0.0,0.0,0.0,0.0,0.0,0.0,0.0,0.0,0.0,0.0,0.0,0.0,0.0,0.0,0.0,0.0,0.0,0.0,0.0,0.0,0.0,0.0,0.0,0.0,0.0,0.0,0.0,0.0,0.0,0.0,0.0,0.0,0.0,0.0,0.0,0.0,0.0,0.0,0.0,0.0,0.0,0.0,0.0,0.0,0.0,0.0,0.0,0.0,0.0,0.0,0.0,0.0,0.0,0.0,0.0,0.0,0.0,0.0,0.0,0.0,0.0,0.0,0.0,0.0,0.0,0.0,0.0,0.0,0.0,0.0,0.0,0.0,0.0,0.0,0.0,6.2094,6.4159,6.335,5.9816,5.8137,5.5469,0.0,0.0,0.0,0.0,0.0,0.0,0.0,0.0,0.0,0.0,0.0,0.0,0.0,0.0,0.0,0.0,0.0,0.0,0.0,0.0,0.0,0.0,0.0,0.0,0.0,0.0,0.0,0.0,0.0,0.0,0.0,0.0,0.0,0.0,0.0,0.0,0.0,0.0,0.0,0.0,0.0,0.0,0.0,0.0,0.0,0.0,0.0,0.0,0.0,0.0,0.0,0.0,0.0,0.0,0.0,0.0,0.0,0.0,0.0,0.0,0.0,0.0,0.0,0.0,0.0,0.0,0.0,0.0,0.0,0.0,0.0,0.0,0.0,0.0,0.0,0.0,0.0,0.0,0.0,0.0,0.0,0.0,0.0,0.0,0.0,0.0,0.0,0.0,0.0,0.0,0.0,0.0,0.0,0.0,0.0,0.0,0.0,0.0,0.0,0.0,0.0,0.0,0.0,0.0,0.0,0.0,0.0,0.0,0.0,5.6675,5.2965,5.1018,5.1079,5.0524,4.8392,0.0,0.0,0.0,0.0,0.0,0.0,0.0,0.0,0.0,0.0,0.0,0.0,0.0,0.0,0.0,0.0,0.0,0.0,0.0,0.0,0.0,0.0,0.0,0.0,0.0,0.0,0.0,0.0,0.0,0.0,0.0,0.0,0.0,0.0,0.0,0.0,0.0,0.0,0.0,0.0,0.0,0.0,0.0,0.0,0.0,0.0,0.0,0.0,0.0,0.0,0.0,0.0,0.0,0.0,0.0,0.0,0.0,0.0,0.0,0.0,0.0,0.0,0.0,0.0,0.0,0.0,0.0,0.0,0.0,0.0,0.0,0.0,0.0,0.0,0.0,0.0,0.0,0.0,0.0,0.0,0.0,0.0,0.0,0.0,0.0,0.0,0.0,0.0,0.0,0.0,0.0,0.0,0.0,0.0,0.0,0.0,0.0,0.0,0.0,0.0,0.0,0.0,0.0,0.0,0.0,0.0,0.0,0.0,0.0,4.2772,4.3384,4.3877,4.4334,4.3865,4.2762,4.0961,0.0,0.0,0.0,0.0,0.0,0.0,0.0,0.0,0.0,0.0,0.0,0.0,0.0,0.0,0.0,0.0,0.0,0.0,0.0,0.0,0.0,0.0,0.0,0.0,0.0,0.0,0.0,0.0,0.0,0.0,0.0,0.0,0.0,0.0,0.0,0.0,0.0,0.0,0.0,0.0,0.0,0.0,0.0,0.0,0.0,0.0,0.0,0.0,0.0,0.0,0.0,0.0,0.0,0.0,0.0,0.0,0.0,0.0,0.0,0.0,0.0,0.0,0.0,0.0,0.0,0.0,0.0,0.0,0.0,0.0,0.0,0.0,0.0,0.0,0.0,0.0,0.0,0.0,0.0,0.0,0.0,0.0,0.0,0.0,0.0,0.0,0.0,0.0,0.0,0.0,0.0,0.0,0.0,0.0,0.0,0.0,0.0,0.0,0.0,0.0,0.0,0.0,0.0,0.0,0.0,0.0,0.0,0.0,3.2587,3.5916,3.7929,3.8425,3.8458,3.8101,0.0,0.0,0.0,0.0,0.0,0.0,0.0,0.0,0.0,0.0,0.0,0.0,0.0,0.0,0.0,0.0,0.0,0.0,0.0,0.0,0.0,0.0,0.0,0.0,0.0,0.0,0.0,0.0,0.0,0.0,0.0,0.0,0.0,0.0,0.0,0.0,0.0,0.0,0.0,0.0,0.0,0.0,0.0,0.0,0.0,0.0,0.0,0.0,0.0,0.0,0.0,0.0,0.0,0.0,0.0,0.0,0.0,0.0,0.0,0.0,0.0,0.0,0.0,0.0,0.0,0.0,0.0,0.0,0.0,0.0,0.0,0.0,0.0,0.0,0.0,0.0,0.0,0.0,0.0,0.0,0.0,0.0,0.0,0.0,0.0,0.0,0.0,0.0,0.0,0.0,0.0,0.0,0.0,0.0,0.0,0.0,0.0,0.0,0.0,0.0,0.0,0.0,0.0,0.0,0.0,0.0,0.0,0.0,2.2221,2.7482,3.087,3.2847,3.3325,3.4348,3.463,0.0,0.0,0.0,0.0,0.0,0.0,0.0,0.0,0.0,0.0,0.0,0.0,0.0,0.0,0.0,0.0,0.0,0.0,0.0,0.0,0.0,0.0,0.0,0.0,0.0,0.0,0.0,0.0,0.0,0.0,0.0,0.0,0.0,0.0,0.0,0.0,0.0,0.0,0.0,0.0,0.0,0.0,0.0,0.0,0.0,0.0,0.0,0.0,0.0,0.0,0.0,0.0,0.0,0.0,0.0,0.0,0.0,0.0,0.0,0.0,0.0,0.0,0.0,0.0,0.0,0.0,0.0,0.0,0.0,0.0,0.0,0.0,0.0,0.0,0.0,0.0,0.0,0.0,0.0,0.0,0.0,0.0,0.0,0.0,0.0,0.0,0.0,0.0,0.0,0.0,0.0,0.0,0.0,0.0,0.0,0.0,0.0,0.0,0.0,0.0,0.0,0.0,0.0,0.0,0.0,0.0,0.0,0.0,0.0,2.2561,0.0,2.9039,0.0,3.1421,3.2157,0.0,0.0,0.0,0.0,0.0,0.0,0.0,0.0,0.0,0.0,0.0,0.0,0.0,0.0,0.0,0.0,0.0,0.0,0.0,0.0,0.0,0.0,0.0,0.0,0.0,0.0,0.0,0.0,0.0,0.0,0.0,0.0,0.0,0.0,0.0,0.0,0.0,0.0,0.0,0.0,0.0,0.0,0.0,0.0,0.0,0.0,0.0,0.0,0.0,0.0,0.0,0.0,0.0,0.0,0.0,0.0,0.0,0.0,0.0,0.0,0.0,0.0,0.0,0.0,0.0,0.0,0.0,0.0,0.0,0.0,0.0,0.0,0.0,0.0,0.0,0.0,0.0,0.0,0.0,0.0,0.0,0.0,0.0,0.0,0.0,0.0,0.0,0.0,0.0,0.0,0.0,0.0,0.0,0.0,0.0,0.0,0.0,0.0,0.0,0.0,0.0,0.0,0.0,0.0,0.0,0.0,0.0,0.0,0.0,1.978,2.3148,2.6239,2.8831,2.987,3.0884,0.0,0.0,0.0,0.0,0.0,0.0,0.0,0.0,0.0,0.0,0.0,0.0,0.0,0.0,0.0,0.0,0.0,0.0,0.0,0.0,0.0,0.0,0.0,0.0,0.0,0.0,0.0,0.0,0.0,0.0,0.0,0.0,0.0,0.0,0.0,0.0,0.0,0.0,0.0,0.0,0.0,0.0,0.0,0.0,0.0,0.0,0.0,0.0,0.0,0.0,0.0,0.0,0.0,0.0,0.0,0.0,0.0,0.0,0.0,0.0,0.0,0.0,0.0,0.0,0.0,0.0,0.0,0.0,0.0,0.0,0.0,0.0,0.0,0.0,0.0,0.0,0.0,0.0,0.0,0.0,0.0,0.0,0.0,0.0,0.0,0.0,0.0,0.0,0.0,0.0,0.0,0.0,0.0,0.0,0.0,0.0,0.0,0.0,0.0,0.0,0.0,0.0,0.0,0.0,0.0,0.0,0.0,0.0,0.0,1.8873,2.1134,2.4194,2.8006,2.9367,3.0503,0.0,0.0,0.0,0.0,0.0,0.0,0.0,0.0,0.0,0.0,0.0,0.0,0.0,0.0,0.0,0.0,0.0,0.0,0.0,0.0,0.0,0.0,0.0,0.0,0.0,0.0,0.0,0.0,0.0,0.0,0.0,0.0,0.0,0.0,0.0,0.0,0.0,0.0,0.0,0.0,0.0,0.0,0.0,0.0,0.0,0.0,0.0,0.0,0.0,0.0,0.0,0.0,0.0,0.0,0.0,0.0,0.0,0.0,0.0,0.0,0.0,0.0,0.0,0.0,0.0,0.0,0.0,0.0,0.0,0.0,0.0,0.0,0.0,0.0,0.0,0.0,0.0,0.0,0.0,0.0,0.0,0.0,0.0,0.0,0.0,0.0,0.0,0.0,0.0,0.0,0.0,0.0,0.0,0.0,0.0,0.0,0.0,0.0,0.0,0.0,0.0,0.0,0.0,0.0,0.0,0.0,0.0,0.0,0.0,0.0,1.9669,2.165,2.3512,2.6043,2.7901,2.8921,0.0,0.0,0.0,0.0,0.0,0.0,0.0,0.0,0.0,0.0,0.0,0.0,0.0,0.0,0.0,0.0,0.0,0.0,0.0,0.0,0.0,0.0,0.0,0.0,0.0,0.0,0.0,0.0,0.0,0.0,0.0,0.0,0.0,0.0,0.0,0.0,0.0,0.0,0.0,0.0,0.0,0.0,0.0,0.0,0.0,0.0,0.0,0.0,0.0,0.0,0.0,0.0,0.0,0.0,0.0,0.0,0.0,0.0,0.0,0.0,0.0,0.0,0.0,0.0,0.0,0.0,0.0,0.0,0.0,0.0,0.0,0.0,0.0,0.0,0.0,0.0,0.0,0.0,0.0,0.0,0.0,0.0,0.0,0.0,0.0,0.0,0.0,0.0,0.0,0.0,0.0,0.0,0.0,0.0,0.0,0.0,0.0,0.0,0.0,0.0,0.0,0.0,0.0,0.0,0.0,0.0,0.0,0.0,0.0,0.0,2.0315,2.1313,2.3987,2.6112,0.0,0.0,0.0,0.0,0.0,0.0,0.0,0.0,0.0,0.0,0.0,0.0,0.0,0.0,0.0,0.0,0.0,0.0,0.0,0.0,0.0,0.0,0.0,0.0,0.0,0.0,0.0,0.0,0.0,0.0,0.0,0.0,0.0,0.0,0.0,0.0,0.0,0.0,0.0,0.0,0.0,0.0,0.0,0.0,0.0,0.0,0.0,0.0,0.0,0.0,0.0,0.0,0.0,0.0,0.0,0.0,0.0,0.0,0.0,0.0,0.0,0.0,0.0,0.0,0.0,0.0,0.0,0.0,0.0,0.0,0.0,0.0,0.0,0.0,0.0,0.0,0.0,0.0,0.0,0.0,0.0,0.0,0.0,0.0,0.0,0.0,0.0,0.0,0.0,0.0,0.0,0.0,0.0,0.0,0.0,0.0,0.0,0.0,0.0,0.0,0.0,0.0,0.0,0.0,0.0,0.0,0.0,0.0,0.0,0.0,0.0,1.959,2.0724,2.2576,0.0,2.6926,0.0,0.0,0.0,0.0,0.0,0.0,0.0,0.0,0.0,0.0,0.0,0.0,0.0,0.0,0.0,0.0,0.0,0.0,0.0,0.0,0.0,0.0,0.0,0.0,0.0,0.0,0.0,0.0,0.0,0.0,0.0,0.0,0.0,0.0,0.0,0.0,0.0,0.0,0.0,0.0,0.0,0.0,0.0,0.0,0.0,0.0,0.0,0.0,0.0,0.0,0.0,0.0,0.0,0.0,0.0,0.0,0.0,0.0,0.0,0.0,0.0,0.0,0.0,0.0,0.0,0.0,0.0,0.0,0.0,0.0,0.0,0.0,0.0,0.0,0.0,0.0,0.0,0.0,0.0,0.0,0.0,0.0,0.0,0.0,0.0,0.0,0.0,0.0,0.0,0.0,0.0,0.0,0.0,0.0,0.0,0.0,0.0,0.0,0.0,0.0,0.0,0.0,0.0,0.0,0.0,0.0,0.0,0.0,0.0,0.0,0.0,0.0,2.0149,2.1484,2.3045,0.0,0.0,0.0,0.0,0.0,0.0,0.0,0.0,0.0,0.0,0.0,0.0,0.0,0.0,0.0,0.0,0.0,0.0,0.0,0.0,0.0,0.0,0.0,0.0,0.0,0.0,0.0,0.0,0.0,0.0,0.0,0.0,0.0,0.0,0.0,0.0,0.0,0.0,0.0,0.0,0.0,0.0,0.0,0.0,0.0,0.0,0.0,0.0,0.0,0.0,0.0,0.0,0.0,0.0,0.0,0.0,0.0,0.0,0.0,0.0,0.0,0.0,0.0,0.0,0.0,0.0,0.0,0.0,0.0,0.0,0.0,0.0,0.0,0.0,0.0,0.0,0.0,0.0,0.0,0.0,0.0,0.0,0.0,0.0,0.0,0.0,0.0,0.0,0.0,0.0,0.0,0.0,0.0,0.0,0.0,0.0,0.0,0.0,0.0,0.0,0.0,0.0,0.0,0.0,0.0,0.0,0.0,0.0,0.0,0.0,1.6571,1.7579,1.8813,2.0127,2.1559,0.0,0.0,0.0,0.0,0.0,0.0,0.0,0.0,0.0,0.0,0.0,0.0,0.0,0.0,0.0,0.0,0.0,0.0,0.0,0.0,0.0,0.0,0.0,0.0,0.0,0.0,0.0,0.0,0.0,0.0,0.0,0.0,0.0,0.0,0.0,0.0,0.0,0.0,0.0,0.0,0.0,0.0,0.0,0.0,0.0,0.0,0.0,0.0,0.0,0.0,0.0,0.0,0.0,0.0,0.0,0.0,0.0,0.0,0.0,0.0,0.0,0.0,0.0,0.0,0.0,0.0,0.0,0.0,0.0,0.0,0.0,0.0,0.0,0.0,0.0,0.0,0.0,0.0,0.0,0.0,0.0,0.0,0.0,0.0,0.0,0.0,0.0,0.0,0.0,0.0,0.0,0.0,0.0,0.0,0.0,0.0,0.0,0.0,0.0,0.0,0.0,0.0,0.0,0.0,0.0,0.0,0.0,0.0,0.0,0.0,0.0,0.0,0.0,0.0,2.1019,0.0,0.0,0.0,0.0,0.0,0.0,0.0,0.0,0.0,0.0,0.0,0.0,0.0,0.0,0.0,0.0,0.0,0.0,0.0,0.0,0.0,0.0,0.0,0.0,0.0,0.0,0.0,0.0,0.0,0.0,0.0,0.0,0.0,0.0,0.0,0.0,0.0,0.0,0.0,0.0,0.0,0.0,0.0,0.0,0.0,0.0,0.0,0.0,0.0,0.0,0.0,0.0,0.0,0.0,0.0,0.0,0.0,0.0,0.0,0.0,0.0,0.0,0.0,0.0,0.0,0.0,0.0,0.0,0.0,0.0,0.0,0.0,0.0,0.0,0.0,0.0,0.0,0.0,0.0,0.0,0.0,0.0,0.0,0.0,0.0,0.0,0.0,0.0,0.0,0.0,0.0,0.0,0.0,0.0,0.0,0.0,0.0,0.0,0.0,0.0,0.0,0.0,0.0,0.0,0.0,0.0,0.0,0.0,0.0,0.0,0.0,0.0,0.0,0.0,0.0,0.0,0.0,0.0,0.0,0.0,0.0,0.0,0.0,0.0,0.0,0.0,0.0,0.0,0.0,0.0,0.0,0.0,0.0,0.0,0.0,0.0,0.0,0.0,0.0,0.0,0.0,0.0,0.0,0.0,0.0,0.0,0.0,0.0,0.0,0.0,0.0,0.0,0.0,0.0,0.0,0.0,0.0,0.0,0.0,0.0,0.0,0.0,0.0,0.0,0.0,0.0,0.0,0.0,0.0,0.0,0.0,0.0,0.0,0.0,0.0,0.0,0.0,0.0,0.0,0.0,0.0,0.0,0.0,0.0,0.0,0.0,0.0,0.0,0.0,0.0,0.0,0.0,0.0,0.0,0.0,0.0,0.0,0.0,0.0,0.0,0.0,0.0,0.0,0.0,0.0,0.0,0.0,0.0,0.0,0.0,0.0,0.0,0.0,0.0,0.0,0.0,0.0,0.0,0.0,0.0,0.0,0.0,0.0,0.0,0.0,0.0,0.0,0.0,0.0,0.0,0.0,0.0,0.0,0.0,0.0,0.0,0.0,0.0,0.0,0.0,0.0,0.0,0.0,0.0,0.0,0.0,0.0,0.0,0.0,0.0,0.0,0.0,0.0,0.0,0.0,0.0,0.0,0.0,0.0,0.0,0.0,0.0,0.0,0.0,0.0,0.0,0.0,0.0,0.0,0.0,0.0,0.0,0.0,0.0,0.0,0.0,0.0,0.0,0.0,0.0,0.0,0.0,0.0,0.0,0.0,0.0,0.0,0.0,0.0,0.0,0.0,0.0,0.0,0.0,0.0,0.0,0.0,0.0,0.0,0.0,0.0,0.0,0.0,0.0,0.0,0.0,0.0,0.0,0.0,0.0,0.0,0.0,0.0,0.0,0.0,0.0,0.0,0.0,0.0,0.0,0.0,0.0,0.0,0.0,0.0,0.0,0.0,0.0,0.0,0.0,0.0,0.0,0.0,0.0,0.0,0.0,0.0,0.0,0.0,0.0,0.0,0.0,0.0,0.0,0.0,0.0,0.0,0.0,0.0,0.0,0.0,0.0,0.0,0.0,0.0,0.0,0.0,0.0,0.0,0.0,0.0,0.0,0.0,0.0,0.0,0.0,0.0,0.0,0.0,0.0,0.0,0.0,0.0,0.0,0.0,0.0,0.0,0.0,0.0,0.0,0.0,0.0,0.0,0.0,0.0,0.0,0.0,0.0,0.0,0.0,0.0,0.0,0.0,0.0,0.0,0.0,0.0,0.0,0.0,0.0,0.0,0.0,0.0,0.0,0.0,0.0,0.0,0.0,0.0,0.0,0.0,0.0,0.0,0.0,0.0,0.0,0.0,0.0,0.0,0.0,0.0,0.0,0.0,0.0,0.0,0.0,0.0,0.0,0.0,0.0,0.0,0.0,0.0,0.0,0.0,0.0,0.0,0.0,0.0,0.0,0.0,0.0,0.0,0.0,0.0,0.0,0.0,0.0,0.0,0.0,0.0,0.0,0.0,0.0,0.0,0.0,0.0,0.0,0.0,0.0,0.0,0.0,0.0,0.0,0.0,0.0,0.0,0.0,0.0,0.0,0.0,0.0,0.0,0.0,0.0,0.0,0.0,0.0,0.0,0.0,0.0,0.0,0.0,0.0,0.0,0.0,0.0,0.0,0.0,0.0,0.0,0.0,0.0,0.0,0.0,0.0,0.0,0.0,0.0,0.0,0.0,0.0,0.0,0.0,0.0,0.0,0.0,0.0,0.0,0.0,0.0,0.0,0.0,0.0,0.0,0.0,0.0,0.0,0.0,0.0,0.0,0.0,0.0,0.0,0.0,0.0,0.0,0.0,0.0,0.0,0.0,0.0,0.0,0.0,0.0,0.0,0.0,0.0,0.0,0.0,0.0,0.0,0.0,0.0,0.0,0.0,0.0,0.0,0.0,0.0,0.0,0.0,0.0,0.0,0.0,0.0,0.0,0.0,0.0,0.0,0.0,0.0,0.0,0.0,0.0,0.0,0.0,0.0,0.0,0.0,0.0,0.0,0.0,0.0,0.0,0.0,0.0,0.0,0.0,0.0,0.0,0.0,0.0,0.0,0.0,0.0,0.0,0.0,0.0,0.0,0.0,0.0,0.0,0.0,0.0,0.0,0.0,0.0,0.0,0.0,0.0,0.0,0.0,0.0,0.0,0.0,0.0,0.0,0.0,0.0,0.0,0.0,0.0,0.0,0.0,0.0,0.0,0.0,0.0,0.0,0.0,0.0,0.0,0.0,0.0,0.0,0.0,0.0,0.0,0.0,0.0,0.0,0.0,0.0,0.0,0.0,0.0,0.0,0.0,0.0,0.0,0.0,0.0,0.0,0.0,0.0,0.0,0.0,0.0,0.0,0.0,0.0,0.0,0.0,0.0,0.0,0.0,0.0,0.0,0.0,0.0,0.0,0.0,0.0,0.0,0.0,0.0,0.0,0.0,0.0,0.0,0.0,0.0,0.0,0.0,0.0,0.0,0.0,0.0,0.0,0.0,0.0,0.0,0.0,0.0,0.0,0.0,0.0,0.0,0.0,0.0,0.0,0.0,0.0,0.0,0.0,0.0,0.0,0.0,0.0,0.0,0.0,0.0,0.0,0.0,0.0,0.0,0.0,0.0,0.0,0.0,0.0,0.0,0.0,0.0,0.0,0.0,0.0,0.0,0.0,0.0,0.0,0.0,0.0,0.0,0.0,0.0,0.0,0.0,0.0,0.0,0.0,0.0,0.0,0.0,0.0,0.0,0.0,0.0,0.0,0.0,0.0,0.0,0.0,0.0,0.0,0.0,0.0,0.0,0.0,0.0,0.0,0.0,0.0,0.0,0.0,0.0,0.0,0.0,0.0,0.0,0.0,0.0,0.0,0.0,0.0,0.0,0.0,0.0,0.0,0.0,0.0,0.0,0.0,0.0,0.0,0.0,0.0,0.0,0.0,0.0,0.0,0.0,0.0,0.0,0.0,0.0,0.0,0.0,0.0,0.0,0.0,0.0,0.0,0.0,0.0,0.0,0.0,0.0,0.0,0.0,0.0,0.0,0.0,0.0,0.0,0.0,0.0,0.0,0.0,0.0,0.0,0.0,0.0,0.0,0.0,0.0,0.0,0.0,0.0,0.0,0.0,0.0,0.0,0.0,0.0,0.0,0.0,0.0,0.0,0.0,0.0,0.0,0.0,0.0,0.0,0.0,0.0,0.0,0.0,0.0,0.0,0.0,0.0,0.0,0.0,0.0,0.0,0.0,0.0,0.0,0.0,0.0,0.0,0.0,0.0,0.0,0.0,0.0,0.0,0.0,0.0,0.0,0.0,0.0,0.0,0.0,0.0,0.0,0.0,0.0,0.0,0.0,0.0,0.0,0.0,0.0,0.0,0.0,0.0,0.0,0.0,0.0,0.0,0.0,0.0,0.0,0.0,0.0,0.0,0.0,0.0,0.0,0.0,0.0,0.0,0.0,0.0,0.0,0.0,0.0,0.0,0.0,0.0,0.0,0.0,0.0,0.0,0.0,0.0,0.0,0.0,0.0,0.0,0.0,0.0,0.0,0.0,0.0,0.0,0.0,0.0,0.0,0.0,0.0,0.0,0.0,0.0,0.0,0.0,0.0,0.0,0.0,0.0,0.0,0.0,0.0,0.0,0.0,0.0,0.0,0.0,0.0,0.0,0.0,0.0,0.0,0.0,0.0,0.0,0.0,0.0,0.0,0.0,0.0,0.0,0.0,0.0,0.0,0.0,0.0,0.0,0.0,0.0,0.0,0.0,0.0,0.0,0.0,0.0,0.0,0.0,0.0,0.0,0.0,0.0,0.0,0.0,0.0,0.0,0.0,0.0,0.0,0.0,0.0,0.0,0.0,0.0]}]]]